<?xml version="1.0" encoding="UTF-8" standalone="no" ?>
<gpx xmlns="http://www.topografix.com/GPX/1/1" xmlns:xsi="http://www.w3.org/2001/XMLSchema-instance" xsi:schemaLocation="http://www.topografix.com/GPX/1/1 http://www.topografix.com/GPX/1/1/gpx.xsd" version="1.1" creator="VisuGPX - https://www.visugpx.com">
  <metadata>
    <name>Combe de rocheplane</name>
    <desc><![CDATA[Combe de reoche plane non compressée]]></desc>
  </metadata>
  <trk>
    <name><![CDATA[Combe de rocheplane_1]]></name>
    <trkseg>
      <trkpt lat="45.69401" lon="6.56022">
        <ele>1047</ele>
        <time>2014-03-17T08:58:38Z</time>
      </trkpt>
      <trkpt lat="45.69428" lon="6.56019">
        <ele>1050</ele>
        <time>2014-03-17T08:59:16Z</time>
      </trkpt>
      <trkpt lat="45.69426" lon="6.56017">
        <ele>1050</ele>
        <time>2014-03-17T08:59:26Z</time>
      </trkpt>
      <trkpt lat="45.69422" lon="6.56013">
        <ele>1051</ele>
        <time>2014-03-17T08:59:38Z</time>
      </trkpt>
      <trkpt lat="45.69429" lon="6.56013">
        <ele>1051</ele>
        <time>2014-03-17T08:59:42Z</time>
      </trkpt>
      <trkpt lat="45.69434" lon="6.56013">
        <ele>1051</ele>
        <time>2014-03-17T08:59:46Z</time>
      </trkpt>
      <trkpt lat="45.6944" lon="6.56013">
        <ele>1051</ele>
        <time>2014-03-17T08:59:50Z</time>
      </trkpt>
      <trkpt lat="45.69445" lon="6.56013">
        <ele>1051</ele>
        <time>2014-03-17T08:59:54Z</time>
      </trkpt>
      <trkpt lat="45.69452" lon="6.56013">
        <ele>1051</ele>
        <time>2014-03-17T09:00:00Z</time>
      </trkpt>
      <trkpt lat="45.69458" lon="6.56015">
        <ele>1051</ele>
        <time>2014-03-17T09:00:05Z</time>
      </trkpt>
      <trkpt lat="45.69464" lon="6.56017">
        <ele>1051</ele>
        <time>2014-03-17T09:00:09Z</time>
      </trkpt>
      <trkpt lat="45.69469" lon="6.5602">
        <ele>1051</ele>
        <time>2014-03-17T09:00:13Z</time>
      </trkpt>
      <trkpt lat="45.69475" lon="6.56025">
        <ele>1051</ele>
        <time>2014-03-17T09:00:18Z</time>
      </trkpt>
      <trkpt lat="45.69481" lon="6.56026">
        <ele>1051</ele>
        <time>2014-03-17T09:00:24Z</time>
      </trkpt>
      <trkpt lat="45.69487" lon="6.56029">
        <ele>1051</ele>
        <time>2014-03-17T09:00:29Z</time>
      </trkpt>
      <trkpt lat="45.6949" lon="6.56029">
        <ele>1052</ele>
        <time>2014-03-17T09:00:50Z</time>
      </trkpt>
      <trkpt lat="45.69495" lon="6.56029">
        <ele>1052</ele>
        <time>2014-03-17T09:00:54Z</time>
      </trkpt>
      <trkpt lat="45.695" lon="6.56029">
        <ele>1052</ele>
        <time>2014-03-17T09:00:58Z</time>
      </trkpt>
      <trkpt lat="45.69506" lon="6.56029">
        <ele>1052</ele>
        <time>2014-03-17T09:01:02Z</time>
      </trkpt>
      <trkpt lat="45.69511" lon="6.56027">
        <ele>1052</ele>
        <time>2014-03-17T09:01:06Z</time>
      </trkpt>
      <trkpt lat="45.69516" lon="6.56026">
        <ele>1052</ele>
        <time>2014-03-17T09:01:10Z</time>
      </trkpt>
      <trkpt lat="45.69522" lon="6.56023">
        <ele>1052</ele>
        <time>2014-03-17T09:01:15Z</time>
      </trkpt>
      <trkpt lat="45.69527" lon="6.5602">
        <ele>1052</ele>
        <time>2014-03-17T09:01:19Z</time>
      </trkpt>
      <trkpt lat="45.69532" lon="6.56017">
        <ele>1052</ele>
        <time>2014-03-17T09:01:23Z</time>
      </trkpt>
      <trkpt lat="45.69538" lon="6.56011">
        <ele>1052</ele>
        <time>2014-03-17T09:01:29Z</time>
      </trkpt>
      <trkpt lat="45.69537" lon="6.56003">
        <ele>1052</ele>
        <time>2014-03-17T09:01:37Z</time>
      </trkpt>
      <trkpt lat="45.69535" lon="6.55996">
        <ele>1054</ele>
        <time>2014-03-17T09:01:46Z</time>
      </trkpt>
      <trkpt lat="45.69532" lon="6.55989">
        <ele>1057</ele>
        <time>2014-03-17T09:01:58Z</time>
      </trkpt>
      <trkpt lat="45.69529" lon="6.55983">
        <ele>1059</ele>
        <time>2014-03-17T09:02:09Z</time>
      </trkpt>
      <trkpt lat="45.69525" lon="6.55977">
        <ele>1060</ele>
        <time>2014-03-17T09:02:20Z</time>
      </trkpt>
      <trkpt lat="45.6952" lon="6.55976">
        <ele>1063</ele>
        <time>2014-03-17T09:02:29Z</time>
      </trkpt>
      <trkpt lat="45.69514" lon="6.55977">
        <ele>1066</ele>
        <time>2014-03-17T09:02:37Z</time>
      </trkpt>
      <trkpt lat="45.69509" lon="6.55976">
        <ele>1068</ele>
        <time>2014-03-17T09:02:45Z</time>
      </trkpt>
      <trkpt lat="45.69503" lon="6.55974">
        <ele>1069</ele>
        <time>2014-03-17T09:02:53Z</time>
      </trkpt>
      <trkpt lat="45.69496" lon="6.55973">
        <ele>1070</ele>
        <time>2014-03-17T09:02:59Z</time>
      </trkpt>
      <trkpt lat="45.6949" lon="6.5597">
        <ele>1070</ele>
        <time>2014-03-17T09:03:07Z</time>
      </trkpt>
      <trkpt lat="45.69486" lon="6.55965">
        <ele>1070</ele>
        <time>2014-03-17T09:03:15Z</time>
      </trkpt>
      <trkpt lat="45.69491" lon="6.55962">
        <ele>1071</ele>
        <time>2014-03-17T09:03:23Z</time>
      </trkpt>
      <trkpt lat="45.69497" lon="6.55958">
        <ele>1072</ele>
        <time>2014-03-17T09:03:31Z</time>
      </trkpt>
      <trkpt lat="45.69503" lon="6.55951">
        <ele>1074</ele>
        <time>2014-03-17T09:03:43Z</time>
      </trkpt>
      <trkpt lat="45.69509" lon="6.55945">
        <ele>1076</ele>
        <time>2014-03-17T09:03:52Z</time>
      </trkpt>
      <trkpt lat="45.6951" lon="6.55939">
        <ele>1078</ele>
        <time>2014-03-17T09:04:07Z</time>
      </trkpt>
      <trkpt lat="45.69504" lon="6.55935">
        <ele>1079</ele>
        <time>2014-03-17T09:04:19Z</time>
      </trkpt>
      <trkpt lat="45.69499" lon="6.55932">
        <ele>1080</ele>
        <time>2014-03-17T09:04:29Z</time>
      </trkpt>
      <trkpt lat="45.69499" lon="6.55927">
        <ele>1082</ele>
        <time>2014-03-17T09:04:39Z</time>
      </trkpt>
      <trkpt lat="45.69502" lon="6.55921">
        <ele>1085</ele>
        <time>2014-03-17T09:04:56Z</time>
      </trkpt>
      <trkpt lat="45.69505" lon="6.55914">
        <ele>1087</ele>
        <time>2014-03-17T09:05:15Z</time>
      </trkpt>
      <trkpt lat="45.69509" lon="6.55908">
        <ele>1089</ele>
        <time>2014-03-17T09:05:30Z</time>
      </trkpt>
      <trkpt lat="45.69511" lon="6.55901">
        <ele>1091</ele>
        <time>2014-03-17T09:05:43Z</time>
      </trkpt>
      <trkpt lat="45.69515" lon="6.55895">
        <ele>1094</ele>
        <time>2014-03-17T09:05:57Z</time>
      </trkpt>
      <trkpt lat="45.69514" lon="6.55889">
        <ele>1096</ele>
        <time>2014-03-17T09:06:09Z</time>
      </trkpt>
      <trkpt lat="45.69513" lon="6.55882">
        <ele>1098</ele>
        <time>2014-03-17T09:06:21Z</time>
      </trkpt>
      <trkpt lat="45.6951" lon="6.55875">
        <ele>1099</ele>
        <time>2014-03-17T09:06:35Z</time>
      </trkpt>
      <trkpt lat="45.69511" lon="6.55868">
        <ele>1100</ele>
        <time>2014-03-17T09:06:48Z</time>
      </trkpt>
      <trkpt lat="45.69506" lon="6.55865">
        <ele>1103</ele>
        <time>2014-03-17T09:07:08Z</time>
      </trkpt>
      <trkpt lat="45.69503" lon="6.5586">
        <ele>1104</ele>
        <time>2014-03-17T09:07:20Z</time>
      </trkpt>
      <trkpt lat="45.6951" lon="6.55855">
        <ele>1106</ele>
        <time>2014-03-17T09:07:32Z</time>
      </trkpt>
      <trkpt lat="45.69517" lon="6.55851">
        <ele>1107</ele>
        <time>2014-03-17T09:07:39Z</time>
      </trkpt>
      <trkpt lat="45.69524" lon="6.55847">
        <ele>1107</ele>
        <time>2014-03-17T09:07:45Z</time>
      </trkpt>
      <trkpt lat="45.6953" lon="6.55842">
        <ele>1108</ele>
        <time>2014-03-17T09:07:51Z</time>
      </trkpt>
      <trkpt lat="45.69537" lon="6.55836">
        <ele>1109</ele>
        <time>2014-03-17T09:07:58Z</time>
      </trkpt>
      <trkpt lat="45.69545" lon="6.55831">
        <ele>1110</ele>
        <time>2014-03-17T09:08:06Z</time>
      </trkpt>
      <trkpt lat="45.69553" lon="6.55828">
        <ele>1110</ele>
        <time>2014-03-17T09:08:13Z</time>
      </trkpt>
      <trkpt lat="45.69558" lon="6.55826">
        <ele>1111</ele>
        <time>2014-03-17T09:08:21Z</time>
      </trkpt>
      <trkpt lat="45.69565" lon="6.55824">
        <ele>1113</ele>
        <time>2014-03-17T09:08:27Z</time>
      </trkpt>
      <trkpt lat="45.69571" lon="6.55823">
        <ele>1113</ele>
        <time>2014-03-17T09:08:32Z</time>
      </trkpt>
      <trkpt lat="45.69577" lon="6.55822">
        <ele>1113</ele>
        <time>2014-03-17T09:08:36Z</time>
      </trkpt>
      <trkpt lat="45.69583" lon="6.55821">
        <ele>1113</ele>
        <time>2014-03-17T09:08:41Z</time>
      </trkpt>
      <trkpt lat="45.69589" lon="6.55821">
        <ele>1113</ele>
        <time>2014-03-17T09:08:46Z</time>
      </trkpt>
      <trkpt lat="45.69595" lon="6.55821">
        <ele>1113</ele>
        <time>2014-03-17T09:08:52Z</time>
      </trkpt>
      <trkpt lat="45.69602" lon="6.55823">
        <ele>1114</ele>
        <time>2014-03-17T09:08:57Z</time>
      </trkpt>
      <trkpt lat="45.69609" lon="6.55823">
        <ele>1114</ele>
        <time>2014-03-17T09:09:04Z</time>
      </trkpt>
      <trkpt lat="45.69615" lon="6.55822">
        <ele>1114</ele>
        <time>2014-03-17T09:09:09Z</time>
      </trkpt>
      <trkpt lat="45.69622" lon="6.5582">
        <ele>1114</ele>
        <time>2014-03-17T09:09:15Z</time>
      </trkpt>
      <trkpt lat="45.69627" lon="6.55819">
        <ele>1115</ele>
        <time>2014-03-17T09:09:19Z</time>
      </trkpt>
      <trkpt lat="45.69635" lon="6.55816">
        <ele>1116</ele>
        <time>2014-03-17T09:09:26Z</time>
      </trkpt>
      <trkpt lat="45.69641" lon="6.55814">
        <ele>1117</ele>
        <time>2014-03-17T09:09:32Z</time>
      </trkpt>
      <trkpt lat="45.69648" lon="6.55812">
        <ele>1117</ele>
        <time>2014-03-17T09:09:38Z</time>
      </trkpt>
      <trkpt lat="45.69654" lon="6.55809">
        <ele>1117</ele>
        <time>2014-03-17T09:09:43Z</time>
      </trkpt>
      <trkpt lat="45.69661" lon="6.55806">
        <ele>1117</ele>
        <time>2014-03-17T09:09:50Z</time>
      </trkpt>
      <trkpt lat="45.69669" lon="6.55802">
        <ele>1117</ele>
        <time>2014-03-17T09:09:57Z</time>
      </trkpt>
      <trkpt lat="45.69675" lon="6.55798">
        <ele>1117</ele>
        <time>2014-03-17T09:10:02Z</time>
      </trkpt>
      <trkpt lat="45.69682" lon="6.55794">
        <ele>1119</ele>
        <time>2014-03-17T09:10:09Z</time>
      </trkpt>
      <trkpt lat="45.69688" lon="6.55792">
        <ele>1120</ele>
        <time>2014-03-17T09:10:15Z</time>
      </trkpt>
      <trkpt lat="45.69695" lon="6.55789">
        <ele>1121</ele>
        <time>2014-03-17T09:10:20Z</time>
      </trkpt>
      <trkpt lat="45.69701" lon="6.55786">
        <ele>1123</ele>
        <time>2014-03-17T09:10:26Z</time>
      </trkpt>
      <trkpt lat="45.69707" lon="6.55784">
        <ele>1124</ele>
        <time>2014-03-17T09:10:31Z</time>
      </trkpt>
      <trkpt lat="45.6971" lon="6.55776">
        <ele>1125</ele>
        <time>2014-03-17T09:10:36Z</time>
      </trkpt>
      <trkpt lat="45.69712" lon="6.55769">
        <ele>1126</ele>
        <time>2014-03-17T09:10:40Z</time>
      </trkpt>
      <trkpt lat="45.6971" lon="6.55761">
        <ele>1126</ele>
        <time>2014-03-17T09:10:46Z</time>
      </trkpt>
      <trkpt lat="45.69703" lon="6.55763">
        <ele>1126</ele>
        <time>2014-03-17T09:10:52Z</time>
      </trkpt>
      <trkpt lat="45.69698" lon="6.55766">
        <ele>1126</ele>
        <time>2014-03-17T09:10:56Z</time>
      </trkpt>
      <trkpt lat="45.69691" lon="6.5577">
        <ele>1129</ele>
        <time>2014-03-17T09:11:02Z</time>
      </trkpt>
      <trkpt lat="45.69683" lon="6.55773">
        <ele>1129</ele>
        <time>2014-03-17T09:11:09Z</time>
      </trkpt>
      <trkpt lat="45.69677" lon="6.55776">
        <ele>1129</ele>
        <time>2014-03-17T09:11:15Z</time>
      </trkpt>
      <trkpt lat="45.69672" lon="6.55776">
        <ele>1130</ele>
        <time>2014-03-17T09:11:19Z</time>
      </trkpt>
      <trkpt lat="45.69666" lon="6.55776">
        <ele>1130</ele>
        <time>2014-03-17T09:11:24Z</time>
      </trkpt>
      <trkpt lat="45.6966" lon="6.55775">
        <ele>1132</ele>
        <time>2014-03-17T09:11:29Z</time>
      </trkpt>
      <trkpt lat="45.69654" lon="6.55773">
        <ele>1133</ele>
        <time>2014-03-17T09:11:34Z</time>
      </trkpt>
      <trkpt lat="45.69648" lon="6.5577">
        <ele>1135</ele>
        <time>2014-03-17T09:11:40Z</time>
      </trkpt>
      <trkpt lat="45.69642" lon="6.55769">
        <ele>1137</ele>
        <time>2014-03-17T09:11:45Z</time>
      </trkpt>
      <trkpt lat="45.69634" lon="6.55764">
        <ele>1137</ele>
        <time>2014-03-17T09:11:53Z</time>
      </trkpt>
      <trkpt lat="45.69628" lon="6.55761">
        <ele>1137</ele>
        <time>2014-03-17T09:11:59Z</time>
      </trkpt>
      <trkpt lat="45.69622" lon="6.55758">
        <ele>1137</ele>
        <time>2014-03-17T09:12:04Z</time>
      </trkpt>
      <trkpt lat="45.69617" lon="6.55756">
        <ele>1137</ele>
        <time>2014-03-17T09:12:08Z</time>
      </trkpt>
      <trkpt lat="45.69611" lon="6.55754">
        <ele>1137</ele>
        <time>2014-03-17T09:12:14Z</time>
      </trkpt>
      <trkpt lat="45.69605" lon="6.55752">
        <ele>1138</ele>
        <time>2014-03-17T09:12:19Z</time>
      </trkpt>
      <trkpt lat="45.69598" lon="6.55748">
        <ele>1138</ele>
        <time>2014-03-17T09:12:26Z</time>
      </trkpt>
      <trkpt lat="45.69591" lon="6.55745">
        <ele>1138</ele>
        <time>2014-03-17T09:12:32Z</time>
      </trkpt>
      <trkpt lat="45.69585" lon="6.55742">
        <ele>1138</ele>
        <time>2014-03-17T09:12:37Z</time>
      </trkpt>
      <trkpt lat="45.69578" lon="6.5574">
        <ele>1139</ele>
        <time>2014-03-17T09:12:43Z</time>
      </trkpt>
      <trkpt lat="45.69572" lon="6.55738">
        <ele>1140</ele>
        <time>2014-03-17T09:12:48Z</time>
      </trkpt>
      <trkpt lat="45.69566" lon="6.55735">
        <ele>1140</ele>
        <time>2014-03-17T09:12:54Z</time>
      </trkpt>
      <trkpt lat="45.69559" lon="6.55732">
        <ele>1140</ele>
        <time>2014-03-17T09:13:00Z</time>
      </trkpt>
      <trkpt lat="45.69554" lon="6.5573">
        <ele>1141</ele>
        <time>2014-03-17T09:13:04Z</time>
      </trkpt>
      <trkpt lat="45.6955" lon="6.55729">
        <ele>1142</ele>
        <time>2014-03-17T09:13:08Z</time>
      </trkpt>
      <trkpt lat="45.69545" lon="6.55727">
        <ele>1143</ele>
        <time>2014-03-17T09:13:12Z</time>
      </trkpt>
      <trkpt lat="45.6954" lon="6.55726">
        <ele>1144</ele>
        <time>2014-03-17T09:13:16Z</time>
      </trkpt>
      <trkpt lat="45.69535" lon="6.55725">
        <ele>1145</ele>
        <time>2014-03-17T09:13:20Z</time>
      </trkpt>
      <trkpt lat="45.69528" lon="6.55723">
        <ele>1146</ele>
        <time>2014-03-17T09:13:26Z</time>
      </trkpt>
      <trkpt lat="45.69521" lon="6.55721">
        <ele>1147</ele>
        <time>2014-03-17T09:13:32Z</time>
      </trkpt>
      <trkpt lat="45.69514" lon="6.55719">
        <ele>1147</ele>
        <time>2014-03-17T09:13:39Z</time>
      </trkpt>
      <trkpt lat="45.69507" lon="6.55718">
        <ele>1148</ele>
        <time>2014-03-17T09:13:45Z</time>
      </trkpt>
      <trkpt lat="45.69501" lon="6.55716">
        <ele>1148</ele>
        <time>2014-03-17T09:13:51Z</time>
      </trkpt>
      <trkpt lat="45.69495" lon="6.55717">
        <ele>1150</ele>
        <time>2014-03-17T09:13:55Z</time>
      </trkpt>
      <trkpt lat="45.69489" lon="6.55715">
        <ele>1154</ele>
        <time>2014-03-17T09:14:00Z</time>
      </trkpt>
      <trkpt lat="45.69484" lon="6.55713">
        <ele>1155</ele>
        <time>2014-03-17T09:14:04Z</time>
      </trkpt>
      <trkpt lat="45.69476" lon="6.55709">
        <ele>1155</ele>
        <time>2014-03-17T09:14:11Z</time>
      </trkpt>
      <trkpt lat="45.6947" lon="6.55704">
        <ele>1155</ele>
        <time>2014-03-17T09:14:17Z</time>
      </trkpt>
      <trkpt lat="45.69462" lon="6.55699">
        <ele>1155</ele>
        <time>2014-03-17T09:14:25Z</time>
      </trkpt>
      <trkpt lat="45.69455" lon="6.55695">
        <ele>1155</ele>
        <time>2014-03-17T09:14:32Z</time>
      </trkpt>
      <trkpt lat="45.69447" lon="6.55691">
        <ele>1155</ele>
        <time>2014-03-17T09:14:40Z</time>
      </trkpt>
      <trkpt lat="45.69439" lon="6.55683">
        <ele>1155</ele>
        <time>2014-03-17T09:14:48Z</time>
      </trkpt>
      <trkpt lat="45.69432" lon="6.55677">
        <ele>1156</ele>
        <time>2014-03-17T09:14:55Z</time>
      </trkpt>
      <trkpt lat="45.69426" lon="6.55669">
        <ele>1158</ele>
        <time>2014-03-17T09:15:03Z</time>
      </trkpt>
      <trkpt lat="45.69424" lon="6.55667">
        <ele>1162</ele>
        <time>2014-03-17T09:15:35Z</time>
      </trkpt>
      <trkpt lat="45.69424" lon="6.55669">
        <ele>1161</ele>
        <time>2014-03-17T09:16:01Z</time>
      </trkpt>
      <trkpt lat="45.69423" lon="6.55666">
        <ele>1163</ele>
        <time>2014-03-17T09:16:43Z</time>
      </trkpt>
      <trkpt lat="45.69421" lon="6.55659">
        <ele>1163</ele>
        <time>2014-03-17T09:17:06Z</time>
      </trkpt>
      <trkpt lat="45.69421" lon="6.55652">
        <ele>1163</ele>
        <time>2014-03-17T09:17:16Z</time>
      </trkpt>
      <trkpt lat="45.69421" lon="6.55646">
        <ele>1163</ele>
        <time>2014-03-17T09:17:20Z</time>
      </trkpt>
      <trkpt lat="45.6942" lon="6.55639">
        <ele>1163</ele>
        <time>2014-03-17T09:17:24Z</time>
      </trkpt>
      <trkpt lat="45.6942" lon="6.5563">
        <ele>1163</ele>
        <time>2014-03-17T09:17:30Z</time>
      </trkpt>
      <trkpt lat="45.69421" lon="6.55623">
        <ele>1164</ele>
        <time>2014-03-17T09:17:35Z</time>
      </trkpt>
      <trkpt lat="45.6942" lon="6.55617">
        <ele>1164</ele>
        <time>2014-03-17T09:17:40Z</time>
      </trkpt>
      <trkpt lat="45.69418" lon="6.55608">
        <ele>1165</ele>
        <time>2014-03-17T09:17:46Z</time>
      </trkpt>
      <trkpt lat="45.69414" lon="6.55601">
        <ele>1166</ele>
        <time>2014-03-17T09:17:52Z</time>
      </trkpt>
      <trkpt lat="45.69409" lon="6.55593">
        <ele>1168</ele>
        <time>2014-03-17T09:18:01Z</time>
      </trkpt>
      <trkpt lat="45.69405" lon="6.55588">
        <ele>1169</ele>
        <time>2014-03-17T09:18:08Z</time>
      </trkpt>
      <trkpt lat="45.69399" lon="6.55584">
        <ele>1170</ele>
        <time>2014-03-17T09:18:18Z</time>
      </trkpt>
      <trkpt lat="45.69393" lon="6.55584">
        <ele>1170</ele>
        <time>2014-03-17T09:18:26Z</time>
      </trkpt>
      <trkpt lat="45.69387" lon="6.55584">
        <ele>1171</ele>
        <time>2014-03-17T09:18:34Z</time>
      </trkpt>
      <trkpt lat="45.6938" lon="6.55581">
        <ele>1171</ele>
        <time>2014-03-17T09:18:42Z</time>
      </trkpt>
      <trkpt lat="45.69373" lon="6.55575">
        <ele>1172</ele>
        <time>2014-03-17T09:18:50Z</time>
      </trkpt>
      <trkpt lat="45.6937" lon="6.55567">
        <ele>1172</ele>
        <time>2014-03-17T09:18:57Z</time>
      </trkpt>
      <trkpt lat="45.69365" lon="6.55559">
        <ele>1175</ele>
        <time>2014-03-17T09:19:05Z</time>
      </trkpt>
      <trkpt lat="45.69361" lon="6.55555">
        <ele>1178</ele>
        <time>2014-03-17T09:19:10Z</time>
      </trkpt>
      <trkpt lat="45.69355" lon="6.55555">
        <ele>1182</ele>
        <time>2014-03-17T09:19:16Z</time>
      </trkpt>
      <trkpt lat="45.69348" lon="6.55556">
        <ele>1186</ele>
        <time>2014-03-17T09:19:21Z</time>
      </trkpt>
      <trkpt lat="45.69342" lon="6.55552">
        <ele>1188</ele>
        <time>2014-03-17T09:19:28Z</time>
      </trkpt>
      <trkpt lat="45.69337" lon="6.55548">
        <ele>1188</ele>
        <time>2014-03-17T09:19:34Z</time>
      </trkpt>
      <trkpt lat="45.69333" lon="6.55542">
        <ele>1190</ele>
        <time>2014-03-17T09:19:43Z</time>
      </trkpt>
      <trkpt lat="45.69331" lon="6.55533">
        <ele>1186</ele>
        <time>2014-03-17T09:19:51Z</time>
      </trkpt>
      <trkpt lat="45.69328" lon="6.55523">
        <ele>1184</ele>
        <time>2014-03-17T09:19:59Z</time>
      </trkpt>
      <trkpt lat="45.69325" lon="6.55515">
        <ele>1184</ele>
        <time>2014-03-17T09:20:05Z</time>
      </trkpt>
      <trkpt lat="45.69319" lon="6.55508">
        <ele>1182</ele>
        <time>2014-03-17T09:20:13Z</time>
      </trkpt>
      <trkpt lat="45.69315" lon="6.55501">
        <ele>1182</ele>
        <time>2014-03-17T09:20:22Z</time>
      </trkpt>
      <trkpt lat="45.6931" lon="6.55498">
        <ele>1182</ele>
        <time>2014-03-17T09:20:29Z</time>
      </trkpt>
      <trkpt lat="45.69305" lon="6.5549">
        <ele>1187</ele>
        <time>2014-03-17T09:20:39Z</time>
      </trkpt>
      <trkpt lat="45.69302" lon="6.55482">
        <ele>1187</ele>
        <time>2014-03-17T09:20:48Z</time>
      </trkpt>
      <trkpt lat="45.69297" lon="6.5548">
        <ele>1187</ele>
        <time>2014-03-17T09:21:05Z</time>
      </trkpt>
      <trkpt lat="45.69292" lon="6.55479">
        <ele>1187</ele>
        <time>2014-03-17T09:21:18Z</time>
      </trkpt>
      <trkpt lat="45.69293" lon="6.55478">
        <ele>1190</ele>
        <time>2014-03-17T09:21:30Z</time>
      </trkpt>
      <trkpt lat="45.69297" lon="6.55473">
        <ele>1190</ele>
        <time>2014-03-17T09:21:40Z</time>
      </trkpt>
      <trkpt lat="45.69302" lon="6.55473">
        <ele>1189</ele>
        <time>2014-03-17T09:21:51Z</time>
      </trkpt>
      <trkpt lat="45.69304" lon="6.55478">
        <ele>1189</ele>
        <time>2014-03-17T09:22:10Z</time>
      </trkpt>
      <trkpt lat="45.693" lon="6.55473">
        <ele>1178</ele>
        <time>2014-03-17T09:22:27Z</time>
      </trkpt>
      <trkpt lat="45.69297" lon="6.55472">
        <ele>1182</ele>
        <time>2014-03-17T09:22:49Z</time>
      </trkpt>
      <trkpt lat="45.69296" lon="6.55474">
        <ele>1187</ele>
        <time>2014-03-17T09:23:17Z</time>
      </trkpt>
      <trkpt lat="45.69297" lon="6.55474">
        <ele>1187</ele>
        <time>2014-03-17T09:23:32Z</time>
      </trkpt>
      <trkpt lat="45.69294" lon="6.55477">
        <ele>1183</ele>
        <time>2014-03-17T09:23:43Z</time>
      </trkpt>
      <trkpt lat="45.69289" lon="6.55474">
        <ele>1185</ele>
        <time>2014-03-17T09:23:59Z</time>
      </trkpt>
      <trkpt lat="45.69287" lon="6.5547">
        <ele>1188</ele>
        <time>2014-03-17T09:24:26Z</time>
      </trkpt>
      <trkpt lat="45.69284" lon="6.5547">
        <ele>1190</ele>
        <time>2014-03-17T09:24:46Z</time>
      </trkpt>
      <trkpt lat="45.6928" lon="6.55468">
        <ele>1192</ele>
        <time>2014-03-17T09:25:00Z</time>
      </trkpt>
      <trkpt lat="45.69276" lon="6.55468">
        <ele>1194</ele>
        <time>2014-03-17T09:25:18Z</time>
      </trkpt>
      <trkpt lat="45.69271" lon="6.55471">
        <ele>1197</ele>
        <time>2014-03-17T09:25:33Z</time>
      </trkpt>
      <trkpt lat="45.69271" lon="6.55469">
        <ele>1207</ele>
        <time>2014-03-17T09:26:08Z</time>
      </trkpt>
      <trkpt lat="45.69274" lon="6.55468">
        <ele>1205</ele>
        <time>2014-03-17T09:26:32Z</time>
      </trkpt>
      <trkpt lat="45.69275" lon="6.55464">
        <ele>1198</ele>
        <time>2014-03-17T09:26:52Z</time>
      </trkpt>
      <trkpt lat="45.69273" lon="6.55457">
        <ele>1195</ele>
        <time>2014-03-17T09:27:08Z</time>
      </trkpt>
      <trkpt lat="45.69271" lon="6.55446">
        <ele>1194</ele>
        <time>2014-03-17T09:27:29Z</time>
      </trkpt>
      <trkpt lat="45.69268" lon="6.55438">
        <ele>1194</ele>
        <time>2014-03-17T09:28:09Z</time>
      </trkpt>
      <trkpt lat="45.6927" lon="6.55442">
        <ele>1194</ele>
        <time>2014-03-17T09:28:57Z</time>
      </trkpt>
      <trkpt lat="45.69272" lon="6.55449">
        <ele>1194</ele>
        <time>2014-03-17T09:29:06Z</time>
      </trkpt>
      <trkpt lat="45.69278" lon="6.55453">
        <ele>1194</ele>
        <time>2014-03-17T09:29:28Z</time>
      </trkpt>
      <trkpt lat="45.69278" lon="6.55463">
        <ele>1194</ele>
        <time>2014-03-17T09:29:46Z</time>
      </trkpt>
      <trkpt lat="45.69287" lon="6.55463">
        <ele>1194</ele>
        <time>2014-03-17T09:30:14Z</time>
      </trkpt>
      <trkpt lat="45.6929" lon="6.55468">
        <ele>1192</ele>
        <time>2014-03-17T09:30:43Z</time>
      </trkpt>
      <trkpt lat="45.69294" lon="6.55471">
        <ele>1187</ele>
        <time>2014-03-17T09:31:06Z</time>
      </trkpt>
      <trkpt lat="45.69303" lon="6.55475">
        <ele>1185</ele>
        <time>2014-03-17T09:31:34Z</time>
      </trkpt>
      <trkpt lat="45.69309" lon="6.55478">
        <ele>1178</ele>
        <time>2014-03-17T09:32:04Z</time>
      </trkpt>
      <trkpt lat="45.69314" lon="6.55487">
        <ele>1174</ele>
        <time>2014-03-17T09:32:17Z</time>
      </trkpt>
      <trkpt lat="45.69316" lon="6.55498">
        <ele>1174</ele>
        <time>2014-03-17T09:32:23Z</time>
      </trkpt>
      <trkpt lat="45.69325" lon="6.55507">
        <ele>1174</ele>
        <time>2014-03-17T09:32:36Z</time>
      </trkpt>
      <trkpt lat="45.69332" lon="6.5552">
        <ele>1174</ele>
        <time>2014-03-17T09:32:43Z</time>
      </trkpt>
      <trkpt lat="45.69337" lon="6.55531">
        <ele>1174</ele>
        <time>2014-03-17T09:32:52Z</time>
      </trkpt>
      <trkpt lat="45.69345" lon="6.55539">
        <ele>1174</ele>
        <time>2014-03-17T09:33:02Z</time>
      </trkpt>
      <trkpt lat="45.69355" lon="6.55548">
        <ele>1174</ele>
        <time>2014-03-17T09:33:14Z</time>
      </trkpt>
      <trkpt lat="45.69363" lon="6.55553">
        <ele>1174</ele>
        <time>2014-03-17T09:33:25Z</time>
      </trkpt>
      <trkpt lat="45.6937" lon="6.55562">
        <ele>1174</ele>
        <time>2014-03-17T09:33:33Z</time>
      </trkpt>
      <trkpt lat="45.69376" lon="6.55572">
        <ele>1174</ele>
        <time>2014-03-17T09:33:45Z</time>
      </trkpt>
      <trkpt lat="45.69384" lon="6.5558">
        <ele>1174</ele>
        <time>2014-03-17T09:33:52Z</time>
      </trkpt>
      <trkpt lat="45.69396" lon="6.55584">
        <ele>1173</ele>
        <time>2014-03-17T09:34:04Z</time>
      </trkpt>
      <trkpt lat="45.69406" lon="6.55586">
        <ele>1171</ele>
        <time>2014-03-17T09:34:16Z</time>
      </trkpt>
      <trkpt lat="45.69416" lon="6.55598">
        <ele>1169</ele>
        <time>2014-03-17T09:34:28Z</time>
      </trkpt>
      <trkpt lat="45.69421" lon="6.55612">
        <ele>1166</ele>
        <time>2014-03-17T09:34:35Z</time>
      </trkpt>
      <trkpt lat="45.69423" lon="6.55622">
        <ele>1165</ele>
        <time>2014-03-17T09:34:43Z</time>
      </trkpt>
      <trkpt lat="45.69425" lon="6.55642">
        <ele>1165</ele>
        <time>2014-03-17T09:34:55Z</time>
      </trkpt>
      <trkpt lat="45.69427" lon="6.55646">
        <ele>1165</ele>
        <time>2014-03-17T09:35:22Z</time>
      </trkpt>
      <trkpt lat="45.69436" lon="6.55664">
        <ele>1165</ele>
        <time>2014-03-17T09:35:38Z</time>
      </trkpt>
      <trkpt lat="45.69446" lon="6.55669">
        <ele>1165</ele>
        <time>2014-03-17T09:35:45Z</time>
      </trkpt>
      <trkpt lat="45.69454" lon="6.55668">
        <ele>1165</ele>
        <time>2014-03-17T09:35:53Z</time>
      </trkpt>
      <trkpt lat="45.69463" lon="6.55663">
        <ele>1165</ele>
        <time>2014-03-17T09:36:05Z</time>
      </trkpt>
      <trkpt lat="45.69457" lon="6.55657">
        <ele>1165</ele>
        <time>2014-03-17T09:36:27Z</time>
      </trkpt>
      <trkpt lat="45.69451" lon="6.55652">
        <ele>1168</ele>
        <time>2014-03-17T09:36:43Z</time>
      </trkpt>
      <trkpt lat="45.69446" lon="6.55646">
        <ele>1170</ele>
        <time>2014-03-17T09:36:52Z</time>
      </trkpt>
      <trkpt lat="45.69444" lon="6.55638">
        <ele>1171</ele>
        <time>2014-03-17T09:37:00Z</time>
      </trkpt>
      <trkpt lat="45.69444" lon="6.55631">
        <ele>1172</ele>
        <time>2014-03-17T09:37:08Z</time>
      </trkpt>
      <trkpt lat="45.69443" lon="6.55624">
        <ele>1174</ele>
        <time>2014-03-17T09:37:16Z</time>
      </trkpt>
      <trkpt lat="45.69443" lon="6.55617">
        <ele>1176</ele>
        <time>2014-03-17T09:37:26Z</time>
      </trkpt>
      <trkpt lat="45.69444" lon="6.55611">
        <ele>1178</ele>
        <time>2014-03-17T09:37:35Z</time>
      </trkpt>
      <trkpt lat="45.69443" lon="6.55603">
        <ele>1180</ele>
        <time>2014-03-17T09:37:43Z</time>
      </trkpt>
      <trkpt lat="45.69445" lon="6.55595">
        <ele>1183</ele>
        <time>2014-03-17T09:37:51Z</time>
      </trkpt>
      <trkpt lat="45.69445" lon="6.55588">
        <ele>1185</ele>
        <time>2014-03-17T09:37:59Z</time>
      </trkpt>
      <trkpt lat="45.69449" lon="6.55591">
        <ele>1187</ele>
        <time>2014-03-17T09:38:13Z</time>
      </trkpt>
      <trkpt lat="45.69452" lon="6.55598">
        <ele>1188</ele>
        <time>2014-03-17T09:38:24Z</time>
      </trkpt>
      <trkpt lat="45.69458" lon="6.55603">
        <ele>1189</ele>
        <time>2014-03-17T09:38:36Z</time>
      </trkpt>
      <trkpt lat="45.69465" lon="6.55606">
        <ele>1189</ele>
        <time>2014-03-17T09:38:44Z</time>
      </trkpt>
      <trkpt lat="45.69472" lon="6.55608">
        <ele>1189</ele>
        <time>2014-03-17T09:38:52Z</time>
      </trkpt>
      <trkpt lat="45.69477" lon="6.55605">
        <ele>1191</ele>
        <time>2014-03-17T09:39:02Z</time>
      </trkpt>
      <trkpt lat="45.69474" lon="6.556">
        <ele>1194</ele>
        <time>2014-03-17T09:39:14Z</time>
      </trkpt>
      <trkpt lat="45.69469" lon="6.55596">
        <ele>1195</ele>
        <time>2014-03-17T09:39:22Z</time>
      </trkpt>
      <trkpt lat="45.69466" lon="6.55589">
        <ele>1196</ele>
        <time>2014-03-17T09:39:32Z</time>
      </trkpt>
      <trkpt lat="45.69462" lon="6.55581">
        <ele>1198</ele>
        <time>2014-03-17T09:39:43Z</time>
      </trkpt>
      <trkpt lat="45.69463" lon="6.55574">
        <ele>1200</ele>
        <time>2014-03-17T09:39:52Z</time>
      </trkpt>
      <trkpt lat="45.69467" lon="6.55577">
        <ele>1201</ele>
        <time>2014-03-17T09:40:01Z</time>
      </trkpt>
      <trkpt lat="45.69469" lon="6.55572">
        <ele>1203</ele>
        <time>2014-03-17T09:40:10Z</time>
      </trkpt>
      <trkpt lat="45.69471" lon="6.55565">
        <ele>1204</ele>
        <time>2014-03-17T09:40:19Z</time>
      </trkpt>
      <trkpt lat="45.69476" lon="6.55566">
        <ele>1207</ele>
        <time>2014-03-17T09:40:30Z</time>
      </trkpt>
      <trkpt lat="45.69481" lon="6.55563">
        <ele>1210</ele>
        <time>2014-03-17T09:40:42Z</time>
      </trkpt>
      <trkpt lat="45.69485" lon="6.55556">
        <ele>1213</ele>
        <time>2014-03-17T09:40:54Z</time>
      </trkpt>
      <trkpt lat="45.69488" lon="6.5555">
        <ele>1217</ele>
        <time>2014-03-17T09:41:08Z</time>
      </trkpt>
      <trkpt lat="45.69482" lon="6.55549">
        <ele>1218</ele>
        <time>2014-03-17T09:41:20Z</time>
      </trkpt>
      <trkpt lat="45.69478" lon="6.55543">
        <ele>1219</ele>
        <time>2014-03-17T09:41:32Z</time>
      </trkpt>
      <trkpt lat="45.69476" lon="6.55535">
        <ele>1219</ele>
        <time>2014-03-17T09:41:43Z</time>
      </trkpt>
      <trkpt lat="45.69475" lon="6.55529">
        <ele>1219</ele>
        <time>2014-03-17T09:41:51Z</time>
      </trkpt>
      <trkpt lat="45.69473" lon="6.55522">
        <ele>1221</ele>
        <time>2014-03-17T09:42:00Z</time>
      </trkpt>
      <trkpt lat="45.69474" lon="6.55515">
        <ele>1222</ele>
        <time>2014-03-17T09:42:11Z</time>
      </trkpt>
      <trkpt lat="45.69474" lon="6.55509">
        <ele>1224</ele>
        <time>2014-03-17T09:42:20Z</time>
      </trkpt>
      <trkpt lat="45.69473" lon="6.55502">
        <ele>1226</ele>
        <time>2014-03-17T09:42:31Z</time>
      </trkpt>
      <trkpt lat="45.69473" lon="6.55495">
        <ele>1230</ele>
        <time>2014-03-17T09:43:02Z</time>
      </trkpt>
      <trkpt lat="45.6947" lon="6.55489">
        <ele>1230</ele>
        <time>2014-03-17T09:43:28Z</time>
      </trkpt>
      <trkpt lat="45.69468" lon="6.55481">
        <ele>1230</ele>
        <time>2014-03-17T09:43:37Z</time>
      </trkpt>
      <trkpt lat="45.69466" lon="6.55472">
        <ele>1230</ele>
        <time>2014-03-17T09:43:44Z</time>
      </trkpt>
      <trkpt lat="45.69462" lon="6.55465">
        <ele>1231</ele>
        <time>2014-03-17T09:43:52Z</time>
      </trkpt>
      <trkpt lat="45.69458" lon="6.55459">
        <ele>1232</ele>
        <time>2014-03-17T09:44:00Z</time>
      </trkpt>
      <trkpt lat="45.69453" lon="6.55453">
        <ele>1232</ele>
        <time>2014-03-17T09:44:08Z</time>
      </trkpt>
      <trkpt lat="45.69448" lon="6.55448">
        <ele>1232</ele>
        <time>2014-03-17T09:44:17Z</time>
      </trkpt>
      <trkpt lat="45.69444" lon="6.55443">
        <ele>1234</ele>
        <time>2014-03-17T09:44:26Z</time>
      </trkpt>
      <trkpt lat="45.69439" lon="6.55438">
        <ele>1234</ele>
        <time>2014-03-17T09:44:41Z</time>
      </trkpt>
      <trkpt lat="45.69435" lon="6.55432">
        <ele>1236</ele>
        <time>2014-03-17T09:44:52Z</time>
      </trkpt>
      <trkpt lat="45.69431" lon="6.55428">
        <ele>1240</ele>
        <time>2014-03-17T09:45:19Z</time>
      </trkpt>
      <trkpt lat="45.69432" lon="6.55428">
        <ele>1243</ele>
        <time>2014-03-17T09:45:43Z</time>
      </trkpt>
      <trkpt lat="45.69429" lon="6.55421">
        <ele>1243</ele>
        <time>2014-03-17T09:45:58Z</time>
      </trkpt>
      <trkpt lat="45.69426" lon="6.55415">
        <ele>1243</ele>
        <time>2014-03-17T09:46:14Z</time>
      </trkpt>
      <trkpt lat="45.69422" lon="6.55409">
        <ele>1244</ele>
        <time>2014-03-17T09:46:30Z</time>
      </trkpt>
      <trkpt lat="45.69418" lon="6.55404">
        <ele>1246</ele>
        <time>2014-03-17T09:46:46Z</time>
      </trkpt>
      <trkpt lat="45.69416" lon="6.55396">
        <ele>1248</ele>
        <time>2014-03-17T09:46:57Z</time>
      </trkpt>
      <trkpt lat="45.69415" lon="6.55389">
        <ele>1251</ele>
        <time>2014-03-17T09:47:10Z</time>
      </trkpt>
      <trkpt lat="45.69409" lon="6.55386">
        <ele>1252</ele>
        <time>2014-03-17T09:47:19Z</time>
      </trkpt>
      <trkpt lat="45.69405" lon="6.55382">
        <ele>1255</ele>
        <time>2014-03-17T09:47:33Z</time>
      </trkpt>
      <trkpt lat="45.69398" lon="6.55379">
        <ele>1255</ele>
        <time>2014-03-17T09:47:40Z</time>
      </trkpt>
      <trkpt lat="45.69392" lon="6.55375">
        <ele>1255</ele>
        <time>2014-03-17T09:47:48Z</time>
      </trkpt>
      <trkpt lat="45.69385" lon="6.55371">
        <ele>1255</ele>
        <time>2014-03-17T09:47:56Z</time>
      </trkpt>
      <trkpt lat="45.69377" lon="6.55366">
        <ele>1255</ele>
        <time>2014-03-17T09:48:03Z</time>
      </trkpt>
      <trkpt lat="45.69371" lon="6.55361">
        <ele>1255</ele>
        <time>2014-03-17T09:48:09Z</time>
      </trkpt>
      <trkpt lat="45.69365" lon="6.55358">
        <ele>1255</ele>
        <time>2014-03-17T09:48:33Z</time>
      </trkpt>
      <trkpt lat="45.69372" lon="6.55365">
        <ele>1255</ele>
        <time>2014-03-17T09:48:58Z</time>
      </trkpt>
      <trkpt lat="45.69379" lon="6.55372">
        <ele>1255</ele>
        <time>2014-03-17T09:49:06Z</time>
      </trkpt>
      <trkpt lat="45.69387" lon="6.55377">
        <ele>1255</ele>
        <time>2014-03-17T09:49:13Z</time>
      </trkpt>
      <trkpt lat="45.69394" lon="6.55384">
        <ele>1255</ele>
        <time>2014-03-17T09:49:21Z</time>
      </trkpt>
      <trkpt lat="45.694" lon="6.55383">
        <ele>1255</ele>
        <time>2014-03-17T09:49:28Z</time>
      </trkpt>
      <trkpt lat="45.69406" lon="6.55383">
        <ele>1255</ele>
        <time>2014-03-17T09:49:38Z</time>
      </trkpt>
      <trkpt lat="45.69402" lon="6.55378">
        <ele>1255</ele>
        <time>2014-03-17T09:49:50Z</time>
      </trkpt>
      <trkpt lat="45.69399" lon="6.55371">
        <ele>1257</ele>
        <time>2014-03-17T09:50:09Z</time>
      </trkpt>
      <trkpt lat="45.69394" lon="6.55367">
        <ele>1258</ele>
        <time>2014-03-17T09:50:18Z</time>
      </trkpt>
      <trkpt lat="45.69391" lon="6.5536">
        <ele>1260</ele>
        <time>2014-03-17T09:50:27Z</time>
      </trkpt>
      <trkpt lat="45.69394" lon="6.55356">
        <ele>1261</ele>
        <time>2014-03-17T09:50:49Z</time>
      </trkpt>
      <trkpt lat="45.694" lon="6.55356">
        <ele>1261</ele>
        <time>2014-03-17T09:50:57Z</time>
      </trkpt>
      <trkpt lat="45.69406" lon="6.55356">
        <ele>1261</ele>
        <time>2014-03-17T09:51:05Z</time>
      </trkpt>
      <trkpt lat="45.69413" lon="6.55356">
        <ele>1261</ele>
        <time>2014-03-17T09:51:13Z</time>
      </trkpt>
      <trkpt lat="45.69419" lon="6.55356">
        <ele>1261</ele>
        <time>2014-03-17T09:51:21Z</time>
      </trkpt>
      <trkpt lat="45.69426" lon="6.55357">
        <ele>1262</ele>
        <time>2014-03-17T09:51:29Z</time>
      </trkpt>
      <trkpt lat="45.69434" lon="6.55357">
        <ele>1264</ele>
        <time>2014-03-17T09:51:37Z</time>
      </trkpt>
      <trkpt lat="45.69442" lon="6.55357">
        <ele>1264</ele>
        <time>2014-03-17T09:51:44Z</time>
      </trkpt>
      <trkpt lat="45.69449" lon="6.55356">
        <ele>1265</ele>
        <time>2014-03-17T09:51:51Z</time>
      </trkpt>
      <trkpt lat="45.69456" lon="6.55356">
        <ele>1266</ele>
        <time>2014-03-17T09:51:58Z</time>
      </trkpt>
      <trkpt lat="45.69463" lon="6.55358">
        <ele>1266</ele>
        <time>2014-03-17T09:52:05Z</time>
      </trkpt>
      <trkpt lat="45.6947" lon="6.55357">
        <ele>1267</ele>
        <time>2014-03-17T09:52:13Z</time>
      </trkpt>
      <trkpt lat="45.69464" lon="6.55352">
        <ele>1268</ele>
        <time>2014-03-17T09:52:22Z</time>
      </trkpt>
      <trkpt lat="45.69458" lon="6.55349">
        <ele>1270</ele>
        <time>2014-03-17T09:52:30Z</time>
      </trkpt>
      <trkpt lat="45.69452" lon="6.55343">
        <ele>1272</ele>
        <time>2014-03-17T09:52:38Z</time>
      </trkpt>
      <trkpt lat="45.69445" lon="6.55338">
        <ele>1273</ele>
        <time>2014-03-17T09:52:46Z</time>
      </trkpt>
      <trkpt lat="45.69439" lon="6.55333">
        <ele>1274</ele>
        <time>2014-03-17T09:52:54Z</time>
      </trkpt>
      <trkpt lat="45.69433" lon="6.55327">
        <ele>1275</ele>
        <time>2014-03-17T09:53:02Z</time>
      </trkpt>
      <trkpt lat="45.69427" lon="6.55321">
        <ele>1276</ele>
        <time>2014-03-17T09:53:10Z</time>
      </trkpt>
      <trkpt lat="45.69421" lon="6.55315">
        <ele>1277</ele>
        <time>2014-03-17T09:53:18Z</time>
      </trkpt>
      <trkpt lat="45.69415" lon="6.5531">
        <ele>1279</ele>
        <time>2014-03-17T09:53:26Z</time>
      </trkpt>
      <trkpt lat="45.69409" lon="6.55304">
        <ele>1281</ele>
        <time>2014-03-17T09:53:34Z</time>
      </trkpt>
      <trkpt lat="45.69403" lon="6.55297">
        <ele>1282</ele>
        <time>2014-03-17T09:53:42Z</time>
      </trkpt>
      <trkpt lat="45.69398" lon="6.5529">
        <ele>1283</ele>
        <time>2014-03-17T09:53:50Z</time>
      </trkpt>
      <trkpt lat="45.69392" lon="6.55282">
        <ele>1284</ele>
        <time>2014-03-17T09:53:58Z</time>
      </trkpt>
      <trkpt lat="45.69392" lon="6.55274">
        <ele>1285</ele>
        <time>2014-03-17T09:54:05Z</time>
      </trkpt>
      <trkpt lat="45.69391" lon="6.55266">
        <ele>1285</ele>
        <time>2014-03-17T09:54:13Z</time>
      </trkpt>
      <trkpt lat="45.69391" lon="6.55258">
        <ele>1285</ele>
        <time>2014-03-17T09:54:21Z</time>
      </trkpt>
      <trkpt lat="45.69392" lon="6.55252">
        <ele>1285</ele>
        <time>2014-03-17T09:54:29Z</time>
      </trkpt>
      <trkpt lat="45.69392" lon="6.55245">
        <ele>1285</ele>
        <time>2014-03-17T09:54:41Z</time>
      </trkpt>
      <trkpt lat="45.69392" lon="6.55237">
        <ele>1285</ele>
        <time>2014-03-17T09:54:50Z</time>
      </trkpt>
      <trkpt lat="45.69391" lon="6.55231">
        <ele>1288</ele>
        <time>2014-03-17T09:55:01Z</time>
      </trkpt>
      <trkpt lat="45.69391" lon="6.55223">
        <ele>1289</ele>
        <time>2014-03-17T09:55:10Z</time>
      </trkpt>
      <trkpt lat="45.69391" lon="6.55216">
        <ele>1291</ele>
        <time>2014-03-17T09:55:18Z</time>
      </trkpt>
      <trkpt lat="45.69392" lon="6.55209">
        <ele>1293</ele>
        <time>2014-03-17T09:55:26Z</time>
      </trkpt>
      <trkpt lat="45.69392" lon="6.55202">
        <ele>1295</ele>
        <time>2014-03-17T09:55:34Z</time>
      </trkpt>
      <trkpt lat="45.69396" lon="6.55201">
        <ele>1296</ele>
        <time>2014-03-17T09:55:45Z</time>
      </trkpt>
      <trkpt lat="45.694" lon="6.55206">
        <ele>1297</ele>
        <time>2014-03-17T09:55:56Z</time>
      </trkpt>
      <trkpt lat="45.69405" lon="6.55211">
        <ele>1299</ele>
        <time>2014-03-17T09:56:09Z</time>
      </trkpt>
      <trkpt lat="45.6941" lon="6.55214">
        <ele>1300</ele>
        <time>2014-03-17T09:56:20Z</time>
      </trkpt>
      <trkpt lat="45.69416" lon="6.55217">
        <ele>1302</ele>
        <time>2014-03-17T09:56:32Z</time>
      </trkpt>
      <trkpt lat="45.69421" lon="6.55222">
        <ele>1304</ele>
        <time>2014-03-17T09:56:43Z</time>
      </trkpt>
      <trkpt lat="45.69427" lon="6.55223">
        <ele>1305</ele>
        <time>2014-03-17T09:56:52Z</time>
      </trkpt>
      <trkpt lat="45.69432" lon="6.55226">
        <ele>1306</ele>
        <time>2014-03-17T09:57:02Z</time>
      </trkpt>
      <trkpt lat="45.69438" lon="6.55229">
        <ele>1308</ele>
        <time>2014-03-17T09:57:12Z</time>
      </trkpt>
      <trkpt lat="45.69435" lon="6.55219">
        <ele>1309</ele>
        <time>2014-03-17T09:57:24Z</time>
      </trkpt>
      <trkpt lat="45.69437" lon="6.55211">
        <ele>1309</ele>
        <time>2014-03-17T09:57:30Z</time>
      </trkpt>
      <trkpt lat="45.69434" lon="6.55203">
        <ele>1310</ele>
        <time>2014-03-17T09:57:40Z</time>
      </trkpt>
      <trkpt lat="45.69438" lon="6.55201">
        <ele>1313</ele>
        <time>2014-03-17T09:57:50Z</time>
      </trkpt>
      <trkpt lat="45.69434" lon="6.55196">
        <ele>1314</ele>
        <time>2014-03-17T09:57:59Z</time>
      </trkpt>
      <trkpt lat="45.69437" lon="6.55199">
        <ele>1314</ele>
        <time>2014-03-17T09:58:24Z</time>
      </trkpt>
      <trkpt lat="45.69439" lon="6.55196">
        <ele>1316</ele>
        <time>2014-03-17T09:58:39Z</time>
      </trkpt>
      <trkpt lat="45.69445" lon="6.55202">
        <ele>1316</ele>
        <time>2014-03-17T09:58:47Z</time>
      </trkpt>
      <trkpt lat="45.69451" lon="6.5521">
        <ele>1316</ele>
        <time>2014-03-17T09:58:55Z</time>
      </trkpt>
      <trkpt lat="45.69455" lon="6.55206">
        <ele>1316</ele>
        <time>2014-03-17T09:59:06Z</time>
      </trkpt>
      <trkpt lat="45.6946" lon="6.55208">
        <ele>1318</ele>
        <time>2014-03-17T09:59:14Z</time>
      </trkpt>
      <trkpt lat="45.69464" lon="6.55208">
        <ele>1319</ele>
        <time>2014-03-17T09:59:26Z</time>
      </trkpt>
      <trkpt lat="45.69461" lon="6.55201">
        <ele>1321</ele>
        <time>2014-03-17T09:59:34Z</time>
      </trkpt>
      <trkpt lat="45.69459" lon="6.55194">
        <ele>1322</ele>
        <time>2014-03-17T09:59:42Z</time>
      </trkpt>
      <trkpt lat="45.6946" lon="6.55188">
        <ele>1325</ele>
        <time>2014-03-17T09:59:56Z</time>
      </trkpt>
      <trkpt lat="45.69465" lon="6.55186">
        <ele>1328</ele>
        <time>2014-03-17T10:00:09Z</time>
      </trkpt>
      <trkpt lat="45.69466" lon="6.5518">
        <ele>1331</ele>
        <time>2014-03-17T10:00:22Z</time>
      </trkpt>
      <trkpt lat="45.69467" lon="6.55173">
        <ele>1334</ele>
        <time>2014-03-17T10:00:35Z</time>
      </trkpt>
      <trkpt lat="45.69471" lon="6.55173">
        <ele>1337</ele>
        <time>2014-03-17T10:00:48Z</time>
      </trkpt>
      <trkpt lat="45.69472" lon="6.55166">
        <ele>1338</ele>
        <time>2014-03-17T10:01:02Z</time>
      </trkpt>
      <trkpt lat="45.6947" lon="6.55166">
        <ele>1342</ele>
        <time>2014-03-17T10:01:50Z</time>
      </trkpt>
      <trkpt lat="45.6947" lon="6.55162">
        <ele>1342</ele>
        <time>2014-03-17T10:02:51Z</time>
      </trkpt>
      <trkpt lat="45.69474" lon="6.5516">
        <ele>1342</ele>
        <time>2014-03-17T10:03:00Z</time>
      </trkpt>
      <trkpt lat="45.69476" lon="6.55154">
        <ele>1343</ele>
        <time>2014-03-17T10:03:13Z</time>
      </trkpt>
      <trkpt lat="45.69475" lon="6.55147">
        <ele>1344</ele>
        <time>2014-03-17T10:03:22Z</time>
      </trkpt>
      <trkpt lat="45.69479" lon="6.55144">
        <ele>1346</ele>
        <time>2014-03-17T10:03:34Z</time>
      </trkpt>
      <trkpt lat="45.69485" lon="6.55144">
        <ele>1348</ele>
        <time>2014-03-17T10:03:46Z</time>
      </trkpt>
      <trkpt lat="45.6949" lon="6.55143">
        <ele>1350</ele>
        <time>2014-03-17T10:03:59Z</time>
      </trkpt>
      <trkpt lat="45.6949" lon="6.55137">
        <ele>1353</ele>
        <time>2014-03-17T10:04:12Z</time>
      </trkpt>
      <trkpt lat="45.6949" lon="6.55131">
        <ele>1354</ele>
        <time>2014-03-17T10:04:23Z</time>
      </trkpt>
      <trkpt lat="45.69492" lon="6.55127">
        <ele>1356</ele>
        <time>2014-03-17T10:04:35Z</time>
      </trkpt>
      <trkpt lat="45.69498" lon="6.55126">
        <ele>1358</ele>
        <time>2014-03-17T10:04:46Z</time>
      </trkpt>
      <trkpt lat="45.69503" lon="6.55128">
        <ele>1360</ele>
        <time>2014-03-17T10:04:58Z</time>
      </trkpt>
      <trkpt lat="45.69508" lon="6.55129">
        <ele>1362</ele>
        <time>2014-03-17T10:05:10Z</time>
      </trkpt>
      <trkpt lat="45.6951" lon="6.55126">
        <ele>1364</ele>
        <time>2014-03-17T10:05:24Z</time>
      </trkpt>
      <trkpt lat="45.69509" lon="6.55119">
        <ele>1365</ele>
        <time>2014-03-17T10:05:32Z</time>
      </trkpt>
      <trkpt lat="45.69511" lon="6.55115">
        <ele>1367</ele>
        <time>2014-03-17T10:05:51Z</time>
      </trkpt>
      <trkpt lat="45.69517" lon="6.55122">
        <ele>1367</ele>
        <time>2014-03-17T10:05:59Z</time>
      </trkpt>
      <trkpt lat="45.69523" lon="6.55129">
        <ele>1367</ele>
        <time>2014-03-17T10:06:07Z</time>
      </trkpt>
      <trkpt lat="45.69529" lon="6.55135">
        <ele>1368</ele>
        <time>2014-03-17T10:06:15Z</time>
      </trkpt>
      <trkpt lat="45.69535" lon="6.55142">
        <ele>1368</ele>
        <time>2014-03-17T10:06:23Z</time>
      </trkpt>
      <trkpt lat="45.69542" lon="6.55147">
        <ele>1369</ele>
        <time>2014-03-17T10:06:31Z</time>
      </trkpt>
      <trkpt lat="45.69549" lon="6.55153">
        <ele>1369</ele>
        <time>2014-03-17T10:06:39Z</time>
      </trkpt>
      <trkpt lat="45.69555" lon="6.55156">
        <ele>1369</ele>
        <time>2014-03-17T10:06:48Z</time>
      </trkpt>
      <trkpt lat="45.6956" lon="6.55154">
        <ele>1371</ele>
        <time>2014-03-17T10:06:57Z</time>
      </trkpt>
      <trkpt lat="45.69565" lon="6.55153">
        <ele>1373</ele>
        <time>2014-03-17T10:07:09Z</time>
      </trkpt>
      <trkpt lat="45.69571" lon="6.55152">
        <ele>1375</ele>
        <time>2014-03-17T10:07:21Z</time>
      </trkpt>
      <trkpt lat="45.69574" lon="6.55147">
        <ele>1377</ele>
        <time>2014-03-17T10:07:36Z</time>
      </trkpt>
      <trkpt lat="45.69572" lon="6.5514">
        <ele>1380</ele>
        <time>2014-03-17T10:07:49Z</time>
      </trkpt>
      <trkpt lat="45.6957" lon="6.55134">
        <ele>1382</ele>
        <time>2014-03-17T10:08:00Z</time>
      </trkpt>
      <trkpt lat="45.69569" lon="6.55127">
        <ele>1384</ele>
        <time>2014-03-17T10:08:10Z</time>
      </trkpt>
      <trkpt lat="45.69566" lon="6.55121">
        <ele>1385</ele>
        <time>2014-03-17T10:08:23Z</time>
      </trkpt>
      <trkpt lat="45.69568" lon="6.55117">
        <ele>1387</ele>
        <time>2014-03-17T10:08:39Z</time>
      </trkpt>
      <trkpt lat="45.69566" lon="6.5511">
        <ele>1390</ele>
        <time>2014-03-17T10:08:55Z</time>
      </trkpt>
      <trkpt lat="45.69562" lon="6.55104">
        <ele>1392</ele>
        <time>2014-03-17T10:09:08Z</time>
      </trkpt>
      <trkpt lat="45.69559" lon="6.55097">
        <ele>1393</ele>
        <time>2014-03-17T10:09:21Z</time>
      </trkpt>
      <trkpt lat="45.69565" lon="6.55096">
        <ele>1394</ele>
        <time>2014-03-17T10:09:33Z</time>
      </trkpt>
      <trkpt lat="45.69571" lon="6.55096">
        <ele>1395</ele>
        <time>2014-03-17T10:09:44Z</time>
      </trkpt>
      <trkpt lat="45.69576" lon="6.55094">
        <ele>1396</ele>
        <time>2014-03-17T10:10:05Z</time>
      </trkpt>
      <trkpt lat="45.69577" lon="6.55092">
        <ele>1397</ele>
        <time>2014-03-17T10:10:29Z</time>
      </trkpt>
      <trkpt lat="45.6958" lon="6.55092">
        <ele>1399</ele>
        <time>2014-03-17T10:11:39Z</time>
      </trkpt>
      <trkpt lat="45.6958" lon="6.55092">
        <ele>1399</ele>
        <time>2014-03-17T10:12:46Z</time>
      </trkpt>
      <trkpt lat="45.6958" lon="6.55093">
        <ele>1399</ele>
        <time>2014-03-17T10:13:41Z</time>
      </trkpt>
      <trkpt lat="45.69579" lon="6.55093">
        <ele>1399</ele>
        <time>2014-03-17T10:14:48Z</time>
      </trkpt>
      <trkpt lat="45.69583" lon="6.55089">
        <ele>1399</ele>
        <time>2014-03-17T10:15:22Z</time>
      </trkpt>
      <trkpt lat="45.69586" lon="6.55082">
        <ele>1399</ele>
        <time>2014-03-17T10:15:46Z</time>
      </trkpt>
      <trkpt lat="45.69582" lon="6.55076">
        <ele>1400</ele>
        <time>2014-03-17T10:15:55Z</time>
      </trkpt>
      <trkpt lat="45.69581" lon="6.55067">
        <ele>1403</ele>
        <time>2014-03-17T10:16:11Z</time>
      </trkpt>
      <trkpt lat="45.6958" lon="6.5506">
        <ele>1403</ele>
        <time>2014-03-17T10:16:25Z</time>
      </trkpt>
      <trkpt lat="45.69581" lon="6.55053">
        <ele>1405</ele>
        <time>2014-03-17T10:16:50Z</time>
      </trkpt>
      <trkpt lat="45.69584" lon="6.55045">
        <ele>1406</ele>
        <time>2014-03-17T10:16:58Z</time>
      </trkpt>
      <trkpt lat="45.69586" lon="6.55037">
        <ele>1407</ele>
        <time>2014-03-17T10:17:06Z</time>
      </trkpt>
      <trkpt lat="45.69589" lon="6.55034">
        <ele>1408</ele>
        <time>2014-03-17T10:17:31Z</time>
      </trkpt>
      <trkpt lat="45.69592" lon="6.55027">
        <ele>1408</ele>
        <time>2014-03-17T10:17:39Z</time>
      </trkpt>
      <trkpt lat="45.69595" lon="6.55018">
        <ele>1408</ele>
        <time>2014-03-17T10:17:47Z</time>
      </trkpt>
      <trkpt lat="45.69598" lon="6.55008">
        <ele>1408</ele>
        <time>2014-03-17T10:17:55Z</time>
      </trkpt>
      <trkpt lat="45.69601" lon="6.54999">
        <ele>1408</ele>
        <time>2014-03-17T10:18:03Z</time>
      </trkpt>
      <trkpt lat="45.69605" lon="6.54993">
        <ele>1408</ele>
        <time>2014-03-17T10:18:12Z</time>
      </trkpt>
      <trkpt lat="45.69609" lon="6.54986">
        <ele>1408</ele>
        <time>2014-03-17T10:18:22Z</time>
      </trkpt>
      <trkpt lat="45.69612" lon="6.5498">
        <ele>1408</ele>
        <time>2014-03-17T10:18:30Z</time>
      </trkpt>
      <trkpt lat="45.69617" lon="6.54973">
        <ele>1410</ele>
        <time>2014-03-17T10:18:41Z</time>
      </trkpt>
      <trkpt lat="45.69622" lon="6.54967">
        <ele>1413</ele>
        <time>2014-03-17T10:18:58Z</time>
      </trkpt>
      <trkpt lat="45.69627" lon="6.54961">
        <ele>1416</ele>
        <time>2014-03-17T10:19:13Z</time>
      </trkpt>
      <trkpt lat="45.6963" lon="6.54958">
        <ele>1418</ele>
        <time>2014-03-17T10:19:44Z</time>
      </trkpt>
      <trkpt lat="45.69634" lon="6.54955">
        <ele>1420</ele>
        <time>2014-03-17T10:20:09Z</time>
      </trkpt>
      <trkpt lat="45.69638" lon="6.54954">
        <ele>1420</ele>
        <time>2014-03-17T10:20:24Z</time>
      </trkpt>
      <trkpt lat="45.69643" lon="6.54949">
        <ele>1423</ele>
        <time>2014-03-17T10:20:46Z</time>
      </trkpt>
      <trkpt lat="45.69648" lon="6.54945">
        <ele>1424</ele>
        <time>2014-03-17T10:21:03Z</time>
      </trkpt>
      <trkpt lat="45.69652" lon="6.54943">
        <ele>1426</ele>
        <time>2014-03-17T10:21:43Z</time>
      </trkpt>
      <trkpt lat="45.69657" lon="6.54939">
        <ele>1427</ele>
        <time>2014-03-17T10:21:57Z</time>
      </trkpt>
      <trkpt lat="45.69662" lon="6.54936">
        <ele>1428</ele>
        <time>2014-03-17T10:22:11Z</time>
      </trkpt>
      <trkpt lat="45.69667" lon="6.54932">
        <ele>1431</ele>
        <time>2014-03-17T10:22:33Z</time>
      </trkpt>
      <trkpt lat="45.6967" lon="6.54929">
        <ele>1434</ele>
        <time>2014-03-17T10:23:19Z</time>
      </trkpt>
      <trkpt lat="45.69667" lon="6.54923">
        <ele>1436</ele>
        <time>2014-03-17T10:23:42Z</time>
      </trkpt>
      <trkpt lat="45.69669" lon="6.54922">
        <ele>1438</ele>
        <time>2014-03-17T10:24:15Z</time>
      </trkpt>
      <trkpt lat="45.6967" lon="6.54921">
        <ele>1439</ele>
        <time>2014-03-17T10:24:40Z</time>
      </trkpt>
      <trkpt lat="45.69669" lon="6.54923">
        <ele>1441</ele>
        <time>2014-03-17T10:25:20Z</time>
      </trkpt>
      <trkpt lat="45.69667" lon="6.5492">
        <ele>1441</ele>
        <time>2014-03-17T10:25:39Z</time>
      </trkpt>
      <trkpt lat="45.69662" lon="6.54915">
        <ele>1442</ele>
        <time>2014-03-17T10:26:07Z</time>
      </trkpt>
      <trkpt lat="45.69657" lon="6.5491">
        <ele>1442</ele>
        <time>2014-03-17T10:26:20Z</time>
      </trkpt>
      <trkpt lat="45.69653" lon="6.54904">
        <ele>1442</ele>
        <time>2014-03-17T10:26:33Z</time>
      </trkpt>
      <trkpt lat="45.69647" lon="6.54899">
        <ele>1443</ele>
        <time>2014-03-17T10:26:56Z</time>
      </trkpt>
      <trkpt lat="45.69642" lon="6.54895">
        <ele>1443</ele>
        <time>2014-03-17T10:27:16Z</time>
      </trkpt>
      <trkpt lat="45.69637" lon="6.54891">
        <ele>1444</ele>
        <time>2014-03-17T10:27:32Z</time>
      </trkpt>
      <trkpt lat="45.69632" lon="6.54884">
        <ele>1446</ele>
        <time>2014-03-17T10:27:51Z</time>
      </trkpt>
      <trkpt lat="45.6963" lon="6.54879">
        <ele>1447</ele>
        <time>2014-03-17T10:28:11Z</time>
      </trkpt>
      <trkpt lat="45.69632" lon="6.54875">
        <ele>1448</ele>
        <time>2014-03-17T10:28:27Z</time>
      </trkpt>
      <trkpt lat="45.69636" lon="6.5487">
        <ele>1452</ele>
        <time>2014-03-17T10:28:44Z</time>
      </trkpt>
      <trkpt lat="45.69632" lon="6.54864">
        <ele>1454</ele>
        <time>2014-03-17T10:29:02Z</time>
      </trkpt>
      <trkpt lat="45.69629" lon="6.54858">
        <ele>1455</ele>
        <time>2014-03-17T10:29:18Z</time>
      </trkpt>
      <trkpt lat="45.69624" lon="6.54851">
        <ele>1456</ele>
        <time>2014-03-17T10:29:37Z</time>
      </trkpt>
      <trkpt lat="45.69619" lon="6.54848">
        <ele>1458</ele>
        <time>2014-03-17T10:29:48Z</time>
      </trkpt>
      <trkpt lat="45.69614" lon="6.54843">
        <ele>1459</ele>
        <time>2014-03-17T10:29:59Z</time>
      </trkpt>
      <trkpt lat="45.69609" lon="6.54837">
        <ele>1459</ele>
        <time>2014-03-17T10:30:11Z</time>
      </trkpt>
      <trkpt lat="45.69607" lon="6.54831">
        <ele>1460</ele>
        <time>2014-03-17T10:30:24Z</time>
      </trkpt>
      <trkpt lat="45.69613" lon="6.54827">
        <ele>1462</ele>
        <time>2014-03-17T10:30:39Z</time>
      </trkpt>
      <trkpt lat="45.6961" lon="6.54821">
        <ele>1462</ele>
        <time>2014-03-17T10:30:52Z</time>
      </trkpt>
      <trkpt lat="45.69605" lon="6.54817">
        <ele>1465</ele>
        <time>2014-03-17T10:31:04Z</time>
      </trkpt>
      <trkpt lat="45.696" lon="6.54813">
        <ele>1467</ele>
        <time>2014-03-17T10:31:16Z</time>
      </trkpt>
      <trkpt lat="45.69597" lon="6.54806">
        <ele>1470</ele>
        <time>2014-03-17T10:31:28Z</time>
      </trkpt>
      <trkpt lat="45.69602" lon="6.54801">
        <ele>1471</ele>
        <time>2014-03-17T10:31:43Z</time>
      </trkpt>
      <trkpt lat="45.69604" lon="6.54796">
        <ele>1472</ele>
        <time>2014-03-17T10:31:58Z</time>
      </trkpt>
      <trkpt lat="45.69607" lon="6.5479">
        <ele>1474</ele>
        <time>2014-03-17T10:32:12Z</time>
      </trkpt>
      <trkpt lat="45.69607" lon="6.54785">
        <ele>1478</ele>
        <time>2014-03-17T10:32:30Z</time>
      </trkpt>
      <trkpt lat="45.69613" lon="6.54787">
        <ele>1478</ele>
        <time>2014-03-17T10:32:38Z</time>
      </trkpt>
      <trkpt lat="45.69618" lon="6.54786">
        <ele>1478</ele>
        <time>2014-03-17T10:32:54Z</time>
      </trkpt>
      <trkpt lat="45.69623" lon="6.54786">
        <ele>1478</ele>
        <time>2014-03-17T10:33:02Z</time>
      </trkpt>
      <trkpt lat="45.69629" lon="6.54784">
        <ele>1478</ele>
        <time>2014-03-17T10:33:12Z</time>
      </trkpt>
      <trkpt lat="45.6963" lon="6.54778">
        <ele>1479</ele>
        <time>2014-03-17T10:33:29Z</time>
      </trkpt>
      <trkpt lat="45.69626" lon="6.54773">
        <ele>1482</ele>
        <time>2014-03-17T10:33:47Z</time>
      </trkpt>
      <trkpt lat="45.69625" lon="6.54768">
        <ele>1483</ele>
        <time>2014-03-17T10:34:06Z</time>
      </trkpt>
      <trkpt lat="45.69624" lon="6.54761">
        <ele>1486</ele>
        <time>2014-03-17T10:34:22Z</time>
      </trkpt>
      <trkpt lat="45.69623" lon="6.54755">
        <ele>1489</ele>
        <time>2014-03-17T10:34:52Z</time>
      </trkpt>
      <trkpt lat="45.69619" lon="6.54748">
        <ele>1491</ele>
        <time>2014-03-17T10:35:12Z</time>
      </trkpt>
      <trkpt lat="45.69623" lon="6.54744">
        <ele>1493</ele>
        <time>2014-03-17T10:35:24Z</time>
      </trkpt>
      <trkpt lat="45.69628" lon="6.54743">
        <ele>1494</ele>
        <time>2014-03-17T10:35:36Z</time>
      </trkpt>
      <trkpt lat="45.69633" lon="6.54742">
        <ele>1495</ele>
        <time>2014-03-17T10:35:48Z</time>
      </trkpt>
      <trkpt lat="45.69639" lon="6.5474">
        <ele>1495</ele>
        <time>2014-03-17T10:36:00Z</time>
      </trkpt>
      <trkpt lat="45.69644" lon="6.54737">
        <ele>1496</ele>
        <time>2014-03-17T10:36:15Z</time>
      </trkpt>
      <trkpt lat="45.69649" lon="6.54734">
        <ele>1497</ele>
        <time>2014-03-17T10:36:29Z</time>
      </trkpt>
      <trkpt lat="45.69654" lon="6.5473">
        <ele>1498</ele>
        <time>2014-03-17T10:36:40Z</time>
      </trkpt>
      <trkpt lat="45.69659" lon="6.54726">
        <ele>1499</ele>
        <time>2014-03-17T10:36:53Z</time>
      </trkpt>
      <trkpt lat="45.69664" lon="6.54723">
        <ele>1501</ele>
        <time>2014-03-17T10:37:05Z</time>
      </trkpt>
      <trkpt lat="45.69662" lon="6.54716">
        <ele>1502</ele>
        <time>2014-03-17T10:37:20Z</time>
      </trkpt>
      <trkpt lat="45.69659" lon="6.54709">
        <ele>1505</ele>
        <time>2014-03-17T10:37:38Z</time>
      </trkpt>
      <trkpt lat="45.69655" lon="6.54703">
        <ele>1507</ele>
        <time>2014-03-17T10:38:08Z</time>
      </trkpt>
      <trkpt lat="45.69651" lon="6.54696">
        <ele>1509</ele>
        <time>2014-03-17T10:38:21Z</time>
      </trkpt>
      <trkpt lat="45.69648" lon="6.54689">
        <ele>1510</ele>
        <time>2014-03-17T10:38:35Z</time>
      </trkpt>
      <trkpt lat="45.69645" lon="6.54683">
        <ele>1512</ele>
        <time>2014-03-17T10:38:47Z</time>
      </trkpt>
      <trkpt lat="45.69642" lon="6.54676">
        <ele>1514</ele>
        <time>2014-03-17T10:39:02Z</time>
      </trkpt>
      <trkpt lat="45.69647" lon="6.54673">
        <ele>1517</ele>
        <time>2014-03-17T10:39:18Z</time>
      </trkpt>
      <trkpt lat="45.69652" lon="6.5467">
        <ele>1519</ele>
        <time>2014-03-17T10:39:33Z</time>
      </trkpt>
      <trkpt lat="45.69656" lon="6.54667">
        <ele>1519</ele>
        <time>2014-03-17T10:39:51Z</time>
      </trkpt>
      <trkpt lat="45.69656" lon="6.5466">
        <ele>1521</ele>
        <time>2014-03-17T10:40:07Z</time>
      </trkpt>
      <trkpt lat="45.69653" lon="6.54653">
        <ele>1523</ele>
        <time>2014-03-17T10:40:21Z</time>
      </trkpt>
      <trkpt lat="45.69651" lon="6.54647">
        <ele>1523</ele>
        <time>2014-03-17T10:40:33Z</time>
      </trkpt>
      <trkpt lat="45.6965" lon="6.5464">
        <ele>1526</ele>
        <time>2014-03-17T10:40:45Z</time>
      </trkpt>
      <trkpt lat="45.6965" lon="6.54634">
        <ele>1529</ele>
        <time>2014-03-17T10:40:59Z</time>
      </trkpt>
      <trkpt lat="45.69647" lon="6.54627">
        <ele>1531</ele>
        <time>2014-03-17T10:41:21Z</time>
      </trkpt>
      <trkpt lat="45.69645" lon="6.5462">
        <ele>1531</ele>
        <time>2014-03-17T10:41:31Z</time>
      </trkpt>
      <trkpt lat="45.69644" lon="6.54614">
        <ele>1532</ele>
        <time>2014-03-17T10:41:42Z</time>
      </trkpt>
      <trkpt lat="45.69647" lon="6.54607">
        <ele>1532</ele>
        <time>2014-03-17T10:41:56Z</time>
      </trkpt>
      <trkpt lat="45.69651" lon="6.546">
        <ele>1534</ele>
        <time>2014-03-17T10:42:09Z</time>
      </trkpt>
      <trkpt lat="45.69656" lon="6.54594">
        <ele>1535</ele>
        <time>2014-03-17T10:42:23Z</time>
      </trkpt>
      <trkpt lat="45.6966" lon="6.54589">
        <ele>1537</ele>
        <time>2014-03-17T10:42:37Z</time>
      </trkpt>
      <trkpt lat="45.69663" lon="6.54583">
        <ele>1540</ele>
        <time>2014-03-17T10:43:09Z</time>
      </trkpt>
      <trkpt lat="45.69669" lon="6.54581">
        <ele>1540</ele>
        <time>2014-03-17T10:43:21Z</time>
      </trkpt>
      <trkpt lat="45.69675" lon="6.54578">
        <ele>1540</ele>
        <time>2014-03-17T10:43:33Z</time>
      </trkpt>
      <trkpt lat="45.6968" lon="6.54578">
        <ele>1540</ele>
        <time>2014-03-17T10:43:44Z</time>
      </trkpt>
      <trkpt lat="45.69685" lon="6.54574">
        <ele>1542</ele>
        <time>2014-03-17T10:44:01Z</time>
      </trkpt>
      <trkpt lat="45.69687" lon="6.54568">
        <ele>1542</ele>
        <time>2014-03-17T10:44:18Z</time>
      </trkpt>
      <trkpt lat="45.69687" lon="6.5456">
        <ele>1543</ele>
        <time>2014-03-17T10:44:30Z</time>
      </trkpt>
      <trkpt lat="45.69693" lon="6.5456">
        <ele>1544</ele>
        <time>2014-03-17T10:44:41Z</time>
      </trkpt>
      <trkpt lat="45.69698" lon="6.54561">
        <ele>1546</ele>
        <time>2014-03-17T10:44:51Z</time>
      </trkpt>
      <trkpt lat="45.69703" lon="6.5456">
        <ele>1547</ele>
        <time>2014-03-17T10:45:02Z</time>
      </trkpt>
      <trkpt lat="45.69706" lon="6.54559">
        <ele>1548</ele>
        <time>2014-03-17T10:45:47Z</time>
      </trkpt>
      <trkpt lat="45.6971" lon="6.54554">
        <ele>1548</ele>
        <time>2014-03-17T10:46:22Z</time>
      </trkpt>
      <trkpt lat="45.69708" lon="6.54549">
        <ele>1549</ele>
        <time>2014-03-17T10:46:45Z</time>
      </trkpt>
      <trkpt lat="45.69705" lon="6.54542">
        <ele>1550</ele>
        <time>2014-03-17T10:46:58Z</time>
      </trkpt>
      <trkpt lat="45.69702" lon="6.54535">
        <ele>1553</ele>
        <time>2014-03-17T10:47:09Z</time>
      </trkpt>
      <trkpt lat="45.69699" lon="6.54529">
        <ele>1555</ele>
        <time>2014-03-17T10:47:21Z</time>
      </trkpt>
      <trkpt lat="45.69696" lon="6.54523">
        <ele>1557</ele>
        <time>2014-03-17T10:47:34Z</time>
      </trkpt>
      <trkpt lat="45.69694" lon="6.54516">
        <ele>1559</ele>
        <time>2014-03-17T10:47:48Z</time>
      </trkpt>
      <trkpt lat="45.6969" lon="6.5451">
        <ele>1561</ele>
        <time>2014-03-17T10:48:13Z</time>
      </trkpt>
      <trkpt lat="45.69688" lon="6.54503">
        <ele>1563</ele>
        <time>2014-03-17T10:48:29Z</time>
      </trkpt>
      <trkpt lat="45.69688" lon="6.54496">
        <ele>1566</ele>
        <time>2014-03-17T10:48:45Z</time>
      </trkpt>
      <trkpt lat="45.69686" lon="6.54489">
        <ele>1569</ele>
        <time>2014-03-17T10:49:01Z</time>
      </trkpt>
      <trkpt lat="45.69682" lon="6.54482">
        <ele>1569</ele>
        <time>2014-03-17T10:49:16Z</time>
      </trkpt>
      <trkpt lat="45.69682" lon="6.54475">
        <ele>1570</ele>
        <time>2014-03-17T10:49:28Z</time>
      </trkpt>
      <trkpt lat="45.69684" lon="6.54468">
        <ele>1572</ele>
        <time>2014-03-17T10:49:40Z</time>
      </trkpt>
      <trkpt lat="45.69686" lon="6.54461">
        <ele>1574</ele>
        <time>2014-03-17T10:49:52Z</time>
      </trkpt>
      <trkpt lat="45.69687" lon="6.54455">
        <ele>1575</ele>
        <time>2014-03-17T10:50:03Z</time>
      </trkpt>
      <trkpt lat="45.6969" lon="6.54448">
        <ele>1575</ele>
        <time>2014-03-17T10:50:19Z</time>
      </trkpt>
      <trkpt lat="45.69691" lon="6.54441">
        <ele>1575</ele>
        <time>2014-03-17T10:50:41Z</time>
      </trkpt>
      <trkpt lat="45.69696" lon="6.54442">
        <ele>1577</ele>
        <time>2014-03-17T10:51:07Z</time>
      </trkpt>
      <trkpt lat="45.69702" lon="6.54445">
        <ele>1577</ele>
        <time>2014-03-17T10:51:16Z</time>
      </trkpt>
      <trkpt lat="45.69708" lon="6.5445">
        <ele>1577</ele>
        <time>2014-03-17T10:51:24Z</time>
      </trkpt>
      <trkpt lat="45.69713" lon="6.54454">
        <ele>1577</ele>
        <time>2014-03-17T10:51:34Z</time>
      </trkpt>
      <trkpt lat="45.69716" lon="6.54455">
        <ele>1584</ele>
        <time>2014-03-17T10:52:29Z</time>
      </trkpt>
      <trkpt lat="45.6972" lon="6.54454">
        <ele>1584</ele>
        <time>2014-03-17T10:52:49Z</time>
      </trkpt>
      <trkpt lat="45.69725" lon="6.5445">
        <ele>1584</ele>
        <time>2014-03-17T10:53:02Z</time>
      </trkpt>
      <trkpt lat="45.69724" lon="6.54445">
        <ele>1584</ele>
        <time>2014-03-17T10:53:35Z</time>
      </trkpt>
      <trkpt lat="45.69724" lon="6.54438">
        <ele>1584</ele>
        <time>2014-03-17T10:53:43Z</time>
      </trkpt>
      <trkpt lat="45.69723" lon="6.5443">
        <ele>1584</ele>
        <time>2014-03-17T10:53:54Z</time>
      </trkpt>
      <trkpt lat="45.69722" lon="6.54424">
        <ele>1584</ele>
        <time>2014-03-17T10:54:22Z</time>
      </trkpt>
      <trkpt lat="45.6972" lon="6.54417">
        <ele>1584</ele>
        <time>2014-03-17T10:54:33Z</time>
      </trkpt>
      <trkpt lat="45.6972" lon="6.5441">
        <ele>1586</ele>
        <time>2014-03-17T10:55:02Z</time>
      </trkpt>
      <trkpt lat="45.69721" lon="6.54405">
        <ele>1589</ele>
        <time>2014-03-17T10:55:17Z</time>
      </trkpt>
      <trkpt lat="45.69726" lon="6.54401">
        <ele>1591</ele>
        <time>2014-03-17T10:55:30Z</time>
      </trkpt>
      <trkpt lat="45.69723" lon="6.54395">
        <ele>1592</ele>
        <time>2014-03-17T10:55:49Z</time>
      </trkpt>
      <trkpt lat="45.69718" lon="6.5439">
        <ele>1593</ele>
        <time>2014-03-17T10:56:02Z</time>
      </trkpt>
      <trkpt lat="45.69715" lon="6.54383">
        <ele>1593</ele>
        <time>2014-03-17T10:56:14Z</time>
      </trkpt>
      <trkpt lat="45.6972" lon="6.54381">
        <ele>1594</ele>
        <time>2014-03-17T10:56:27Z</time>
      </trkpt>
      <trkpt lat="45.69719" lon="6.54374">
        <ele>1595</ele>
        <time>2014-03-17T10:56:40Z</time>
      </trkpt>
      <trkpt lat="45.69719" lon="6.54367">
        <ele>1597</ele>
        <time>2014-03-17T10:56:57Z</time>
      </trkpt>
      <trkpt lat="45.69725" lon="6.54367">
        <ele>1600</ele>
        <time>2014-03-17T10:57:10Z</time>
      </trkpt>
      <trkpt lat="45.69729" lon="6.54361">
        <ele>1602</ele>
        <time>2014-03-17T10:57:24Z</time>
      </trkpt>
      <trkpt lat="45.69727" lon="6.54354">
        <ele>1603</ele>
        <time>2014-03-17T10:57:37Z</time>
      </trkpt>
      <trkpt lat="45.69725" lon="6.54347">
        <ele>1604</ele>
        <time>2014-03-17T10:57:45Z</time>
      </trkpt>
      <trkpt lat="45.6973" lon="6.54344">
        <ele>1606</ele>
        <time>2014-03-17T10:57:58Z</time>
      </trkpt>
      <trkpt lat="45.69735" lon="6.54343">
        <ele>1608</ele>
        <time>2014-03-17T10:58:11Z</time>
      </trkpt>
      <trkpt lat="45.69737" lon="6.54337">
        <ele>1611</ele>
        <time>2014-03-17T10:58:26Z</time>
      </trkpt>
      <trkpt lat="45.69738" lon="6.54329">
        <ele>1615</ele>
        <time>2014-03-17T10:58:35Z</time>
      </trkpt>
      <trkpt lat="45.69738" lon="6.54323">
        <ele>1617</ele>
        <time>2014-03-17T10:58:47Z</time>
      </trkpt>
      <trkpt lat="45.69737" lon="6.54317">
        <ele>1618</ele>
        <time>2014-03-17T10:58:58Z</time>
      </trkpt>
      <trkpt lat="45.69737" lon="6.5431">
        <ele>1621</ele>
        <time>2014-03-17T10:59:13Z</time>
      </trkpt>
      <trkpt lat="45.69736" lon="6.54303">
        <ele>1622</ele>
        <time>2014-03-17T10:59:26Z</time>
      </trkpt>
      <trkpt lat="45.69734" lon="6.54296">
        <ele>1622</ele>
        <time>2014-03-17T10:59:39Z</time>
      </trkpt>
      <trkpt lat="45.69734" lon="6.54289">
        <ele>1625</ele>
        <time>2014-03-17T11:00:04Z</time>
      </trkpt>
      <trkpt lat="45.69733" lon="6.54283">
        <ele>1626</ele>
        <time>2014-03-17T11:00:16Z</time>
      </trkpt>
      <trkpt lat="45.69732" lon="6.54276">
        <ele>1626</ele>
        <time>2014-03-17T11:00:29Z</time>
      </trkpt>
      <trkpt lat="45.69735" lon="6.54271">
        <ele>1629</ele>
        <time>2014-03-17T11:00:47Z</time>
      </trkpt>
      <trkpt lat="45.69738" lon="6.54263">
        <ele>1629</ele>
        <time>2014-03-17T11:01:02Z</time>
      </trkpt>
      <trkpt lat="45.69739" lon="6.54256">
        <ele>1629</ele>
        <time>2014-03-17T11:01:11Z</time>
      </trkpt>
      <trkpt lat="45.6974" lon="6.54249">
        <ele>1632</ele>
        <time>2014-03-17T11:01:18Z</time>
      </trkpt>
      <trkpt lat="45.69738" lon="6.54241">
        <ele>1634</ele>
        <time>2014-03-17T11:01:26Z</time>
      </trkpt>
      <trkpt lat="45.69736" lon="6.54234">
        <ele>1634</ele>
        <time>2014-03-17T11:01:53Z</time>
      </trkpt>
      <trkpt lat="45.69734" lon="6.54226">
        <ele>1634</ele>
        <time>2014-03-17T11:02:01Z</time>
      </trkpt>
      <trkpt lat="45.69731" lon="6.54219">
        <ele>1634</ele>
        <time>2014-03-17T11:02:09Z</time>
      </trkpt>
      <trkpt lat="45.69729" lon="6.54212">
        <ele>1634</ele>
        <time>2014-03-17T11:02:17Z</time>
      </trkpt>
      <trkpt lat="45.69728" lon="6.54206">
        <ele>1634</ele>
        <time>2014-03-17T11:02:25Z</time>
      </trkpt>
      <trkpt lat="45.69727" lon="6.54199">
        <ele>1634</ele>
        <time>2014-03-17T11:02:35Z</time>
      </trkpt>
      <trkpt lat="45.69724" lon="6.54192">
        <ele>1634</ele>
        <time>2014-03-17T11:02:47Z</time>
      </trkpt>
      <trkpt lat="45.69723" lon="6.54186">
        <ele>1634</ele>
        <time>2014-03-17T11:02:57Z</time>
      </trkpt>
      <trkpt lat="45.69722" lon="6.54178">
        <ele>1634</ele>
        <time>2014-03-17T11:03:08Z</time>
      </trkpt>
      <trkpt lat="45.69722" lon="6.54171">
        <ele>1634</ele>
        <time>2014-03-17T11:03:18Z</time>
      </trkpt>
      <trkpt lat="45.6972" lon="6.54164">
        <ele>1635</ele>
        <time>2014-03-17T11:03:33Z</time>
      </trkpt>
      <trkpt lat="45.69719" lon="6.54156">
        <ele>1636</ele>
        <time>2014-03-17T11:03:46Z</time>
      </trkpt>
      <trkpt lat="45.69718" lon="6.54149">
        <ele>1639</ele>
        <time>2014-03-17T11:03:59Z</time>
      </trkpt>
      <trkpt lat="45.69719" lon="6.54143">
        <ele>1641</ele>
        <time>2014-03-17T11:04:13Z</time>
      </trkpt>
      <trkpt lat="45.69719" lon="6.54136">
        <ele>1642</ele>
        <time>2014-03-17T11:04:30Z</time>
      </trkpt>
      <trkpt lat="45.69719" lon="6.54129">
        <ele>1644</ele>
        <time>2014-03-17T11:04:41Z</time>
      </trkpt>
      <trkpt lat="45.69718" lon="6.54122">
        <ele>1645</ele>
        <time>2014-03-17T11:04:53Z</time>
      </trkpt>
      <trkpt lat="45.69717" lon="6.54116">
        <ele>1647</ele>
        <time>2014-03-17T11:05:05Z</time>
      </trkpt>
      <trkpt lat="45.69716" lon="6.54109">
        <ele>1649</ele>
        <time>2014-03-17T11:05:20Z</time>
      </trkpt>
      <trkpt lat="45.69712" lon="6.54103">
        <ele>1650</ele>
        <time>2014-03-17T11:05:36Z</time>
      </trkpt>
      <trkpt lat="45.69707" lon="6.54096">
        <ele>1651</ele>
        <time>2014-03-17T11:05:52Z</time>
      </trkpt>
      <trkpt lat="45.69704" lon="6.5409">
        <ele>1653</ele>
        <time>2014-03-17T11:06:09Z</time>
      </trkpt>
      <trkpt lat="45.69704" lon="6.54087">
        <ele>1657</ele>
        <time>2014-03-17T11:06:32Z</time>
      </trkpt>
      <trkpt lat="45.69707" lon="6.54085">
        <ele>1657</ele>
        <time>2014-03-17T11:06:52Z</time>
      </trkpt>
      <trkpt lat="45.69708" lon="6.54079">
        <ele>1657</ele>
        <time>2014-03-17T11:07:10Z</time>
      </trkpt>
      <trkpt lat="45.69709" lon="6.54072">
        <ele>1657</ele>
        <time>2014-03-17T11:07:24Z</time>
      </trkpt>
      <trkpt lat="45.6971" lon="6.54065">
        <ele>1657</ele>
        <time>2014-03-17T11:07:33Z</time>
      </trkpt>
      <trkpt lat="45.69711" lon="6.54061">
        <ele>1659</ele>
        <time>2014-03-17T11:09:06Z</time>
      </trkpt>
      <trkpt lat="45.6971" lon="6.54051">
        <ele>1659</ele>
        <time>2014-03-17T11:09:22Z</time>
      </trkpt>
      <trkpt lat="45.69711" lon="6.54045">
        <ele>1659</ele>
        <time>2014-03-17T11:09:30Z</time>
      </trkpt>
      <trkpt lat="45.69715" lon="6.54039">
        <ele>1659</ele>
        <time>2014-03-17T11:09:40Z</time>
      </trkpt>
      <trkpt lat="45.6972" lon="6.54038">
        <ele>1659</ele>
        <time>2014-03-17T11:09:48Z</time>
      </trkpt>
      <trkpt lat="45.69725" lon="6.54038">
        <ele>1660</ele>
        <time>2014-03-17T11:09:57Z</time>
      </trkpt>
      <trkpt lat="45.69731" lon="6.5404">
        <ele>1662</ele>
        <time>2014-03-17T11:10:11Z</time>
      </trkpt>
      <trkpt lat="45.69736" lon="6.54041">
        <ele>1663</ele>
        <time>2014-03-17T11:10:23Z</time>
      </trkpt>
      <trkpt lat="45.69741" lon="6.54043">
        <ele>1665</ele>
        <time>2014-03-17T11:10:35Z</time>
      </trkpt>
      <trkpt lat="45.69746" lon="6.54044">
        <ele>1666</ele>
        <time>2014-03-17T11:10:46Z</time>
      </trkpt>
      <trkpt lat="45.69751" lon="6.54046">
        <ele>1669</ele>
        <time>2014-03-17T11:11:00Z</time>
      </trkpt>
      <trkpt lat="45.69756" lon="6.54049">
        <ele>1671</ele>
        <time>2014-03-17T11:11:12Z</time>
      </trkpt>
      <trkpt lat="45.69762" lon="6.54051">
        <ele>1671</ele>
        <time>2014-03-17T11:11:24Z</time>
      </trkpt>
      <trkpt lat="45.69764" lon="6.54045">
        <ele>1672</ele>
        <time>2014-03-17T11:11:34Z</time>
      </trkpt>
      <trkpt lat="45.6977" lon="6.54041">
        <ele>1672</ele>
        <time>2014-03-17T11:11:43Z</time>
      </trkpt>
      <trkpt lat="45.69775" lon="6.54038">
        <ele>1672</ele>
        <time>2014-03-17T11:11:51Z</time>
      </trkpt>
      <trkpt lat="45.69782" lon="6.54035">
        <ele>1672</ele>
        <time>2014-03-17T11:11:59Z</time>
      </trkpt>
      <trkpt lat="45.69788" lon="6.54032">
        <ele>1672</ele>
        <time>2014-03-17T11:12:07Z</time>
      </trkpt>
      <trkpt lat="45.69795" lon="6.5403">
        <ele>1673</ele>
        <time>2014-03-17T11:12:15Z</time>
      </trkpt>
      <trkpt lat="45.698" lon="6.54028">
        <ele>1673</ele>
        <time>2014-03-17T11:12:23Z</time>
      </trkpt>
      <trkpt lat="45.69805" lon="6.54024">
        <ele>1674</ele>
        <time>2014-03-17T11:12:33Z</time>
      </trkpt>
      <trkpt lat="45.6981" lon="6.5402">
        <ele>1676</ele>
        <time>2014-03-17T11:12:45Z</time>
      </trkpt>
      <trkpt lat="45.69815" lon="6.54016">
        <ele>1677</ele>
        <time>2014-03-17T11:12:59Z</time>
      </trkpt>
      <trkpt lat="45.6982" lon="6.54015">
        <ele>1679</ele>
        <time>2014-03-17T11:13:14Z</time>
      </trkpt>
      <trkpt lat="45.69826" lon="6.54014">
        <ele>1680</ele>
        <time>2014-03-17T11:13:27Z</time>
      </trkpt>
      <trkpt lat="45.69831" lon="6.5401">
        <ele>1680</ele>
        <time>2014-03-17T11:13:40Z</time>
      </trkpt>
      <trkpt lat="45.69837" lon="6.54007">
        <ele>1681</ele>
        <time>2014-03-17T11:13:53Z</time>
      </trkpt>
      <trkpt lat="45.69842" lon="6.54002">
        <ele>1682</ele>
        <time>2014-03-17T11:14:08Z</time>
      </trkpt>
      <trkpt lat="45.69846" lon="6.53996">
        <ele>1684</ele>
        <time>2014-03-17T11:14:25Z</time>
      </trkpt>
      <trkpt lat="45.69851" lon="6.53991">
        <ele>1686</ele>
        <time>2014-03-17T11:14:42Z</time>
      </trkpt>
      <trkpt lat="45.69856" lon="6.53986">
        <ele>1687</ele>
        <time>2014-03-17T11:15:02Z</time>
      </trkpt>
      <trkpt lat="45.69859" lon="6.5398">
        <ele>1689</ele>
        <time>2014-03-17T11:15:20Z</time>
      </trkpt>
      <trkpt lat="45.6986" lon="6.53973">
        <ele>1690</ele>
        <time>2014-03-17T11:15:32Z</time>
      </trkpt>
      <trkpt lat="45.6986" lon="6.53966">
        <ele>1692</ele>
        <time>2014-03-17T11:15:47Z</time>
      </trkpt>
      <trkpt lat="45.6986" lon="6.53959">
        <ele>1693</ele>
        <time>2014-03-17T11:16:06Z</time>
      </trkpt>
      <trkpt lat="45.6986" lon="6.53953">
        <ele>1694</ele>
        <time>2014-03-17T11:16:15Z</time>
      </trkpt>
      <trkpt lat="45.6986" lon="6.53945">
        <ele>1695</ele>
        <time>2014-03-17T11:16:26Z</time>
      </trkpt>
      <trkpt lat="45.69863" lon="6.5394">
        <ele>1699</ele>
        <time>2014-03-17T11:17:02Z</time>
      </trkpt>
      <trkpt lat="45.69865" lon="6.53932">
        <ele>1699</ele>
        <time>2014-03-17T11:17:19Z</time>
      </trkpt>
      <trkpt lat="45.69866" lon="6.53922">
        <ele>1699</ele>
        <time>2014-03-17T11:17:27Z</time>
      </trkpt>
      <trkpt lat="45.69865" lon="6.53912">
        <ele>1700</ele>
        <time>2014-03-17T11:17:39Z</time>
      </trkpt>
      <trkpt lat="45.69863" lon="6.53902">
        <ele>1700</ele>
        <time>2014-03-17T11:17:47Z</time>
      </trkpt>
      <trkpt lat="45.6986" lon="6.53894">
        <ele>1700</ele>
        <time>2014-03-17T11:18:00Z</time>
      </trkpt>
      <trkpt lat="45.69857" lon="6.53885">
        <ele>1700</ele>
        <time>2014-03-17T11:18:08Z</time>
      </trkpt>
      <trkpt lat="45.69857" lon="6.53876">
        <ele>1700</ele>
        <time>2014-03-17T11:18:16Z</time>
      </trkpt>
      <trkpt lat="45.69857" lon="6.53867">
        <ele>1701</ele>
        <time>2014-03-17T11:18:40Z</time>
      </trkpt>
      <trkpt lat="45.69856" lon="6.53859">
        <ele>1703</ele>
        <time>2014-03-17T11:18:49Z</time>
      </trkpt>
      <trkpt lat="45.69856" lon="6.53851">
        <ele>1703</ele>
        <time>2014-03-17T11:18:54Z</time>
      </trkpt>
      <trkpt lat="45.69858" lon="6.53842">
        <ele>1703</ele>
        <time>2014-03-17T11:19:01Z</time>
      </trkpt>
      <trkpt lat="45.69862" lon="6.53833">
        <ele>1703</ele>
        <time>2014-03-17T11:19:09Z</time>
      </trkpt>
      <trkpt lat="45.69868" lon="6.53827">
        <ele>1703</ele>
        <time>2014-03-17T11:19:17Z</time>
      </trkpt>
      <trkpt lat="45.69873" lon="6.53821">
        <ele>1703</ele>
        <time>2014-03-17T11:19:25Z</time>
      </trkpt>
      <trkpt lat="45.69878" lon="6.53815">
        <ele>1703</ele>
        <time>2014-03-17T11:19:33Z</time>
      </trkpt>
      <trkpt lat="45.69882" lon="6.53808">
        <ele>1702</ele>
        <time>2014-03-17T11:19:41Z</time>
      </trkpt>
      <trkpt lat="45.69886" lon="6.538">
        <ele>1702</ele>
        <time>2014-03-17T11:19:49Z</time>
      </trkpt>
      <trkpt lat="45.69891" lon="6.53792">
        <ele>1702</ele>
        <time>2014-03-17T11:19:56Z</time>
      </trkpt>
      <trkpt lat="45.69896" lon="6.53785">
        <ele>1703</ele>
        <time>2014-03-17T11:20:04Z</time>
      </trkpt>
      <trkpt lat="45.69902" lon="6.53779">
        <ele>1705</ele>
        <time>2014-03-17T11:20:14Z</time>
      </trkpt>
      <trkpt lat="45.69907" lon="6.53771">
        <ele>1705</ele>
        <time>2014-03-17T11:20:25Z</time>
      </trkpt>
      <trkpt lat="45.69908" lon="6.53763">
        <ele>1707</ele>
        <time>2014-03-17T11:20:33Z</time>
      </trkpt>
      <trkpt lat="45.6991" lon="6.53756">
        <ele>1707</ele>
        <time>2014-03-17T11:20:41Z</time>
      </trkpt>
      <trkpt lat="45.69911" lon="6.53748">
        <ele>1708</ele>
        <time>2014-03-17T11:20:46Z</time>
      </trkpt>
      <trkpt lat="45.69916" lon="6.53746">
        <ele>1710</ele>
        <time>2014-03-17T11:20:58Z</time>
      </trkpt>
      <trkpt lat="45.69922" lon="6.53745">
        <ele>1710</ele>
        <time>2014-03-17T11:21:05Z</time>
      </trkpt>
      <trkpt lat="45.69928" lon="6.53743">
        <ele>1710</ele>
        <time>2014-03-17T11:21:13Z</time>
      </trkpt>
      <trkpt lat="45.69933" lon="6.5374">
        <ele>1710</ele>
        <time>2014-03-17T11:21:22Z</time>
      </trkpt>
      <trkpt lat="45.69939" lon="6.53739">
        <ele>1710</ele>
        <time>2014-03-17T11:21:31Z</time>
      </trkpt>
      <trkpt lat="45.69944" lon="6.53735">
        <ele>1711</ele>
        <time>2014-03-17T11:21:44Z</time>
      </trkpt>
      <trkpt lat="45.6995" lon="6.53731">
        <ele>1711</ele>
        <time>2014-03-17T11:21:55Z</time>
      </trkpt>
      <trkpt lat="45.69955" lon="6.53727">
        <ele>1712</ele>
        <time>2014-03-17T11:22:02Z</time>
      </trkpt>
      <trkpt lat="45.6996" lon="6.53725">
        <ele>1713</ele>
        <time>2014-03-17T11:22:13Z</time>
      </trkpt>
      <trkpt lat="45.69962" lon="6.53718">
        <ele>1713</ele>
        <time>2014-03-17T11:22:21Z</time>
      </trkpt>
      <trkpt lat="45.69968" lon="6.53715">
        <ele>1713</ele>
        <time>2014-03-17T11:22:28Z</time>
      </trkpt>
      <trkpt lat="45.69974" lon="6.53712">
        <ele>1713</ele>
        <time>2014-03-17T11:22:41Z</time>
      </trkpt>
      <trkpt lat="45.69978" lon="6.53704">
        <ele>1711</ele>
        <time>2014-03-17T11:22:52Z</time>
      </trkpt>
      <trkpt lat="45.69984" lon="6.53699">
        <ele>1708</ele>
        <time>2014-03-17T11:23:00Z</time>
      </trkpt>
      <trkpt lat="45.69989" lon="6.53695">
        <ele>1704</ele>
        <time>2014-03-17T11:23:08Z</time>
      </trkpt>
      <trkpt lat="45.69992" lon="6.53689">
        <ele>1703</ele>
        <time>2014-03-17T11:23:26Z</time>
      </trkpt>
      <trkpt lat="45.69996" lon="6.53686">
        <ele>1702</ele>
        <time>2014-03-17T11:23:34Z</time>
      </trkpt>
      <trkpt lat="45.69998" lon="6.53683">
        <ele>1702</ele>
        <time>2014-03-17T11:24:27Z</time>
      </trkpt>
      <trkpt lat="45.69999" lon="6.53675">
        <ele>1702</ele>
        <time>2014-03-17T11:24:36Z</time>
      </trkpt>
      <trkpt lat="45.69996" lon="6.53668">
        <ele>1702</ele>
        <time>2014-03-17T11:24:44Z</time>
      </trkpt>
      <trkpt lat="45.69992" lon="6.53657">
        <ele>1702</ele>
        <time>2014-03-17T11:24:52Z</time>
      </trkpt>
      <trkpt lat="45.69987" lon="6.5365">
        <ele>1705</ele>
        <time>2014-03-17T11:24:59Z</time>
      </trkpt>
      <trkpt lat="45.69981" lon="6.53645">
        <ele>1705</ele>
        <time>2014-03-17T11:25:07Z</time>
      </trkpt>
      <trkpt lat="45.69974" lon="6.5364">
        <ele>1705</ele>
        <time>2014-03-17T11:25:15Z</time>
      </trkpt>
      <trkpt lat="45.69968" lon="6.53633">
        <ele>1705</ele>
        <time>2014-03-17T11:25:23Z</time>
      </trkpt>
      <trkpt lat="45.69963" lon="6.53628">
        <ele>1705</ele>
        <time>2014-03-17T11:25:31Z</time>
      </trkpt>
      <trkpt lat="45.69957" lon="6.53625">
        <ele>1705</ele>
        <time>2014-03-17T11:25:39Z</time>
      </trkpt>
      <trkpt lat="45.69955" lon="6.53623">
        <ele>1705</ele>
        <time>2014-03-17T11:25:48Z</time>
      </trkpt>
      <trkpt lat="45.69954" lon="6.53624">
        <ele>1715</ele>
        <time>2014-03-17T11:26:05Z</time>
      </trkpt>
      <trkpt lat="45.69952" lon="6.53633">
        <ele>1715</ele>
        <time>2014-03-17T11:26:13Z</time>
      </trkpt>
      <trkpt lat="45.69951" lon="6.5364">
        <ele>1715</ele>
        <time>2014-03-17T11:26:19Z</time>
      </trkpt>
      <trkpt lat="45.69946" lon="6.5365">
        <ele>1715</ele>
        <time>2014-03-17T11:26:27Z</time>
      </trkpt>
      <trkpt lat="45.69942" lon="6.5366">
        <ele>1712</ele>
        <time>2014-03-17T11:26:35Z</time>
      </trkpt>
      <trkpt lat="45.69938" lon="6.53667">
        <ele>1710</ele>
        <time>2014-03-17T11:26:44Z</time>
      </trkpt>
      <trkpt lat="45.69932" lon="6.53667">
        <ele>1710</ele>
        <time>2014-03-17T11:26:53Z</time>
      </trkpt>
      <trkpt lat="45.69928" lon="6.53662">
        <ele>1710</ele>
        <time>2014-03-17T11:27:02Z</time>
      </trkpt>
      <trkpt lat="45.69928" lon="6.53653">
        <ele>1710</ele>
        <time>2014-03-17T11:27:09Z</time>
      </trkpt>
      <trkpt lat="45.69931" lon="6.53645">
        <ele>1711</ele>
        <time>2014-03-17T11:27:16Z</time>
      </trkpt>
      <trkpt lat="45.69934" lon="6.53635">
        <ele>1713</ele>
        <time>2014-03-17T11:27:24Z</time>
      </trkpt>
      <trkpt lat="45.69936" lon="6.53627">
        <ele>1713</ele>
        <time>2014-03-17T11:27:31Z</time>
      </trkpt>
      <trkpt lat="45.69941" lon="6.5362">
        <ele>1713</ele>
        <time>2014-03-17T11:27:41Z</time>
      </trkpt>
      <trkpt lat="45.69946" lon="6.53613">
        <ele>1713</ele>
        <time>2014-03-17T11:27:49Z</time>
      </trkpt>
      <trkpt lat="45.69948" lon="6.53605">
        <ele>1713</ele>
        <time>2014-03-17T11:27:57Z</time>
      </trkpt>
      <trkpt lat="45.69951" lon="6.53598">
        <ele>1709</ele>
        <time>2014-03-17T11:28:07Z</time>
      </trkpt>
      <trkpt lat="45.69952" lon="6.53591">
        <ele>1708</ele>
        <time>2014-03-17T11:28:15Z</time>
      </trkpt>
      <trkpt lat="45.69952" lon="6.53582">
        <ele>1706</ele>
        <time>2014-03-17T11:28:25Z</time>
      </trkpt>
      <trkpt lat="45.69953" lon="6.53571">
        <ele>1706</ele>
        <time>2014-03-17T11:28:33Z</time>
      </trkpt>
      <trkpt lat="45.69952" lon="6.5356">
        <ele>1712</ele>
        <time>2014-03-17T11:28:41Z</time>
      </trkpt>
      <trkpt lat="45.69953" lon="6.53551">
        <ele>1715</ele>
        <time>2014-03-17T11:28:52Z</time>
      </trkpt>
      <trkpt lat="45.69957" lon="6.53544">
        <ele>1715</ele>
        <time>2014-03-17T11:29:01Z</time>
      </trkpt>
      <trkpt lat="45.69962" lon="6.53537">
        <ele>1715</ele>
        <time>2014-03-17T11:29:09Z</time>
      </trkpt>
      <trkpt lat="45.69967" lon="6.53531">
        <ele>1720</ele>
        <time>2014-03-17T11:29:24Z</time>
      </trkpt>
      <trkpt lat="45.69966" lon="6.53528">
        <ele>1725</ele>
        <time>2014-03-17T11:29:45Z</time>
      </trkpt>
      <trkpt lat="45.69959" lon="6.53535">
        <ele>1725</ele>
        <time>2014-03-17T11:29:54Z</time>
      </trkpt>
      <trkpt lat="45.69955" lon="6.53544">
        <ele>1725</ele>
        <time>2014-03-17T11:30:01Z</time>
      </trkpt>
      <trkpt lat="45.69952" lon="6.53553">
        <ele>1724</ele>
        <time>2014-03-17T11:30:07Z</time>
      </trkpt>
      <trkpt lat="45.6995" lon="6.53561">
        <ele>1722</ele>
        <time>2014-03-17T11:30:13Z</time>
      </trkpt>
      <trkpt lat="45.6995" lon="6.53569">
        <ele>1718</ele>
        <time>2014-03-17T11:30:22Z</time>
      </trkpt>
      <trkpt lat="45.69951" lon="6.53577">
        <ele>1718</ele>
        <time>2014-03-17T11:30:29Z</time>
      </trkpt>
      <trkpt lat="45.69955" lon="6.53582">
        <ele>1718</ele>
        <time>2014-03-17T11:30:36Z</time>
      </trkpt>
      <trkpt lat="45.69954" lon="6.5359">
        <ele>1723</ele>
        <time>2014-03-17T11:30:45Z</time>
      </trkpt>
      <trkpt lat="45.69951" lon="6.53598">
        <ele>1723</ele>
        <time>2014-03-17T11:30:53Z</time>
      </trkpt>
      <trkpt lat="45.69948" lon="6.53606">
        <ele>1723</ele>
        <time>2014-03-17T11:31:01Z</time>
      </trkpt>
      <trkpt lat="45.69945" lon="6.53616">
        <ele>1723</ele>
        <time>2014-03-17T11:31:09Z</time>
      </trkpt>
      <trkpt lat="45.69942" lon="6.53623">
        <ele>1722</ele>
        <time>2014-03-17T11:31:17Z</time>
      </trkpt>
      <trkpt lat="45.69937" lon="6.53629">
        <ele>1719</ele>
        <time>2014-03-17T11:31:31Z</time>
      </trkpt>
      <trkpt lat="45.69932" lon="6.53628">
        <ele>1716</ele>
        <time>2014-03-17T11:31:47Z</time>
      </trkpt>
      <trkpt lat="45.69934" lon="6.53633">
        <ele>1716</ele>
        <time>2014-03-17T11:31:55Z</time>
      </trkpt>
      <trkpt lat="45.69931" lon="6.53641">
        <ele>1716</ele>
        <time>2014-03-17T11:32:01Z</time>
      </trkpt>
      <trkpt lat="45.69931" lon="6.5365">
        <ele>1716</ele>
        <time>2014-03-17T11:32:08Z</time>
      </trkpt>
      <trkpt lat="45.69931" lon="6.53658">
        <ele>1716</ele>
        <time>2014-03-17T11:32:13Z</time>
      </trkpt>
      <trkpt lat="45.69929" lon="6.53667">
        <ele>1716</ele>
        <time>2014-03-17T11:32:21Z</time>
      </trkpt>
      <trkpt lat="45.6993" lon="6.53672">
        <ele>1716</ele>
        <time>2014-03-17T11:32:35Z</time>
      </trkpt>
      <trkpt lat="45.69925" lon="6.53679">
        <ele>1717</ele>
        <time>2014-03-17T11:32:46Z</time>
      </trkpt>
      <trkpt lat="45.69926" lon="6.53676">
        <ele>1719</ele>
        <time>2014-03-17T11:33:01Z</time>
      </trkpt>
      <trkpt lat="45.69927" lon="6.53685">
        <ele>1723</ele>
        <time>2014-03-17T11:33:16Z</time>
      </trkpt>
      <trkpt lat="45.69927" lon="6.53699">
        <ele>1724</ele>
        <time>2014-03-17T11:33:29Z</time>
      </trkpt>
      <trkpt lat="45.69927" lon="6.53708">
        <ele>1724</ele>
        <time>2014-03-17T11:33:43Z</time>
      </trkpt>
      <trkpt lat="45.69923" lon="6.5372">
        <ele>1724</ele>
        <time>2014-03-17T11:33:50Z</time>
      </trkpt>
      <trkpt lat="45.6992" lon="6.53732">
        <ele>1721</ele>
        <time>2014-03-17T11:34:00Z</time>
      </trkpt>
      <trkpt lat="45.69915" lon="6.53743">
        <ele>1719</ele>
        <time>2014-03-17T11:34:11Z</time>
      </trkpt>
      <trkpt lat="45.69912" lon="6.5375">
        <ele>1718</ele>
        <time>2014-03-17T11:34:55Z</time>
      </trkpt>
      <trkpt lat="45.69915" lon="6.53747">
        <ele>1718</ele>
        <time>2014-03-17T11:35:06Z</time>
      </trkpt>
      <trkpt lat="45.69913" lon="6.53743">
        <ele>1712</ele>
        <time>2014-03-17T11:36:11Z</time>
      </trkpt>
      <trkpt lat="45.6992" lon="6.53748">
        <ele>1708</ele>
        <time>2014-03-17T11:36:49Z</time>
      </trkpt>
      <trkpt lat="45.69926" lon="6.53749">
        <ele>1707</ele>
        <time>2014-03-17T11:37:01Z</time>
      </trkpt>
      <trkpt lat="45.69931" lon="6.53747">
        <ele>1706</ele>
        <time>2014-03-17T11:37:09Z</time>
      </trkpt>
      <trkpt lat="45.69938" lon="6.53744">
        <ele>1706</ele>
        <time>2014-03-17T11:37:19Z</time>
      </trkpt>
      <trkpt lat="45.69943" lon="6.53738">
        <ele>1706</ele>
        <time>2014-03-17T11:37:30Z</time>
      </trkpt>
      <trkpt lat="45.69948" lon="6.53733">
        <ele>1706</ele>
        <time>2014-03-17T11:37:39Z</time>
      </trkpt>
      <trkpt lat="45.69954" lon="6.53731">
        <ele>1706</ele>
        <time>2014-03-17T11:37:47Z</time>
      </trkpt>
      <trkpt lat="45.69958" lon="6.53726">
        <ele>1706</ele>
        <time>2014-03-17T11:37:56Z</time>
      </trkpt>
      <trkpt lat="45.69964" lon="6.5372">
        <ele>1706</ele>
        <time>2014-03-17T11:38:07Z</time>
      </trkpt>
      <trkpt lat="45.6997" lon="6.53718">
        <ele>1711</ele>
        <time>2014-03-17T11:38:14Z</time>
      </trkpt>
      <trkpt lat="45.69975" lon="6.53712">
        <ele>1712</ele>
        <time>2014-03-17T11:38:21Z</time>
      </trkpt>
      <trkpt lat="45.69979" lon="6.53702">
        <ele>1712</ele>
        <time>2014-03-17T11:38:29Z</time>
      </trkpt>
      <trkpt lat="45.69981" lon="6.53695">
        <ele>1712</ele>
        <time>2014-03-17T11:38:35Z</time>
      </trkpt>
      <trkpt lat="45.69989" lon="6.53689">
        <ele>1712</ele>
        <time>2014-03-17T11:38:43Z</time>
      </trkpt>
      <trkpt lat="45.69994" lon="6.53682">
        <ele>1712</ele>
        <time>2014-03-17T11:38:53Z</time>
      </trkpt>
      <trkpt lat="45.69995" lon="6.53675">
        <ele>1710</ele>
        <time>2014-03-17T11:39:01Z</time>
      </trkpt>
      <trkpt lat="45.69994" lon="6.53668">
        <ele>1708</ele>
        <time>2014-03-17T11:39:10Z</time>
      </trkpt>
      <trkpt lat="45.69989" lon="6.53661">
        <ele>1706</ele>
        <time>2014-03-17T11:39:19Z</time>
      </trkpt>
      <trkpt lat="45.69983" lon="6.53655">
        <ele>1706</ele>
        <time>2014-03-17T11:39:26Z</time>
      </trkpt>
      <trkpt lat="45.69978" lon="6.53647">
        <ele>1706</ele>
        <time>2014-03-17T11:39:34Z</time>
      </trkpt>
      <trkpt lat="45.69971" lon="6.53639">
        <ele>1706</ele>
        <time>2014-03-17T11:39:42Z</time>
      </trkpt>
      <trkpt lat="45.69965" lon="6.53635">
        <ele>1706</ele>
        <time>2014-03-17T11:39:50Z</time>
      </trkpt>
      <trkpt lat="45.69958" lon="6.53631">
        <ele>1706</ele>
        <time>2014-03-17T11:39:58Z</time>
      </trkpt>
      <trkpt lat="45.69955" lon="6.53627">
        <ele>1707</ele>
        <time>2014-03-17T11:40:15Z</time>
      </trkpt>
      <trkpt lat="45.69958" lon="6.53617">
        <ele>1707</ele>
        <time>2014-03-17T11:40:23Z</time>
      </trkpt>
      <trkpt lat="45.69963" lon="6.53609">
        <ele>1707</ele>
        <time>2014-03-17T11:40:30Z</time>
      </trkpt>
      <trkpt lat="45.69969" lon="6.536">
        <ele>1707</ele>
        <time>2014-03-17T11:40:38Z</time>
      </trkpt>
      <trkpt lat="45.69973" lon="6.53591">
        <ele>1711</ele>
        <time>2014-03-17T11:40:44Z</time>
      </trkpt>
      <trkpt lat="45.69976" lon="6.53583">
        <ele>1712</ele>
        <time>2014-03-17T11:40:51Z</time>
      </trkpt>
      <trkpt lat="45.69978" lon="6.53576">
        <ele>1712</ele>
        <time>2014-03-17T11:40:59Z</time>
      </trkpt>
      <trkpt lat="45.69981" lon="6.53569">
        <ele>1711</ele>
        <time>2014-03-17T11:41:07Z</time>
      </trkpt>
      <trkpt lat="45.69985" lon="6.5356">
        <ele>1710</ele>
        <time>2014-03-17T11:41:15Z</time>
      </trkpt>
      <trkpt lat="45.69989" lon="6.53552">
        <ele>1710</ele>
        <time>2014-03-17T11:41:22Z</time>
      </trkpt>
      <trkpt lat="45.6999" lon="6.53543">
        <ele>1710</ele>
        <time>2014-03-17T11:41:29Z</time>
      </trkpt>
      <trkpt lat="45.69994" lon="6.53536">
        <ele>1710</ele>
        <time>2014-03-17T11:41:36Z</time>
      </trkpt>
      <trkpt lat="45.69997" lon="6.53529">
        <ele>1710</ele>
        <time>2014-03-17T11:41:44Z</time>
      </trkpt>
      <trkpt lat="45.70001" lon="6.53521">
        <ele>1710</ele>
        <time>2014-03-17T11:41:52Z</time>
      </trkpt>
      <trkpt lat="45.70002" lon="6.53512">
        <ele>1709</ele>
        <time>2014-03-17T11:42:00Z</time>
      </trkpt>
      <trkpt lat="45.70003" lon="6.53505">
        <ele>1709</ele>
        <time>2014-03-17T11:42:06Z</time>
      </trkpt>
      <trkpt lat="45.70002" lon="6.53502">
        <ele>1709</ele>
        <time>2014-03-17T11:42:45Z</time>
      </trkpt>
      <trkpt lat="45.70001" lon="6.53501">
        <ele>1707</ele>
        <time>2014-03-17T11:43:12Z</time>
      </trkpt>
      <trkpt lat="45.70002" lon="6.535">
        <ele>1707</ele>
        <time>2014-03-17T11:43:40Z</time>
      </trkpt>
      <trkpt lat="45.70002" lon="6.53503">
        <ele>1707</ele>
        <time>2014-03-17T11:44:33Z</time>
      </trkpt>
      <trkpt lat="45.70004" lon="6.53495">
        <ele>1707</ele>
        <time>2014-03-17T11:44:52Z</time>
      </trkpt>
      <trkpt lat="45.70005" lon="6.53486">
        <ele>1707</ele>
        <time>2014-03-17T11:44:59Z</time>
      </trkpt>
      <trkpt lat="45.70005" lon="6.53476">
        <ele>1707</ele>
        <time>2014-03-17T11:45:06Z</time>
      </trkpt>
      <trkpt lat="45.70006" lon="6.53466">
        <ele>1706</ele>
        <time>2014-03-17T11:45:14Z</time>
      </trkpt>
      <trkpt lat="45.70007" lon="6.53458">
        <ele>1705</ele>
        <time>2014-03-17T11:45:20Z</time>
      </trkpt>
      <trkpt lat="45.70008" lon="6.53451">
        <ele>1704</ele>
        <time>2014-03-17T11:45:25Z</time>
      </trkpt>
      <trkpt lat="45.70007" lon="6.53442">
        <ele>1704</ele>
        <time>2014-03-17T11:45:32Z</time>
      </trkpt>
      <trkpt lat="45.70006" lon="6.53434">
        <ele>1704</ele>
        <time>2014-03-17T11:45:56Z</time>
      </trkpt>
      <trkpt lat="45.70004" lon="6.53432">
        <ele>1704</ele>
        <time>2014-03-17T11:46:24Z</time>
      </trkpt>
      <trkpt lat="45.70006" lon="6.53436">
        <ele>1702</ele>
        <time>2014-03-17T11:47:23Z</time>
      </trkpt>
      <trkpt lat="45.70008" lon="6.53435">
        <ele>1708</ele>
        <time>2014-03-17T11:48:36Z</time>
      </trkpt>
      <trkpt lat="45.7001" lon="6.53443">
        <ele>1708</ele>
        <time>2014-03-17T11:48:43Z</time>
      </trkpt>
      <trkpt lat="45.70008" lon="6.53453">
        <ele>1708</ele>
        <time>2014-03-17T11:48:51Z</time>
      </trkpt>
      <trkpt lat="45.70007" lon="6.53462">
        <ele>1708</ele>
        <time>2014-03-17T11:48:59Z</time>
      </trkpt>
      <trkpt lat="45.70005" lon="6.53472">
        <ele>1708</ele>
        <time>2014-03-17T11:49:07Z</time>
      </trkpt>
      <trkpt lat="45.70004" lon="6.53481">
        <ele>1707</ele>
        <time>2014-03-17T11:49:15Z</time>
      </trkpt>
      <trkpt lat="45.70004" lon="6.5349">
        <ele>1707</ele>
        <time>2014-03-17T11:49:23Z</time>
      </trkpt>
      <trkpt lat="45.70003" lon="6.53499">
        <ele>1707</ele>
        <time>2014-03-17T11:49:31Z</time>
      </trkpt>
      <trkpt lat="45.70002" lon="6.53508">
        <ele>1707</ele>
        <time>2014-03-17T11:49:39Z</time>
      </trkpt>
      <trkpt lat="45.7" lon="6.53516">
        <ele>1707</ele>
        <time>2014-03-17T11:49:47Z</time>
      </trkpt>
      <trkpt lat="45.69997" lon="6.53524">
        <ele>1706</ele>
        <time>2014-03-17T11:49:56Z</time>
      </trkpt>
      <trkpt lat="45.69993" lon="6.53532">
        <ele>1704</ele>
        <time>2014-03-17T11:50:04Z</time>
      </trkpt>
      <trkpt lat="45.69989" lon="6.53539">
        <ele>1702</ele>
        <time>2014-03-17T11:50:12Z</time>
      </trkpt>
      <trkpt lat="45.69984" lon="6.53548">
        <ele>1701</ele>
        <time>2014-03-17T11:50:22Z</time>
      </trkpt>
      <trkpt lat="45.69981" lon="6.53555">
        <ele>1700</ele>
        <time>2014-03-17T11:50:30Z</time>
      </trkpt>
      <trkpt lat="45.69978" lon="6.53563">
        <ele>1700</ele>
        <time>2014-03-17T11:50:38Z</time>
      </trkpt>
      <trkpt lat="45.69975" lon="6.5357">
        <ele>1699</ele>
        <time>2014-03-17T11:50:45Z</time>
      </trkpt>
      <trkpt lat="45.69976" lon="6.53577">
        <ele>1698</ele>
        <time>2014-03-17T11:51:06Z</time>
      </trkpt>
      <trkpt lat="45.69975" lon="6.53584">
        <ele>1703</ele>
        <time>2014-03-17T11:51:16Z</time>
      </trkpt>
      <trkpt lat="45.69974" lon="6.53593">
        <ele>1710</ele>
        <time>2014-03-17T11:51:23Z</time>
      </trkpt>
      <trkpt lat="45.6997" lon="6.53601">
        <ele>1710</ele>
        <time>2014-03-17T11:51:34Z</time>
      </trkpt>
      <trkpt lat="45.69964" lon="6.53608">
        <ele>1708</ele>
        <time>2014-03-17T11:51:44Z</time>
      </trkpt>
      <trkpt lat="45.6996" lon="6.53616">
        <ele>1706</ele>
        <time>2014-03-17T11:51:52Z</time>
      </trkpt>
      <trkpt lat="45.69955" lon="6.53625">
        <ele>1704</ele>
        <time>2014-03-17T11:52:00Z</time>
      </trkpt>
      <trkpt lat="45.69952" lon="6.53633">
        <ele>1702</ele>
        <time>2014-03-17T11:52:06Z</time>
      </trkpt>
      <trkpt lat="45.6995" lon="6.53642">
        <ele>1702</ele>
        <time>2014-03-17T11:52:14Z</time>
      </trkpt>
      <trkpt lat="45.69947" lon="6.5365">
        <ele>1702</ele>
        <time>2014-03-17T11:52:20Z</time>
      </trkpt>
      <trkpt lat="45.69942" lon="6.53658">
        <ele>1702</ele>
        <time>2014-03-17T11:52:28Z</time>
      </trkpt>
      <trkpt lat="45.69938" lon="6.53666">
        <ele>1702</ele>
        <time>2014-03-17T11:52:36Z</time>
      </trkpt>
      <trkpt lat="45.69936" lon="6.53674">
        <ele>1707</ele>
        <time>2014-03-17T11:53:06Z</time>
      </trkpt>
      <trkpt lat="45.69932" lon="6.53682">
        <ele>1708</ele>
        <time>2014-03-17T11:53:14Z</time>
      </trkpt>
      <trkpt lat="45.69929" lon="6.53691">
        <ele>1708</ele>
        <time>2014-03-17T11:53:22Z</time>
      </trkpt>
      <trkpt lat="45.69924" lon="6.537">
        <ele>1708</ele>
        <time>2014-03-17T11:53:30Z</time>
      </trkpt>
      <trkpt lat="45.69921" lon="6.53709">
        <ele>1708</ele>
        <time>2014-03-17T11:53:37Z</time>
      </trkpt>
      <trkpt lat="45.69919" lon="6.53718">
        <ele>1708</ele>
        <time>2014-03-17T11:53:44Z</time>
      </trkpt>
      <trkpt lat="45.69918" lon="6.53728">
        <ele>1708</ele>
        <time>2014-03-17T11:53:52Z</time>
      </trkpt>
      <trkpt lat="45.69915" lon="6.53735">
        <ele>1708</ele>
        <time>2014-03-17T11:54:11Z</time>
      </trkpt>
      <trkpt lat="45.69912" lon="6.53742">
        <ele>1710</ele>
        <time>2014-03-17T11:54:26Z</time>
      </trkpt>
      <trkpt lat="45.69909" lon="6.53751">
        <ele>1710</ele>
        <time>2014-03-17T11:54:34Z</time>
      </trkpt>
      <trkpt lat="45.69906" lon="6.53755">
        <ele>1710</ele>
        <time>2014-03-17T11:54:50Z</time>
      </trkpt>
      <trkpt lat="45.69902" lon="6.53749">
        <ele>1710</ele>
        <time>2014-03-17T11:55:01Z</time>
      </trkpt>
      <trkpt lat="45.69898" lon="6.53748">
        <ele>1708</ele>
        <time>2014-03-17T11:55:09Z</time>
      </trkpt>
      <trkpt lat="45.69895" lon="6.5375">
        <ele>1708</ele>
        <time>2014-03-17T11:55:24Z</time>
      </trkpt>
      <trkpt lat="45.699" lon="6.53746">
        <ele>1708</ele>
        <time>2014-03-17T11:55:30Z</time>
      </trkpt>
      <trkpt lat="45.69906" lon="6.5375">
        <ele>1708</ele>
        <time>2014-03-17T11:55:36Z</time>
      </trkpt>
      <trkpt lat="45.69909" lon="6.53761">
        <ele>1708</ele>
        <time>2014-03-17T11:55:44Z</time>
      </trkpt>
      <trkpt lat="45.69907" lon="6.53771">
        <ele>1708</ele>
        <time>2014-03-17T11:55:52Z</time>
      </trkpt>
      <trkpt lat="45.69902" lon="6.53778">
        <ele>1707</ele>
        <time>2014-03-17T11:55:59Z</time>
      </trkpt>
      <trkpt lat="45.69896" lon="6.53784">
        <ele>1706</ele>
        <time>2014-03-17T11:56:06Z</time>
      </trkpt>
      <trkpt lat="45.6989" lon="6.53792">
        <ele>1704</ele>
        <time>2014-03-17T11:56:14Z</time>
      </trkpt>
      <trkpt lat="45.69885" lon="6.538">
        <ele>1704</ele>
        <time>2014-03-17T11:56:22Z</time>
      </trkpt>
      <trkpt lat="45.69881" lon="6.53808">
        <ele>1703</ele>
        <time>2014-03-17T11:56:30Z</time>
      </trkpt>
      <trkpt lat="45.69877" lon="6.53815">
        <ele>1703</ele>
        <time>2014-03-17T11:56:39Z</time>
      </trkpt>
      <trkpt lat="45.69872" lon="6.53823">
        <ele>1703</ele>
        <time>2014-03-17T11:56:46Z</time>
      </trkpt>
      <trkpt lat="45.69866" lon="6.5383">
        <ele>1703</ele>
        <time>2014-03-17T11:56:54Z</time>
      </trkpt>
      <trkpt lat="45.69861" lon="6.53837">
        <ele>1702</ele>
        <time>2014-03-17T11:57:03Z</time>
      </trkpt>
      <trkpt lat="45.69858" lon="6.53847">
        <ele>1702</ele>
        <time>2014-03-17T11:57:10Z</time>
      </trkpt>
      <trkpt lat="45.69856" lon="6.53856">
        <ele>1702</ele>
        <time>2014-03-17T11:57:16Z</time>
      </trkpt>
      <trkpt lat="45.69856" lon="6.53865">
        <ele>1702</ele>
        <time>2014-03-17T11:57:24Z</time>
      </trkpt>
      <trkpt lat="45.69857" lon="6.53875">
        <ele>1702</ele>
        <time>2014-03-17T11:57:31Z</time>
      </trkpt>
      <trkpt lat="45.69857" lon="6.53882">
        <ele>1702</ele>
        <time>2014-03-17T11:57:51Z</time>
      </trkpt>
      <trkpt lat="45.69858" lon="6.53893">
        <ele>1702</ele>
        <time>2014-03-17T11:57:59Z</time>
      </trkpt>
      <trkpt lat="45.69858" lon="6.53901">
        <ele>1702</ele>
        <time>2014-03-17T11:58:06Z</time>
      </trkpt>
      <trkpt lat="45.6986" lon="6.53911">
        <ele>1702</ele>
        <time>2014-03-17T11:58:14Z</time>
      </trkpt>
      <trkpt lat="45.69861" lon="6.53918">
        <ele>1702</ele>
        <time>2014-03-17T11:58:19Z</time>
      </trkpt>
      <trkpt lat="45.69862" lon="6.53929">
        <ele>1702</ele>
        <time>2014-03-17T11:58:27Z</time>
      </trkpt>
      <trkpt lat="45.69856" lon="6.53934">
        <ele>1702</ele>
        <time>2014-03-17T11:58:37Z</time>
      </trkpt>
      <trkpt lat="45.69851" lon="6.53941">
        <ele>1702</ele>
        <time>2014-03-17T11:58:58Z</time>
      </trkpt>
      <trkpt lat="45.69847" lon="6.53949">
        <ele>1702</ele>
        <time>2014-03-17T11:59:06Z</time>
      </trkpt>
      <trkpt lat="45.69846" lon="6.53959">
        <ele>1702</ele>
        <time>2014-03-17T11:59:13Z</time>
      </trkpt>
      <trkpt lat="45.69844" lon="6.53968">
        <ele>1702</ele>
        <time>2014-03-17T11:59:22Z</time>
      </trkpt>
      <trkpt lat="45.69843" lon="6.53976">
        <ele>1699</ele>
        <time>2014-03-17T11:59:30Z</time>
      </trkpt>
      <trkpt lat="45.69841" lon="6.53983">
        <ele>1697</ele>
        <time>2014-03-17T11:59:40Z</time>
      </trkpt>
      <trkpt lat="45.69842" lon="6.5399">
        <ele>1694</ele>
        <time>2014-03-17T11:59:49Z</time>
      </trkpt>
      <trkpt lat="45.6984" lon="6.53997">
        <ele>1692</ele>
        <time>2014-03-17T11:59:57Z</time>
      </trkpt>
      <trkpt lat="45.69836" lon="6.54004">
        <ele>1690</ele>
        <time>2014-03-17T12:00:07Z</time>
      </trkpt>
      <trkpt lat="45.69831" lon="6.54012">
        <ele>1689</ele>
        <time>2014-03-17T12:00:14Z</time>
      </trkpt>
      <trkpt lat="45.69825" lon="6.54017">
        <ele>1687</ele>
        <time>2014-03-17T12:00:22Z</time>
      </trkpt>
      <trkpt lat="45.6982" lon="6.54023">
        <ele>1685</ele>
        <time>2014-03-17T12:00:31Z</time>
      </trkpt>
      <trkpt lat="45.69814" lon="6.54028">
        <ele>1684</ele>
        <time>2014-03-17T12:00:38Z</time>
      </trkpt>
      <trkpt lat="45.69807" lon="6.54032">
        <ele>1682</ele>
        <time>2014-03-17T12:00:46Z</time>
      </trkpt>
      <trkpt lat="45.698" lon="6.54035">
        <ele>1681</ele>
        <time>2014-03-17T12:01:12Z</time>
      </trkpt>
      <trkpt lat="45.69793" lon="6.54041">
        <ele>1681</ele>
        <time>2014-03-17T12:01:21Z</time>
      </trkpt>
      <trkpt lat="45.69786" lon="6.54045">
        <ele>1681</ele>
        <time>2014-03-17T12:01:30Z</time>
      </trkpt>
      <trkpt lat="45.6978" lon="6.54047">
        <ele>1681</ele>
        <time>2014-03-17T12:01:42Z</time>
      </trkpt>
      <trkpt lat="45.69774" lon="6.54051">
        <ele>1681</ele>
        <time>2014-03-17T12:01:53Z</time>
      </trkpt>
      <trkpt lat="45.69768" lon="6.54048">
        <ele>1681</ele>
        <time>2014-03-17T12:02:04Z</time>
      </trkpt>
      <trkpt lat="45.69761" lon="6.54045">
        <ele>1680</ele>
        <time>2014-03-17T12:02:11Z</time>
      </trkpt>
      <trkpt lat="45.69756" lon="6.54039">
        <ele>1680</ele>
        <time>2014-03-17T12:02:26Z</time>
      </trkpt>
      <trkpt lat="45.69751" lon="6.54033">
        <ele>1680</ele>
        <time>2014-03-17T12:02:40Z</time>
      </trkpt>
      <trkpt lat="45.69747" lon="6.54026">
        <ele>1680</ele>
        <time>2014-03-17T12:02:52Z</time>
      </trkpt>
      <trkpt lat="45.69745" lon="6.54019">
        <ele>1680</ele>
        <time>2014-03-17T12:03:01Z</time>
      </trkpt>
      <trkpt lat="45.69747" lon="6.54012">
        <ele>1680</ele>
        <time>2014-03-17T12:03:10Z</time>
      </trkpt>
      <trkpt lat="45.69749" lon="6.54006">
        <ele>1683</ele>
        <time>2014-03-17T12:03:20Z</time>
      </trkpt>
      <trkpt lat="45.69751" lon="6.53998">
        <ele>1686</ele>
        <time>2014-03-17T12:03:37Z</time>
      </trkpt>
      <trkpt lat="45.69752" lon="6.53992">
        <ele>1688</ele>
        <time>2014-03-17T12:03:50Z</time>
      </trkpt>
      <trkpt lat="45.69748" lon="6.53986">
        <ele>1689</ele>
        <time>2014-03-17T12:04:01Z</time>
      </trkpt>
      <trkpt lat="45.69748" lon="6.5398">
        <ele>1691</ele>
        <time>2014-03-17T12:04:11Z</time>
      </trkpt>
      <trkpt lat="45.69753" lon="6.53975">
        <ele>1692</ele>
        <time>2014-03-17T12:04:22Z</time>
      </trkpt>
      <trkpt lat="45.69758" lon="6.53971">
        <ele>1692</ele>
        <time>2014-03-17T12:04:34Z</time>
      </trkpt>
      <trkpt lat="45.6976" lon="6.53965">
        <ele>1693</ele>
        <time>2014-03-17T12:04:49Z</time>
      </trkpt>
      <trkpt lat="45.69763" lon="6.5396">
        <ele>1696</ele>
        <time>2014-03-17T12:05:02Z</time>
      </trkpt>
      <trkpt lat="45.69768" lon="6.53958">
        <ele>1697</ele>
        <time>2014-03-17T12:05:12Z</time>
      </trkpt>
      <trkpt lat="45.69763" lon="6.53957">
        <ele>1698</ele>
        <time>2014-03-17T12:05:26Z</time>
      </trkpt>
      <trkpt lat="45.6976" lon="6.53952">
        <ele>1700</ele>
        <time>2014-03-17T12:05:36Z</time>
      </trkpt>
      <trkpt lat="45.69759" lon="6.53945">
        <ele>1700</ele>
        <time>2014-03-17T12:05:46Z</time>
      </trkpt>
      <trkpt lat="45.6976" lon="6.53939">
        <ele>1700</ele>
        <time>2014-03-17T12:05:59Z</time>
      </trkpt>
      <trkpt lat="45.69761" lon="6.53932">
        <ele>1703</ele>
        <time>2014-03-17T12:06:13Z</time>
      </trkpt>
      <trkpt lat="45.69762" lon="6.53924">
        <ele>1704</ele>
        <time>2014-03-17T12:06:25Z</time>
      </trkpt>
      <trkpt lat="45.69759" lon="6.53918">
        <ele>1707</ele>
        <time>2014-03-17T12:06:43Z</time>
      </trkpt>
      <trkpt lat="45.69757" lon="6.53912">
        <ele>1707</ele>
        <time>2014-03-17T12:07:00Z</time>
      </trkpt>
      <trkpt lat="45.69754" lon="6.53909">
        <ele>1709</ele>
        <time>2014-03-17T12:07:19Z</time>
      </trkpt>
      <trkpt lat="45.69753" lon="6.53902">
        <ele>1710</ele>
        <time>2014-03-17T12:07:29Z</time>
      </trkpt>
      <trkpt lat="45.69757" lon="6.53896">
        <ele>1711</ele>
        <time>2014-03-17T12:07:40Z</time>
      </trkpt>
      <trkpt lat="45.69756" lon="6.53889">
        <ele>1712</ele>
        <time>2014-03-17T12:07:51Z</time>
      </trkpt>
      <trkpt lat="45.69753" lon="6.53882">
        <ele>1716</ele>
        <time>2014-03-17T12:08:09Z</time>
      </trkpt>
      <trkpt lat="45.69752" lon="6.53876">
        <ele>1719</ele>
        <time>2014-03-17T12:08:23Z</time>
      </trkpt>
      <trkpt lat="45.69749" lon="6.53869">
        <ele>1720</ele>
        <time>2014-03-17T12:08:35Z</time>
      </trkpt>
      <trkpt lat="45.69746" lon="6.53863">
        <ele>1722</ele>
        <time>2014-03-17T12:08:50Z</time>
      </trkpt>
      <trkpt lat="45.69744" lon="6.53856">
        <ele>1724</ele>
        <time>2014-03-17T12:09:02Z</time>
      </trkpt>
      <trkpt lat="45.69742" lon="6.53849">
        <ele>1725</ele>
        <time>2014-03-17T12:09:11Z</time>
      </trkpt>
      <trkpt lat="45.6974" lon="6.53842">
        <ele>1726</ele>
        <time>2014-03-17T12:09:21Z</time>
      </trkpt>
      <trkpt lat="45.69741" lon="6.53833">
        <ele>1726</ele>
        <time>2014-03-17T12:09:28Z</time>
      </trkpt>
      <trkpt lat="45.69742" lon="6.53825">
        <ele>1726</ele>
        <time>2014-03-17T12:09:37Z</time>
      </trkpt>
      <trkpt lat="45.69743" lon="6.53817">
        <ele>1726</ele>
        <time>2014-03-17T12:09:47Z</time>
      </trkpt>
      <trkpt lat="45.69743" lon="6.53808">
        <ele>1727</ele>
        <time>2014-03-17T12:09:57Z</time>
      </trkpt>
      <trkpt lat="45.69741" lon="6.53799">
        <ele>1728</ele>
        <time>2014-03-17T12:10:05Z</time>
      </trkpt>
      <trkpt lat="45.69741" lon="6.53792">
        <ele>1728</ele>
        <time>2014-03-17T12:10:14Z</time>
      </trkpt>
      <trkpt lat="45.69741" lon="6.53783">
        <ele>1729</ele>
        <time>2014-03-17T12:10:22Z</time>
      </trkpt>
      <trkpt lat="45.69744" lon="6.53774">
        <ele>1731</ele>
        <time>2014-03-17T12:10:30Z</time>
      </trkpt>
      <trkpt lat="45.69743" lon="6.53765">
        <ele>1732</ele>
        <time>2014-03-17T12:10:38Z</time>
      </trkpt>
      <trkpt lat="45.69746" lon="6.53757">
        <ele>1733</ele>
        <time>2014-03-17T12:10:47Z</time>
      </trkpt>
      <trkpt lat="45.69749" lon="6.5375">
        <ele>1733</ele>
        <time>2014-03-17T12:10:54Z</time>
      </trkpt>
      <trkpt lat="45.69753" lon="6.53742">
        <ele>1733</ele>
        <time>2014-03-17T12:11:03Z</time>
      </trkpt>
      <trkpt lat="45.69755" lon="6.53735">
        <ele>1733</ele>
        <time>2014-03-17T12:11:11Z</time>
      </trkpt>
      <trkpt lat="45.69756" lon="6.53726">
        <ele>1733</ele>
        <time>2014-03-17T12:11:18Z</time>
      </trkpt>
      <trkpt lat="45.69753" lon="6.53717">
        <ele>1733</ele>
        <time>2014-03-17T12:11:24Z</time>
      </trkpt>
      <trkpt lat="45.69756" lon="6.53708">
        <ele>1733</ele>
        <time>2014-03-17T12:11:32Z</time>
      </trkpt>
      <trkpt lat="45.69756" lon="6.53699">
        <ele>1733</ele>
        <time>2014-03-17T12:11:40Z</time>
      </trkpt>
      <trkpt lat="45.69757" lon="6.53691">
        <ele>1734</ele>
        <time>2014-03-17T12:11:48Z</time>
      </trkpt>
      <trkpt lat="45.6976" lon="6.53684">
        <ele>1734</ele>
        <time>2014-03-17T12:11:57Z</time>
      </trkpt>
      <trkpt lat="45.69758" lon="6.53676">
        <ele>1734</ele>
        <time>2014-03-17T12:12:04Z</time>
      </trkpt>
      <trkpt lat="45.69761" lon="6.53669">
        <ele>1734</ele>
        <time>2014-03-17T12:12:13Z</time>
      </trkpt>
      <trkpt lat="45.69763" lon="6.53662">
        <ele>1736</ele>
        <time>2014-03-17T12:12:23Z</time>
      </trkpt>
      <trkpt lat="45.69762" lon="6.53652">
        <ele>1737</ele>
        <time>2014-03-17T12:12:33Z</time>
      </trkpt>
      <trkpt lat="45.69762" lon="6.53645">
        <ele>1742</ele>
        <time>2014-03-17T12:12:45Z</time>
      </trkpt>
      <trkpt lat="45.69757" lon="6.53637">
        <ele>1746</ele>
        <time>2014-03-17T12:12:58Z</time>
      </trkpt>
      <trkpt lat="45.69754" lon="6.5363">
        <ele>1747</ele>
        <time>2014-03-17T12:13:06Z</time>
      </trkpt>
      <trkpt lat="45.69753" lon="6.53623">
        <ele>1747</ele>
        <time>2014-03-17T12:13:15Z</time>
      </trkpt>
      <trkpt lat="45.69754" lon="6.53616">
        <ele>1747</ele>
        <time>2014-03-17T12:13:25Z</time>
      </trkpt>
      <trkpt lat="45.69752" lon="6.5361">
        <ele>1748</ele>
        <time>2014-03-17T12:13:33Z</time>
      </trkpt>
      <trkpt lat="45.69751" lon="6.53603">
        <ele>1751</ele>
        <time>2014-03-17T12:13:47Z</time>
      </trkpt>
      <trkpt lat="45.69749" lon="6.53595">
        <ele>1752</ele>
        <time>2014-03-17T12:13:58Z</time>
      </trkpt>
      <trkpt lat="45.69747" lon="6.53588">
        <ele>1752</ele>
        <time>2014-03-17T12:14:07Z</time>
      </trkpt>
      <trkpt lat="45.69748" lon="6.53581">
        <ele>1753</ele>
        <time>2014-03-17T12:14:20Z</time>
      </trkpt>
      <trkpt lat="45.69748" lon="6.53574">
        <ele>1754</ele>
        <time>2014-03-17T12:14:31Z</time>
      </trkpt>
      <trkpt lat="45.69748" lon="6.53567">
        <ele>1757</ele>
        <time>2014-03-17T12:14:41Z</time>
      </trkpt>
      <trkpt lat="45.69748" lon="6.53559">
        <ele>1759</ele>
        <time>2014-03-17T12:14:52Z</time>
      </trkpt>
      <trkpt lat="45.69751" lon="6.53553">
        <ele>1760</ele>
        <time>2014-03-17T12:15:04Z</time>
      </trkpt>
      <trkpt lat="45.69748" lon="6.53546">
        <ele>1762</ele>
        <time>2014-03-17T12:15:16Z</time>
      </trkpt>
      <trkpt lat="45.69741" lon="6.53543">
        <ele>1763</ele>
        <time>2014-03-17T12:15:29Z</time>
      </trkpt>
      <trkpt lat="45.69738" lon="6.53539">
        <ele>1766</ele>
        <time>2014-03-17T12:15:45Z</time>
      </trkpt>
      <trkpt lat="45.69733" lon="6.53536">
        <ele>1767</ele>
        <time>2014-03-17T12:15:59Z</time>
      </trkpt>
      <trkpt lat="45.69727" lon="6.53533">
        <ele>1768</ele>
        <time>2014-03-17T12:16:10Z</time>
      </trkpt>
      <trkpt lat="45.69723" lon="6.53532">
        <ele>1769</ele>
        <time>2014-03-17T12:16:22Z</time>
      </trkpt>
      <trkpt lat="45.69723" lon="6.53526">
        <ele>1769</ele>
        <time>2014-03-17T12:16:32Z</time>
      </trkpt>
      <trkpt lat="45.6972" lon="6.5352">
        <ele>1772</ele>
        <time>2014-03-17T12:16:47Z</time>
      </trkpt>
      <trkpt lat="45.69714" lon="6.5352">
        <ele>1774</ele>
        <time>2014-03-17T12:16:58Z</time>
      </trkpt>
      <trkpt lat="45.69709" lon="6.53517">
        <ele>1774</ele>
        <time>2014-03-17T12:17:07Z</time>
      </trkpt>
      <trkpt lat="45.69704" lon="6.53514">
        <ele>1775</ele>
        <time>2014-03-17T12:17:20Z</time>
      </trkpt>
      <trkpt lat="45.69699" lon="6.53513">
        <ele>1778</ele>
        <time>2014-03-17T12:17:32Z</time>
      </trkpt>
      <trkpt lat="45.69693" lon="6.53511">
        <ele>1780</ele>
        <time>2014-03-17T12:17:45Z</time>
      </trkpt>
      <trkpt lat="45.69688" lon="6.53508">
        <ele>1781</ele>
        <time>2014-03-17T12:17:58Z</time>
      </trkpt>
      <trkpt lat="45.69683" lon="6.53508">
        <ele>1783</ele>
        <time>2014-03-17T12:18:11Z</time>
      </trkpt>
      <trkpt lat="45.69678" lon="6.53508">
        <ele>1784</ele>
        <time>2014-03-17T12:18:23Z</time>
      </trkpt>
      <trkpt lat="45.69673" lon="6.53506">
        <ele>1785</ele>
        <time>2014-03-17T12:18:35Z</time>
      </trkpt>
      <trkpt lat="45.69668" lon="6.53505">
        <ele>1787</ele>
        <time>2014-03-17T12:18:47Z</time>
      </trkpt>
      <trkpt lat="45.69663" lon="6.53504">
        <ele>1791</ele>
        <time>2014-03-17T12:19:03Z</time>
      </trkpt>
      <trkpt lat="45.69658" lon="6.53502">
        <ele>1791</ele>
        <time>2014-03-17T12:19:17Z</time>
      </trkpt>
      <trkpt lat="45.69653" lon="6.53496">
        <ele>1792</ele>
        <time>2014-03-17T12:19:28Z</time>
      </trkpt>
      <trkpt lat="45.69648" lon="6.53491">
        <ele>1795</ele>
        <time>2014-03-17T12:19:41Z</time>
      </trkpt>
      <trkpt lat="45.69643" lon="6.53496">
        <ele>1796</ele>
        <time>2014-03-17T12:19:53Z</time>
      </trkpt>
      <trkpt lat="45.69638" lon="6.535">
        <ele>1797</ele>
        <time>2014-03-17T12:20:05Z</time>
      </trkpt>
      <trkpt lat="45.69633" lon="6.53502">
        <ele>1799</ele>
        <time>2014-03-17T12:20:17Z</time>
      </trkpt>
      <trkpt lat="45.69631" lon="6.53496">
        <ele>1799</ele>
        <time>2014-03-17T12:20:25Z</time>
      </trkpt>
      <trkpt lat="45.69629" lon="6.5349">
        <ele>1800</ele>
        <time>2014-03-17T12:20:35Z</time>
      </trkpt>
      <trkpt lat="45.69626" lon="6.53484">
        <ele>1802</ele>
        <time>2014-03-17T12:20:49Z</time>
      </trkpt>
      <trkpt lat="45.69626" lon="6.53479">
        <ele>1805</ele>
        <time>2014-03-17T12:21:20Z</time>
      </trkpt>
      <trkpt lat="45.69625" lon="6.53473">
        <ele>1805</ele>
        <time>2014-03-17T12:21:29Z</time>
      </trkpt>
      <trkpt lat="45.69623" lon="6.53466">
        <ele>1805</ele>
        <time>2014-03-17T12:21:40Z</time>
      </trkpt>
      <trkpt lat="45.69618" lon="6.53461">
        <ele>1805</ele>
        <time>2014-03-17T12:21:56Z</time>
      </trkpt>
      <trkpt lat="45.69614" lon="6.53457">
        <ele>1807</ele>
        <time>2014-03-17T12:22:07Z</time>
      </trkpt>
      <trkpt lat="45.69608" lon="6.53455">
        <ele>1808</ele>
        <time>2014-03-17T12:22:15Z</time>
      </trkpt>
      <trkpt lat="45.69602" lon="6.53455">
        <ele>1808</ele>
        <time>2014-03-17T12:22:23Z</time>
      </trkpt>
      <trkpt lat="45.69596" lon="6.53454">
        <ele>1809</ele>
        <time>2014-03-17T12:22:31Z</time>
      </trkpt>
      <trkpt lat="45.69592" lon="6.53455">
        <ele>1813</ele>
        <time>2014-03-17T12:22:59Z</time>
      </trkpt>
      <trkpt lat="45.6959" lon="6.53461">
        <ele>1813</ele>
        <time>2014-03-17T12:23:36Z</time>
      </trkpt>
      <trkpt lat="45.69592" lon="6.53454">
        <ele>1813</ele>
        <time>2014-03-17T12:24:04Z</time>
      </trkpt>
      <trkpt lat="45.69591" lon="6.53461">
        <ele>1816</ele>
        <time>2014-03-17T12:24:20Z</time>
      </trkpt>
      <trkpt lat="45.69591" lon="6.53458">
        <ele>1820</ele>
        <time>2014-03-17T12:24:44Z</time>
      </trkpt>
      <trkpt lat="45.69592" lon="6.53459">
        <ele>1818</ele>
        <time>2014-03-17T12:25:27Z</time>
      </trkpt>
      <trkpt lat="45.69592" lon="6.53461">
        <ele>1818</ele>
        <time>2014-03-17T12:25:56Z</time>
      </trkpt>
      <trkpt lat="45.69592" lon="6.53455">
        <ele>1811</ele>
        <time>2014-03-17T12:26:24Z</time>
      </trkpt>
      <trkpt lat="45.6959" lon="6.5345">
        <ele>1811</ele>
        <time>2014-03-17T12:27:08Z</time>
      </trkpt>
      <trkpt lat="45.69585" lon="6.53445">
        <ele>1811</ele>
        <time>2014-03-17T12:27:21Z</time>
      </trkpt>
      <trkpt lat="45.6959" lon="6.53449">
        <ele>1814</ele>
        <time>2014-03-17T12:27:49Z</time>
      </trkpt>
      <trkpt lat="45.69591" lon="6.53454">
        <ele>1814</ele>
        <time>2014-03-17T12:28:33Z</time>
      </trkpt>
      <trkpt lat="45.69588" lon="6.53453">
        <ele>1814</ele>
        <time>2014-03-17T12:29:06Z</time>
      </trkpt>
      <trkpt lat="45.69582" lon="6.5345">
        <ele>1814</ele>
        <time>2014-03-17T12:29:14Z</time>
      </trkpt>
      <trkpt lat="45.69576" lon="6.53448">
        <ele>1814</ele>
        <time>2014-03-17T12:29:22Z</time>
      </trkpt>
      <trkpt lat="45.69569" lon="6.53444">
        <ele>1813</ele>
        <time>2014-03-17T12:29:32Z</time>
      </trkpt>
      <trkpt lat="45.69562" lon="6.53444">
        <ele>1813</ele>
        <time>2014-03-17T12:29:40Z</time>
      </trkpt>
      <trkpt lat="45.69558" lon="6.53443">
        <ele>1813</ele>
        <time>2014-03-17T12:29:48Z</time>
      </trkpt>
      <trkpt lat="45.69551" lon="6.53441">
        <ele>1813</ele>
        <time>2014-03-17T12:29:56Z</time>
      </trkpt>
      <trkpt lat="45.69543" lon="6.5344">
        <ele>1813</ele>
        <time>2014-03-17T12:30:04Z</time>
      </trkpt>
      <trkpt lat="45.69537" lon="6.53437">
        <ele>1813</ele>
        <time>2014-03-17T12:30:11Z</time>
      </trkpt>
      <trkpt lat="45.6953" lon="6.53434">
        <ele>1813</ele>
        <time>2014-03-17T12:30:19Z</time>
      </trkpt>
      <trkpt lat="45.69524" lon="6.53429">
        <ele>1814</ele>
        <time>2014-03-17T12:30:26Z</time>
      </trkpt>
      <trkpt lat="45.69518" lon="6.53426">
        <ele>1816</ele>
        <time>2014-03-17T12:30:35Z</time>
      </trkpt>
      <trkpt lat="45.69511" lon="6.53423">
        <ele>1817</ele>
        <time>2014-03-17T12:30:43Z</time>
      </trkpt>
      <trkpt lat="45.69506" lon="6.53419">
        <ele>1818</ele>
        <time>2014-03-17T12:30:51Z</time>
      </trkpt>
      <trkpt lat="45.695" lon="6.53414">
        <ele>1819</ele>
        <time>2014-03-17T12:31:02Z</time>
      </trkpt>
      <trkpt lat="45.69495" lon="6.53408">
        <ele>1820</ele>
        <time>2014-03-17T12:31:14Z</time>
      </trkpt>
      <trkpt lat="45.6949" lon="6.53403">
        <ele>1821</ele>
        <time>2014-03-17T12:31:26Z</time>
      </trkpt>
      <trkpt lat="45.69485" lon="6.534">
        <ele>1822</ele>
        <time>2014-03-17T12:31:38Z</time>
      </trkpt>
      <trkpt lat="45.69481" lon="6.53397">
        <ele>1823</ele>
        <time>2014-03-17T12:31:51Z</time>
      </trkpt>
      <trkpt lat="45.69478" lon="6.5339">
        <ele>1825</ele>
        <time>2014-03-17T12:32:02Z</time>
      </trkpt>
      <trkpt lat="45.69475" lon="6.53383">
        <ele>1826</ele>
        <time>2014-03-17T12:32:14Z</time>
      </trkpt>
      <trkpt lat="45.69473" lon="6.53376">
        <ele>1828</ele>
        <time>2014-03-17T12:32:26Z</time>
      </trkpt>
      <trkpt lat="45.69472" lon="6.5337">
        <ele>1829</ele>
        <time>2014-03-17T12:32:34Z</time>
      </trkpt>
      <trkpt lat="45.69467" lon="6.53364">
        <ele>1829</ele>
        <time>2014-03-17T12:32:43Z</time>
      </trkpt>
      <trkpt lat="45.69462" lon="6.53356">
        <ele>1829</ele>
        <time>2014-03-17T12:32:51Z</time>
      </trkpt>
      <trkpt lat="45.69458" lon="6.53349">
        <ele>1829</ele>
        <time>2014-03-17T12:33:04Z</time>
      </trkpt>
      <trkpt lat="45.69457" lon="6.5334">
        <ele>1829</ele>
        <time>2014-03-17T12:33:12Z</time>
      </trkpt>
      <trkpt lat="45.69454" lon="6.53331">
        <ele>1829</ele>
        <time>2014-03-17T12:33:20Z</time>
      </trkpt>
      <trkpt lat="45.69451" lon="6.53323">
        <ele>1829</ele>
        <time>2014-03-17T12:33:29Z</time>
      </trkpt>
      <trkpt lat="45.69453" lon="6.53314">
        <ele>1829</ele>
        <time>2014-03-17T12:33:38Z</time>
      </trkpt>
      <trkpt lat="45.69455" lon="6.53307">
        <ele>1829</ele>
        <time>2014-03-17T12:33:46Z</time>
      </trkpt>
      <trkpt lat="45.69457" lon="6.53298">
        <ele>1829</ele>
        <time>2014-03-17T12:33:59Z</time>
      </trkpt>
      <trkpt lat="45.69456" lon="6.53291">
        <ele>1830</ele>
        <time>2014-03-17T12:34:20Z</time>
      </trkpt>
      <trkpt lat="45.69459" lon="6.53289">
        <ele>1830</ele>
        <time>2014-03-17T12:35:02Z</time>
      </trkpt>
      <trkpt lat="45.69456" lon="6.53288">
        <ele>1830</ele>
        <time>2014-03-17T12:35:30Z</time>
      </trkpt>
      <trkpt lat="45.69458" lon="6.53289">
        <ele>1830</ele>
        <time>2014-03-17T12:35:55Z</time>
      </trkpt>
      <trkpt lat="45.69458" lon="6.53295">
        <ele>1830</ele>
        <time>2014-03-17T12:36:36Z</time>
      </trkpt>
      <trkpt lat="45.69458" lon="6.53295">
        <ele>1830</ele>
        <time>2014-03-17T12:37:28Z</time>
      </trkpt>
      <trkpt lat="45.69458" lon="6.53289">
        <ele>1830</ele>
        <time>2014-03-17T12:37:50Z</time>
      </trkpt>
      <trkpt lat="45.69459" lon="6.53286">
        <ele>1831</ele>
        <time>2014-03-17T12:38:07Z</time>
      </trkpt>
      <trkpt lat="45.69459" lon="6.53276">
        <ele>1832</ele>
        <time>2014-03-17T12:38:15Z</time>
      </trkpt>
      <trkpt lat="45.69458" lon="6.53268">
        <ele>1833</ele>
        <time>2014-03-17T12:38:23Z</time>
      </trkpt>
      <trkpt lat="45.69456" lon="6.5326">
        <ele>1834</ele>
        <time>2014-03-17T12:38:32Z</time>
      </trkpt>
      <trkpt lat="45.69452" lon="6.53252">
        <ele>1836</ele>
        <time>2014-03-17T12:38:42Z</time>
      </trkpt>
      <trkpt lat="45.69447" lon="6.53245">
        <ele>1838</ele>
        <time>2014-03-17T12:38:50Z</time>
      </trkpt>
      <trkpt lat="45.69444" lon="6.53237">
        <ele>1839</ele>
        <time>2014-03-17T12:38:58Z</time>
      </trkpt>
      <trkpt lat="45.69444" lon="6.53232">
        <ele>1839</ele>
        <time>2014-03-17T12:39:19Z</time>
      </trkpt>
      <trkpt lat="45.69444" lon="6.53223">
        <ele>1839</ele>
        <time>2014-03-17T12:39:27Z</time>
      </trkpt>
      <trkpt lat="45.69443" lon="6.53212">
        <ele>1839</ele>
        <time>2014-03-17T12:39:35Z</time>
      </trkpt>
      <trkpt lat="45.69442" lon="6.53202">
        <ele>1839</ele>
        <time>2014-03-17T12:39:43Z</time>
      </trkpt>
      <trkpt lat="45.6944" lon="6.53194">
        <ele>1839</ele>
        <time>2014-03-17T12:39:50Z</time>
      </trkpt>
      <trkpt lat="45.69439" lon="6.53186">
        <ele>1839</ele>
        <time>2014-03-17T12:40:04Z</time>
      </trkpt>
      <trkpt lat="45.69439" lon="6.53177">
        <ele>1839</ele>
        <time>2014-03-17T12:40:12Z</time>
      </trkpt>
      <trkpt lat="45.69439" lon="6.53169">
        <ele>1839</ele>
        <time>2014-03-17T12:40:20Z</time>
      </trkpt>
      <trkpt lat="45.69439" lon="6.53159">
        <ele>1839</ele>
        <time>2014-03-17T12:40:28Z</time>
      </trkpt>
      <trkpt lat="45.69437" lon="6.5315">
        <ele>1839</ele>
        <time>2014-03-17T12:40:35Z</time>
      </trkpt>
      <trkpt lat="45.69436" lon="6.5314">
        <ele>1839</ele>
        <time>2014-03-17T12:40:43Z</time>
      </trkpt>
      <trkpt lat="45.69435" lon="6.53132">
        <ele>1840</ele>
        <time>2014-03-17T12:41:07Z</time>
      </trkpt>
      <trkpt lat="45.69433" lon="6.53123">
        <ele>1840</ele>
        <time>2014-03-17T12:41:15Z</time>
      </trkpt>
      <trkpt lat="45.69432" lon="6.53114">
        <ele>1841</ele>
        <time>2014-03-17T12:41:23Z</time>
      </trkpt>
      <trkpt lat="45.69431" lon="6.53104">
        <ele>1842</ele>
        <time>2014-03-17T12:41:31Z</time>
      </trkpt>
      <trkpt lat="45.69429" lon="6.53095">
        <ele>1842</ele>
        <time>2014-03-17T12:41:39Z</time>
      </trkpt>
      <trkpt lat="45.69428" lon="6.53086">
        <ele>1843</ele>
        <time>2014-03-17T12:41:47Z</time>
      </trkpt>
      <trkpt lat="45.69427" lon="6.53076">
        <ele>1844</ele>
        <time>2014-03-17T12:41:55Z</time>
      </trkpt>
      <trkpt lat="45.69426" lon="6.53067">
        <ele>1845</ele>
        <time>2014-03-17T12:42:03Z</time>
      </trkpt>
      <trkpt lat="45.69426" lon="6.53058">
        <ele>1847</ele>
        <time>2014-03-17T12:42:18Z</time>
      </trkpt>
      <trkpt lat="45.69427" lon="6.53059">
        <ele>1848</ele>
        <time>2014-03-17T12:43:10Z</time>
      </trkpt>
      <trkpt lat="45.69427" lon="6.53052">
        <ele>1848</ele>
        <time>2014-03-17T12:43:20Z</time>
      </trkpt>
      <trkpt lat="45.69428" lon="6.53047">
        <ele>1848</ele>
        <time>2014-03-17T12:43:40Z</time>
      </trkpt>
      <trkpt lat="45.69426" lon="6.53037">
        <ele>1848</ele>
        <time>2014-03-17T12:43:48Z</time>
      </trkpt>
      <trkpt lat="45.69425" lon="6.53029">
        <ele>1848</ele>
        <time>2014-03-17T12:43:54Z</time>
      </trkpt>
      <trkpt lat="45.69422" lon="6.53019">
        <ele>1848</ele>
        <time>2014-03-17T12:44:02Z</time>
      </trkpt>
      <trkpt lat="45.6942" lon="6.53011">
        <ele>1848</ele>
        <time>2014-03-17T12:44:08Z</time>
      </trkpt>
      <trkpt lat="45.69419" lon="6.53001">
        <ele>1848</ele>
        <time>2014-03-17T12:44:16Z</time>
      </trkpt>
      <trkpt lat="45.69417" lon="6.52991">
        <ele>1848</ele>
        <time>2014-03-17T12:44:28Z</time>
      </trkpt>
      <trkpt lat="45.69416" lon="6.52983">
        <ele>1848</ele>
        <time>2014-03-17T12:44:34Z</time>
      </trkpt>
      <trkpt lat="45.69414" lon="6.52973">
        <ele>1848</ele>
        <time>2014-03-17T12:44:42Z</time>
      </trkpt>
      <trkpt lat="45.69411" lon="6.52964">
        <ele>1848</ele>
        <time>2014-03-17T12:44:50Z</time>
      </trkpt>
      <trkpt lat="45.69409" lon="6.52954">
        <ele>1848</ele>
        <time>2014-03-17T12:44:58Z</time>
      </trkpt>
      <trkpt lat="45.69407" lon="6.52946">
        <ele>1848</ele>
        <time>2014-03-17T12:45:06Z</time>
      </trkpt>
      <trkpt lat="45.69405" lon="6.52938">
        <ele>1849</ele>
        <time>2014-03-17T12:45:14Z</time>
      </trkpt>
      <trkpt lat="45.69402" lon="6.52929">
        <ele>1850</ele>
        <time>2014-03-17T12:45:22Z</time>
      </trkpt>
      <trkpt lat="45.694" lon="6.52922">
        <ele>1851</ele>
        <time>2014-03-17T12:45:30Z</time>
      </trkpt>
      <trkpt lat="45.69398" lon="6.52914">
        <ele>1852</ele>
        <time>2014-03-17T12:45:38Z</time>
      </trkpt>
      <trkpt lat="45.69395" lon="6.52907">
        <ele>1854</ele>
        <time>2014-03-17T12:45:48Z</time>
      </trkpt>
      <trkpt lat="45.69393" lon="6.529">
        <ele>1855</ele>
        <time>2014-03-17T12:45:56Z</time>
      </trkpt>
      <trkpt lat="45.6939" lon="6.52894">
        <ele>1857</ele>
        <time>2014-03-17T12:46:04Z</time>
      </trkpt>
      <trkpt lat="45.69388" lon="6.52886">
        <ele>1858</ele>
        <time>2014-03-17T12:46:16Z</time>
      </trkpt>
      <trkpt lat="45.69385" lon="6.5288">
        <ele>1860</ele>
        <time>2014-03-17T12:46:29Z</time>
      </trkpt>
      <trkpt lat="45.69382" lon="6.52873">
        <ele>1864</ele>
        <time>2014-03-17T12:46:40Z</time>
      </trkpt>
      <trkpt lat="45.69379" lon="6.52866">
        <ele>1866</ele>
        <time>2014-03-17T12:46:53Z</time>
      </trkpt>
      <trkpt lat="45.69378" lon="6.52859">
        <ele>1866</ele>
        <time>2014-03-17T12:47:03Z</time>
      </trkpt>
      <trkpt lat="45.69377" lon="6.52852">
        <ele>1867</ele>
        <time>2014-03-17T12:47:14Z</time>
      </trkpt>
      <trkpt lat="45.69376" lon="6.52845">
        <ele>1867</ele>
        <time>2014-03-17T12:47:24Z</time>
      </trkpt>
      <trkpt lat="45.69376" lon="6.52838">
        <ele>1867</ele>
        <time>2014-03-17T12:47:36Z</time>
      </trkpt>
      <trkpt lat="45.69376" lon="6.52831">
        <ele>1868</ele>
        <time>2014-03-17T12:47:50Z</time>
      </trkpt>
      <trkpt lat="45.69375" lon="6.52823">
        <ele>1869</ele>
        <time>2014-03-17T12:48:01Z</time>
      </trkpt>
      <trkpt lat="45.69375" lon="6.52817">
        <ele>1871</ele>
        <time>2014-03-17T12:48:13Z</time>
      </trkpt>
      <trkpt lat="45.69376" lon="6.52811">
        <ele>1872</ele>
        <time>2014-03-17T12:48:33Z</time>
      </trkpt>
      <trkpt lat="45.69378" lon="6.52811">
        <ele>1872</ele>
        <time>2014-03-17T12:49:04Z</time>
      </trkpt>
      <trkpt lat="45.69376" lon="6.52806">
        <ele>1872</ele>
        <time>2014-03-17T12:49:43Z</time>
      </trkpt>
      <trkpt lat="45.69374" lon="6.52801">
        <ele>1873</ele>
        <time>2014-03-17T12:50:00Z</time>
      </trkpt>
      <trkpt lat="45.69373" lon="6.52794">
        <ele>1875</ele>
        <time>2014-03-17T12:50:09Z</time>
      </trkpt>
      <trkpt lat="45.69372" lon="6.52792">
        <ele>1876</ele>
        <time>2014-03-17T12:50:48Z</time>
      </trkpt>
      <trkpt lat="45.69373" lon="6.52798">
        <ele>1876</ele>
        <time>2014-03-17T12:50:52Z</time>
      </trkpt>
      <trkpt lat="45.69375" lon="6.52807">
        <ele>1876</ele>
        <time>2014-03-17T12:50:58Z</time>
      </trkpt>
      <trkpt lat="45.69376" lon="6.52815">
        <ele>1876</ele>
        <time>2014-03-17T12:51:04Z</time>
      </trkpt>
      <trkpt lat="45.69376" lon="6.52825">
        <ele>1875</ele>
        <time>2014-03-17T12:51:12Z</time>
      </trkpt>
      <trkpt lat="45.69376" lon="6.52834">
        <ele>1874</ele>
        <time>2014-03-17T12:51:19Z</time>
      </trkpt>
      <trkpt lat="45.69378" lon="6.52842">
        <ele>1873</ele>
        <time>2014-03-17T12:51:25Z</time>
      </trkpt>
      <trkpt lat="45.6938" lon="6.52852">
        <ele>1871</ele>
        <time>2014-03-17T12:51:33Z</time>
      </trkpt>
      <trkpt lat="45.69382" lon="6.52862">
        <ele>1870</ele>
        <time>2014-03-17T12:51:41Z</time>
      </trkpt>
      <trkpt lat="45.69384" lon="6.5287">
        <ele>1867</ele>
        <time>2014-03-17T12:51:49Z</time>
      </trkpt>
      <trkpt lat="45.69385" lon="6.52879">
        <ele>1865</ele>
        <time>2014-03-17T12:51:57Z</time>
      </trkpt>
      <trkpt lat="45.69388" lon="6.52888">
        <ele>1862</ele>
        <time>2014-03-17T12:52:05Z</time>
      </trkpt>
      <trkpt lat="45.69392" lon="6.52898">
        <ele>1860</ele>
        <time>2014-03-17T12:52:13Z</time>
      </trkpt>
      <trkpt lat="45.69396" lon="6.52906">
        <ele>1857</ele>
        <time>2014-03-17T12:52:21Z</time>
      </trkpt>
      <trkpt lat="45.69399" lon="6.52916">
        <ele>1856</ele>
        <time>2014-03-17T12:52:29Z</time>
      </trkpt>
      <trkpt lat="45.69402" lon="6.52926">
        <ele>1854</ele>
        <time>2014-03-17T12:52:37Z</time>
      </trkpt>
      <trkpt lat="45.69403" lon="6.52935">
        <ele>1853</ele>
        <time>2014-03-17T12:52:43Z</time>
      </trkpt>
      <trkpt lat="45.69404" lon="6.52942">
        <ele>1853</ele>
        <time>2014-03-17T12:52:48Z</time>
      </trkpt>
      <trkpt lat="45.69405" lon="6.5295">
        <ele>1853</ele>
        <time>2014-03-17T12:52:54Z</time>
      </trkpt>
      <trkpt lat="45.69407" lon="6.5296">
        <ele>1853</ele>
        <time>2014-03-17T12:53:01Z</time>
      </trkpt>
      <trkpt lat="45.69409" lon="6.52968">
        <ele>1853</ele>
        <time>2014-03-17T12:53:07Z</time>
      </trkpt>
      <trkpt lat="45.69411" lon="6.52977">
        <ele>1853</ele>
        <time>2014-03-17T12:53:14Z</time>
      </trkpt>
      <trkpt lat="45.69414" lon="6.52985">
        <ele>1852</ele>
        <time>2014-03-17T12:53:20Z</time>
      </trkpt>
      <trkpt lat="45.69416" lon="6.52993">
        <ele>1852</ele>
        <time>2014-03-17T12:53:26Z</time>
      </trkpt>
      <trkpt lat="45.6942" lon="6.53004">
        <ele>1852</ele>
        <time>2014-03-17T12:53:34Z</time>
      </trkpt>
      <trkpt lat="45.69421" lon="6.53011">
        <ele>1851</ele>
        <time>2014-03-17T12:53:39Z</time>
      </trkpt>
      <trkpt lat="45.69423" lon="6.53019">
        <ele>1850</ele>
        <time>2014-03-17T12:53:46Z</time>
      </trkpt>
      <trkpt lat="45.69424" lon="6.53028">
        <ele>1850</ele>
        <time>2014-03-17T12:54:08Z</time>
      </trkpt>
      <trkpt lat="45.69426" lon="6.53037">
        <ele>1850</ele>
        <time>2014-03-17T12:54:17Z</time>
      </trkpt>
      <trkpt lat="45.69428" lon="6.53048">
        <ele>1850</ele>
        <time>2014-03-17T12:54:25Z</time>
      </trkpt>
      <trkpt lat="45.69429" lon="6.53055">
        <ele>1850</ele>
        <time>2014-03-17T12:54:30Z</time>
      </trkpt>
      <trkpt lat="45.69429" lon="6.53062">
        <ele>1850</ele>
        <time>2014-03-17T12:54:35Z</time>
      </trkpt>
      <trkpt lat="45.69429" lon="6.53069">
        <ele>1850</ele>
        <time>2014-03-17T12:54:39Z</time>
      </trkpt>
      <trkpt lat="45.6943" lon="6.53076">
        <ele>1850</ele>
        <time>2014-03-17T12:54:44Z</time>
      </trkpt>
      <trkpt lat="45.6943" lon="6.53082">
        <ele>1850</ele>
        <time>2014-03-17T12:54:48Z</time>
      </trkpt>
      <trkpt lat="45.6943" lon="6.5309">
        <ele>1848</ele>
        <time>2014-03-17T12:54:53Z</time>
      </trkpt>
      <trkpt lat="45.69431" lon="6.53098">
        <ele>1847</ele>
        <time>2014-03-17T12:54:59Z</time>
      </trkpt>
      <trkpt lat="45.69432" lon="6.53107">
        <ele>1846</ele>
        <time>2014-03-17T12:55:08Z</time>
      </trkpt>
      <trkpt lat="45.69433" lon="6.53114">
        <ele>1845</ele>
        <time>2014-03-17T12:55:13Z</time>
      </trkpt>
      <trkpt lat="45.69434" lon="6.53123">
        <ele>1845</ele>
        <time>2014-03-17T12:55:19Z</time>
      </trkpt>
      <trkpt lat="45.69435" lon="6.53129">
        <ele>1845</ele>
        <time>2014-03-17T12:55:24Z</time>
      </trkpt>
      <trkpt lat="45.69435" lon="6.53137">
        <ele>1845</ele>
        <time>2014-03-17T12:56:28Z</time>
      </trkpt>
      <trkpt lat="45.69437" lon="6.53146">
        <ele>1845</ele>
        <time>2014-03-17T12:56:34Z</time>
      </trkpt>
      <trkpt lat="45.69438" lon="6.53153">
        <ele>1845</ele>
        <time>2014-03-17T12:56:39Z</time>
      </trkpt>
      <trkpt lat="45.69439" lon="6.53162">
        <ele>1845</ele>
        <time>2014-03-17T12:56:45Z</time>
      </trkpt>
      <trkpt lat="45.69439" lon="6.53169">
        <ele>1845</ele>
        <time>2014-03-17T12:56:50Z</time>
      </trkpt>
      <trkpt lat="45.69439" lon="6.53176">
        <ele>1844</ele>
        <time>2014-03-17T12:56:55Z</time>
      </trkpt>
      <trkpt lat="45.69439" lon="6.53183">
        <ele>1844</ele>
        <time>2014-03-17T12:56:59Z</time>
      </trkpt>
      <trkpt lat="45.6944" lon="6.53189">
        <ele>1843</ele>
        <time>2014-03-17T12:57:03Z</time>
      </trkpt>
      <trkpt lat="45.6944" lon="6.53196">
        <ele>1842</ele>
        <time>2014-03-17T12:57:08Z</time>
      </trkpt>
      <trkpt lat="45.6944" lon="6.53202">
        <ele>1842</ele>
        <time>2014-03-17T12:57:12Z</time>
      </trkpt>
      <trkpt lat="45.69441" lon="6.53211">
        <ele>1841</ele>
        <time>2014-03-17T12:57:18Z</time>
      </trkpt>
      <trkpt lat="45.69442" lon="6.53221">
        <ele>1841</ele>
        <time>2014-03-17T12:57:25Z</time>
      </trkpt>
      <trkpt lat="45.69443" lon="6.53229">
        <ele>1841</ele>
        <time>2014-03-17T12:57:31Z</time>
      </trkpt>
      <trkpt lat="45.69443" lon="6.53238">
        <ele>1841</ele>
        <time>2014-03-17T12:57:38Z</time>
      </trkpt>
      <trkpt lat="45.69442" lon="6.53249">
        <ele>1841</ele>
        <time>2014-03-17T12:57:46Z</time>
      </trkpt>
      <trkpt lat="45.6944" lon="6.53256">
        <ele>1840</ele>
        <time>2014-03-17T12:57:54Z</time>
      </trkpt>
      <trkpt lat="45.69437" lon="6.53265">
        <ele>1837</ele>
        <time>2014-03-17T12:58:02Z</time>
      </trkpt>
      <trkpt lat="45.69434" lon="6.53272">
        <ele>1834</ele>
        <time>2014-03-17T12:58:10Z</time>
      </trkpt>
      <trkpt lat="45.69432" lon="6.53278">
        <ele>1833</ele>
        <time>2014-03-17T12:58:41Z</time>
      </trkpt>
      <trkpt lat="45.69424" lon="6.53276">
        <ele>1833</ele>
        <time>2014-03-17T12:58:49Z</time>
      </trkpt>
      <trkpt lat="45.69416" lon="6.53271">
        <ele>1833</ele>
        <time>2014-03-17T12:58:57Z</time>
      </trkpt>
      <trkpt lat="45.6941" lon="6.53267">
        <ele>1832</ele>
        <time>2014-03-17T12:59:05Z</time>
      </trkpt>
      <trkpt lat="45.69404" lon="6.53261">
        <ele>1832</ele>
        <time>2014-03-17T12:59:13Z</time>
      </trkpt>
      <trkpt lat="45.694" lon="6.53253">
        <ele>1832</ele>
        <time>2014-03-17T12:59:21Z</time>
      </trkpt>
      <trkpt lat="45.69395" lon="6.53246">
        <ele>1832</ele>
        <time>2014-03-17T12:59:30Z</time>
      </trkpt>
      <trkpt lat="45.6939" lon="6.53238">
        <ele>1832</ele>
        <time>2014-03-17T12:59:38Z</time>
      </trkpt>
      <trkpt lat="45.69384" lon="6.53232">
        <ele>1832</ele>
        <time>2014-03-17T12:59:46Z</time>
      </trkpt>
      <trkpt lat="45.69378" lon="6.53224">
        <ele>1832</ele>
        <time>2014-03-17T12:59:54Z</time>
      </trkpt>
      <trkpt lat="45.69374" lon="6.53215">
        <ele>1832</ele>
        <time>2014-03-17T13:00:01Z</time>
      </trkpt>
      <trkpt lat="45.69372" lon="6.53207">
        <ele>1832</ele>
        <time>2014-03-17T13:00:07Z</time>
      </trkpt>
      <trkpt lat="45.6937" lon="6.53198">
        <ele>1832</ele>
        <time>2014-03-17T13:00:13Z</time>
      </trkpt>
      <trkpt lat="45.69368" lon="6.53191">
        <ele>1832</ele>
        <time>2014-03-17T13:00:19Z</time>
      </trkpt>
      <trkpt lat="45.69366" lon="6.53182">
        <ele>1832</ele>
        <time>2014-03-17T13:00:26Z</time>
      </trkpt>
      <trkpt lat="45.69365" lon="6.53172">
        <ele>1832</ele>
        <time>2014-03-17T13:00:34Z</time>
      </trkpt>
      <trkpt lat="45.6936" lon="6.53164">
        <ele>1833</ele>
        <time>2014-03-17T13:00:43Z</time>
      </trkpt>
      <trkpt lat="45.69354" lon="6.53157">
        <ele>1833</ele>
        <time>2014-03-17T13:00:51Z</time>
      </trkpt>
      <trkpt lat="45.69349" lon="6.53149">
        <ele>1833</ele>
        <time>2014-03-17T13:00:59Z</time>
      </trkpt>
      <trkpt lat="45.69345" lon="6.53141">
        <ele>1833</ele>
        <time>2014-03-17T13:01:06Z</time>
      </trkpt>
      <trkpt lat="45.69344" lon="6.53132">
        <ele>1833</ele>
        <time>2014-03-17T13:01:13Z</time>
      </trkpt>
      <trkpt lat="45.6934" lon="6.53124">
        <ele>1833</ele>
        <time>2014-03-17T13:01:21Z</time>
      </trkpt>
      <trkpt lat="45.69337" lon="6.53115">
        <ele>1833</ele>
        <time>2014-03-17T13:01:29Z</time>
      </trkpt>
      <trkpt lat="45.69334" lon="6.53106">
        <ele>1833</ele>
        <time>2014-03-17T13:01:37Z</time>
      </trkpt>
      <trkpt lat="45.69332" lon="6.53098">
        <ele>1832</ele>
        <time>2014-03-17T13:01:46Z</time>
      </trkpt>
      <trkpt lat="45.69329" lon="6.53089">
        <ele>1832</ele>
        <time>2014-03-17T13:01:54Z</time>
      </trkpt>
      <trkpt lat="45.69326" lon="6.53079">
        <ele>1832</ele>
        <time>2014-03-17T13:02:02Z</time>
      </trkpt>
      <trkpt lat="45.69322" lon="6.53069">
        <ele>1832</ele>
        <time>2014-03-17T13:02:10Z</time>
      </trkpt>
      <trkpt lat="45.69319" lon="6.53062">
        <ele>1832</ele>
        <time>2014-03-17T13:02:16Z</time>
      </trkpt>
      <trkpt lat="45.69317" lon="6.53054">
        <ele>1832</ele>
        <time>2014-03-17T13:02:22Z</time>
      </trkpt>
      <trkpt lat="45.69315" lon="6.53044">
        <ele>1832</ele>
        <time>2014-03-17T13:02:30Z</time>
      </trkpt>
      <trkpt lat="45.69312" lon="6.53034">
        <ele>1832</ele>
        <time>2014-03-17T13:02:37Z</time>
      </trkpt>
      <trkpt lat="45.69309" lon="6.53025">
        <ele>1832</ele>
        <time>2014-03-17T13:02:46Z</time>
      </trkpt>
      <trkpt lat="45.69307" lon="6.53017">
        <ele>1832</ele>
        <time>2014-03-17T13:02:53Z</time>
      </trkpt>
      <trkpt lat="45.69306" lon="6.53008">
        <ele>1832</ele>
        <time>2014-03-17T13:03:00Z</time>
      </trkpt>
      <trkpt lat="45.69304" lon="6.52999">
        <ele>1832</ele>
        <time>2014-03-17T13:03:07Z</time>
      </trkpt>
      <trkpt lat="45.69302" lon="6.52991">
        <ele>1832</ele>
        <time>2014-03-17T13:03:14Z</time>
      </trkpt>
      <trkpt lat="45.69299" lon="6.52981">
        <ele>1832</ele>
        <time>2014-03-17T13:03:22Z</time>
      </trkpt>
      <trkpt lat="45.69297" lon="6.52972">
        <ele>1832</ele>
        <time>2014-03-17T13:03:30Z</time>
      </trkpt>
      <trkpt lat="45.69294" lon="6.52963">
        <ele>1832</ele>
        <time>2014-03-17T13:03:38Z</time>
      </trkpt>
      <trkpt lat="45.69291" lon="6.52955">
        <ele>1832</ele>
        <time>2014-03-17T13:03:46Z</time>
      </trkpt>
      <trkpt lat="45.69287" lon="6.52947">
        <ele>1829</ele>
        <time>2014-03-17T13:03:54Z</time>
      </trkpt>
      <trkpt lat="45.69284" lon="6.5294">
        <ele>1829</ele>
        <time>2014-03-17T13:04:02Z</time>
      </trkpt>
      <trkpt lat="45.69281" lon="6.52932">
        <ele>1829</ele>
        <time>2014-03-17T13:04:10Z</time>
      </trkpt>
      <trkpt lat="45.69278" lon="6.52924">
        <ele>1828</ele>
        <time>2014-03-17T13:04:18Z</time>
      </trkpt>
      <trkpt lat="45.69274" lon="6.52915">
        <ele>1827</ele>
        <time>2014-03-17T13:04:26Z</time>
      </trkpt>
      <trkpt lat="45.69269" lon="6.52908">
        <ele>1827</ele>
        <time>2014-03-17T13:04:35Z</time>
      </trkpt>
      <trkpt lat="45.69265" lon="6.52901">
        <ele>1827</ele>
        <time>2014-03-17T13:04:43Z</time>
      </trkpt>
      <trkpt lat="45.69261" lon="6.52893">
        <ele>1827</ele>
        <time>2014-03-17T13:04:52Z</time>
      </trkpt>
      <trkpt lat="45.69258" lon="6.52885">
        <ele>1827</ele>
        <time>2014-03-17T13:05:00Z</time>
      </trkpt>
      <trkpt lat="45.69255" lon="6.52877">
        <ele>1827</ele>
        <time>2014-03-17T13:05:08Z</time>
      </trkpt>
      <trkpt lat="45.69251" lon="6.52869">
        <ele>1827</ele>
        <time>2014-03-17T13:05:16Z</time>
      </trkpt>
      <trkpt lat="45.69248" lon="6.52862">
        <ele>1827</ele>
        <time>2014-03-17T13:05:24Z</time>
      </trkpt>
      <trkpt lat="45.69247" lon="6.52853">
        <ele>1826</ele>
        <time>2014-03-17T13:05:32Z</time>
      </trkpt>
      <trkpt lat="45.69243" lon="6.52845">
        <ele>1825</ele>
        <time>2014-03-17T13:05:41Z</time>
      </trkpt>
      <trkpt lat="45.69242" lon="6.52835">
        <ele>1825</ele>
        <time>2014-03-17T13:05:49Z</time>
      </trkpt>
      <trkpt lat="45.69241" lon="6.52827">
        <ele>1825</ele>
        <time>2014-03-17T13:05:57Z</time>
      </trkpt>
      <trkpt lat="45.69237" lon="6.52826">
        <ele>1833</ele>
        <time>2014-03-17T13:06:11Z</time>
      </trkpt>
      <trkpt lat="45.69237" lon="6.52819">
        <ele>1834</ele>
        <time>2014-03-17T13:06:23Z</time>
      </trkpt>
      <trkpt lat="45.69241" lon="6.52817">
        <ele>1828</ele>
        <time>2014-03-17T13:06:36Z</time>
      </trkpt>
      <trkpt lat="45.69242" lon="6.52811">
        <ele>1823</ele>
        <time>2014-03-17T13:06:52Z</time>
      </trkpt>
      <trkpt lat="45.69241" lon="6.52803">
        <ele>1823</ele>
        <time>2014-03-17T13:07:00Z</time>
      </trkpt>
      <trkpt lat="45.6924" lon="6.52794">
        <ele>1823</ele>
        <time>2014-03-17T13:07:08Z</time>
      </trkpt>
      <trkpt lat="45.69237" lon="6.52785">
        <ele>1823</ele>
        <time>2014-03-17T13:07:16Z</time>
      </trkpt>
      <trkpt lat="45.69233" lon="6.52778">
        <ele>1824</ele>
        <time>2014-03-17T13:07:30Z</time>
      </trkpt>
      <trkpt lat="45.6923" lon="6.52771">
        <ele>1824</ele>
        <time>2014-03-17T13:07:37Z</time>
      </trkpt>
      <trkpt lat="45.69228" lon="6.52761">
        <ele>1824</ele>
        <time>2014-03-17T13:07:45Z</time>
      </trkpt>
      <trkpt lat="45.69226" lon="6.52753">
        <ele>1824</ele>
        <time>2014-03-17T13:07:53Z</time>
      </trkpt>
      <trkpt lat="45.69223" lon="6.52746">
        <ele>1825</ele>
        <time>2014-03-17T13:08:02Z</time>
      </trkpt>
      <trkpt lat="45.69221" lon="6.52738">
        <ele>1826</ele>
        <time>2014-03-17T13:08:10Z</time>
      </trkpt>
      <trkpt lat="45.6922" lon="6.52732">
        <ele>1828</ele>
        <time>2014-03-17T13:08:18Z</time>
      </trkpt>
      <trkpt lat="45.69219" lon="6.52725">
        <ele>1829</ele>
        <time>2014-03-17T13:08:28Z</time>
      </trkpt>
      <trkpt lat="45.69219" lon="6.52717">
        <ele>1829</ele>
        <time>2014-03-17T13:08:36Z</time>
      </trkpt>
      <trkpt lat="45.69218" lon="6.52711">
        <ele>1830</ele>
        <time>2014-03-17T13:08:44Z</time>
      </trkpt>
      <trkpt lat="45.69217" lon="6.52704">
        <ele>1831</ele>
        <time>2014-03-17T13:08:52Z</time>
      </trkpt>
      <trkpt lat="45.69216" lon="6.52697">
        <ele>1831</ele>
        <time>2014-03-17T13:09:01Z</time>
      </trkpt>
      <trkpt lat="45.69215" lon="6.52691">
        <ele>1832</ele>
        <time>2014-03-17T13:09:09Z</time>
      </trkpt>
      <trkpt lat="45.69215" lon="6.52684">
        <ele>1832</ele>
        <time>2014-03-17T13:09:17Z</time>
      </trkpt>
      <trkpt lat="45.69214" lon="6.52677">
        <ele>1832</ele>
        <time>2014-03-17T13:09:25Z</time>
      </trkpt>
      <trkpt lat="45.69212" lon="6.52671">
        <ele>1832</ele>
        <time>2014-03-17T13:09:34Z</time>
      </trkpt>
      <trkpt lat="45.6921" lon="6.52664">
        <ele>1833</ele>
        <time>2014-03-17T13:09:45Z</time>
      </trkpt>
      <trkpt lat="45.69207" lon="6.52657">
        <ele>1834</ele>
        <time>2014-03-17T13:09:56Z</time>
      </trkpt>
      <trkpt lat="45.69205" lon="6.5265">
        <ele>1836</ele>
        <time>2014-03-17T13:10:08Z</time>
      </trkpt>
      <trkpt lat="45.69202" lon="6.52643">
        <ele>1837</ele>
        <time>2014-03-17T13:10:23Z</time>
      </trkpt>
      <trkpt lat="45.69199" lon="6.52636">
        <ele>1839</ele>
        <time>2014-03-17T13:10:35Z</time>
      </trkpt>
      <trkpt lat="45.69197" lon="6.52629">
        <ele>1840</ele>
        <time>2014-03-17T13:10:51Z</time>
      </trkpt>
      <trkpt lat="45.69195" lon="6.52622">
        <ele>1840</ele>
        <time>2014-03-17T13:11:01Z</time>
      </trkpt>
      <trkpt lat="45.69193" lon="6.52614">
        <ele>1841</ele>
        <time>2014-03-17T13:11:13Z</time>
      </trkpt>
      <trkpt lat="45.6919" lon="6.52606">
        <ele>1843</ele>
        <time>2014-03-17T13:11:24Z</time>
      </trkpt>
      <trkpt lat="45.69189" lon="6.526">
        <ele>1846</ele>
        <time>2014-03-17T13:11:34Z</time>
      </trkpt>
      <trkpt lat="45.69187" lon="6.52593">
        <ele>1848</ele>
        <time>2014-03-17T13:11:45Z</time>
      </trkpt>
      <trkpt lat="45.69185" lon="6.52586">
        <ele>1848</ele>
        <time>2014-03-17T13:11:56Z</time>
      </trkpt>
      <trkpt lat="45.69182" lon="6.52578">
        <ele>1849</ele>
        <time>2014-03-17T13:12:09Z</time>
      </trkpt>
      <trkpt lat="45.69179" lon="6.5257">
        <ele>1849</ele>
        <time>2014-03-17T13:12:19Z</time>
      </trkpt>
      <trkpt lat="45.69174" lon="6.52563">
        <ele>1851</ele>
        <time>2014-03-17T13:12:31Z</time>
      </trkpt>
      <trkpt lat="45.69171" lon="6.52556">
        <ele>1852</ele>
        <time>2014-03-17T13:12:39Z</time>
      </trkpt>
      <trkpt lat="45.69168" lon="6.52549">
        <ele>1853</ele>
        <time>2014-03-17T13:12:47Z</time>
      </trkpt>
      <trkpt lat="45.69167" lon="6.52542">
        <ele>1853</ele>
        <time>2014-03-17T13:12:55Z</time>
      </trkpt>
      <trkpt lat="45.69164" lon="6.5254">
        <ele>1854</ele>
        <time>2014-03-17T13:13:42Z</time>
      </trkpt>
      <trkpt lat="45.69159" lon="6.52536">
        <ele>1853</ele>
        <time>2014-03-17T13:14:05Z</time>
      </trkpt>
      <trkpt lat="45.69154" lon="6.52534">
        <ele>1853</ele>
        <time>2014-03-17T13:14:32Z</time>
      </trkpt>
      <trkpt lat="45.69148" lon="6.52534">
        <ele>1853</ele>
        <time>2014-03-17T13:14:40Z</time>
      </trkpt>
      <trkpt lat="45.69144" lon="6.52537">
        <ele>1853</ele>
        <time>2014-03-17T13:15:18Z</time>
      </trkpt>
      <trkpt lat="45.69138" lon="6.52536">
        <ele>1853</ele>
        <time>2014-03-17T13:15:26Z</time>
      </trkpt>
      <trkpt lat="45.69132" lon="6.52534">
        <ele>1853</ele>
        <time>2014-03-17T13:15:34Z</time>
      </trkpt>
      <trkpt lat="45.69126" lon="6.52535">
        <ele>1853</ele>
        <time>2014-03-17T13:15:42Z</time>
      </trkpt>
      <trkpt lat="45.69119" lon="6.52535">
        <ele>1853</ele>
        <time>2014-03-17T13:15:50Z</time>
      </trkpt>
      <trkpt lat="45.69112" lon="6.52535">
        <ele>1853</ele>
        <time>2014-03-17T13:15:58Z</time>
      </trkpt>
      <trkpt lat="45.69105" lon="6.52535">
        <ele>1853</ele>
        <time>2014-03-17T13:16:06Z</time>
      </trkpt>
      <trkpt lat="45.69099" lon="6.52535">
        <ele>1853</ele>
        <time>2014-03-17T13:16:14Z</time>
      </trkpt>
      <trkpt lat="45.69094" lon="6.52536">
        <ele>1852</ele>
        <time>2014-03-17T13:16:35Z</time>
      </trkpt>
      <trkpt lat="45.69088" lon="6.52538">
        <ele>1852</ele>
        <time>2014-03-17T13:16:53Z</time>
      </trkpt>
      <trkpt lat="45.69081" lon="6.52538">
        <ele>1851</ele>
        <time>2014-03-17T13:17:01Z</time>
      </trkpt>
      <trkpt lat="45.69075" lon="6.52538">
        <ele>1850</ele>
        <time>2014-03-17T13:17:25Z</time>
      </trkpt>
      <trkpt lat="45.69068" lon="6.52537">
        <ele>1850</ele>
        <time>2014-03-17T13:17:33Z</time>
      </trkpt>
      <trkpt lat="45.69062" lon="6.52535">
        <ele>1850</ele>
        <time>2014-03-17T13:17:41Z</time>
      </trkpt>
      <trkpt lat="45.69057" lon="6.52534">
        <ele>1850</ele>
        <time>2014-03-17T13:18:15Z</time>
      </trkpt>
      <trkpt lat="45.69051" lon="6.52533">
        <ele>1850</ele>
        <time>2014-03-17T13:18:23Z</time>
      </trkpt>
      <trkpt lat="45.69046" lon="6.52531">
        <ele>1849</ele>
        <time>2014-03-17T13:18:33Z</time>
      </trkpt>
      <trkpt lat="45.69039" lon="6.5253">
        <ele>1849</ele>
        <time>2014-03-17T13:18:42Z</time>
      </trkpt>
      <trkpt lat="45.69039" lon="6.52528">
        <ele>1848</ele>
        <time>2014-03-17T13:19:41Z</time>
      </trkpt>
      <trkpt lat="45.69038" lon="6.52527">
        <ele>1847</ele>
        <time>2014-03-17T13:20:47Z</time>
      </trkpt>
      <trkpt lat="45.69035" lon="6.52524">
        <ele>1846</ele>
        <time>2014-03-17T13:21:06Z</time>
      </trkpt>
      <trkpt lat="45.69029" lon="6.52519">
        <ele>1846</ele>
        <time>2014-03-17T13:21:14Z</time>
      </trkpt>
      <trkpt lat="45.69024" lon="6.52513">
        <ele>1846</ele>
        <time>2014-03-17T13:21:22Z</time>
      </trkpt>
      <trkpt lat="45.69019" lon="6.52506">
        <ele>1846</ele>
        <time>2014-03-17T13:21:30Z</time>
      </trkpt>
      <trkpt lat="45.69015" lon="6.525">
        <ele>1846</ele>
        <time>2014-03-17T13:21:38Z</time>
      </trkpt>
      <trkpt lat="45.69011" lon="6.52493">
        <ele>1846</ele>
        <time>2014-03-17T13:21:45Z</time>
      </trkpt>
      <trkpt lat="45.69008" lon="6.52486">
        <ele>1846</ele>
        <time>2014-03-17T13:21:53Z</time>
      </trkpt>
      <trkpt lat="45.69003" lon="6.5248">
        <ele>1846</ele>
        <time>2014-03-17T13:22:05Z</time>
      </trkpt>
      <trkpt lat="45.68998" lon="6.5248">
        <ele>1846</ele>
        <time>2014-03-17T13:22:14Z</time>
      </trkpt>
      <trkpt lat="45.68993" lon="6.52482">
        <ele>1846</ele>
        <time>2014-03-17T13:22:22Z</time>
      </trkpt>
      <trkpt lat="45.68987" lon="6.52487">
        <ele>1846</ele>
        <time>2014-03-17T13:22:31Z</time>
      </trkpt>
      <trkpt lat="45.68982" lon="6.52494">
        <ele>1846</ele>
        <time>2014-03-17T13:22:39Z</time>
      </trkpt>
      <trkpt lat="45.68978" lon="6.52503">
        <ele>1846</ele>
        <time>2014-03-17T13:22:47Z</time>
      </trkpt>
      <trkpt lat="45.68972" lon="6.52509">
        <ele>1845</ele>
        <time>2014-03-17T13:22:55Z</time>
      </trkpt>
      <trkpt lat="45.68966" lon="6.52513">
        <ele>1845</ele>
        <time>2014-03-17T13:23:03Z</time>
      </trkpt>
      <trkpt lat="45.6896" lon="6.52518">
        <ele>1845</ele>
        <time>2014-03-17T13:23:11Z</time>
      </trkpt>
      <trkpt lat="45.68955" lon="6.52525">
        <ele>1845</ele>
        <time>2014-03-17T13:23:19Z</time>
      </trkpt>
      <trkpt lat="45.68952" lon="6.52534">
        <ele>1845</ele>
        <time>2014-03-17T13:23:27Z</time>
      </trkpt>
      <trkpt lat="45.68948" lon="6.52542">
        <ele>1844</ele>
        <time>2014-03-17T13:23:35Z</time>
      </trkpt>
      <trkpt lat="45.6895" lon="6.5255">
        <ele>1842</ele>
        <time>2014-03-17T13:23:51Z</time>
      </trkpt>
      <trkpt lat="45.68954" lon="6.52559">
        <ele>1841</ele>
        <time>2014-03-17T13:23:59Z</time>
      </trkpt>
      <trkpt lat="45.68958" lon="6.52568">
        <ele>1840</ele>
        <time>2014-03-17T13:24:07Z</time>
      </trkpt>
      <trkpt lat="45.68962" lon="6.52577">
        <ele>1839</ele>
        <time>2014-03-17T13:24:15Z</time>
      </trkpt>
      <trkpt lat="45.68966" lon="6.52586">
        <ele>1837</ele>
        <time>2014-03-17T13:24:23Z</time>
      </trkpt>
      <trkpt lat="45.68968" lon="6.52591">
        <ele>1835</ele>
        <time>2014-03-17T13:24:37Z</time>
      </trkpt>
      <trkpt lat="45.6897" lon="6.526">
        <ele>1833</ele>
        <time>2014-03-17T13:24:46Z</time>
      </trkpt>
      <trkpt lat="45.68972" lon="6.5261">
        <ele>1832</ele>
        <time>2014-03-17T13:24:53Z</time>
      </trkpt>
      <trkpt lat="45.68974" lon="6.52619">
        <ele>1831</ele>
        <time>2014-03-17T13:25:00Z</time>
      </trkpt>
      <trkpt lat="45.68975" lon="6.52627">
        <ele>1830</ele>
        <time>2014-03-17T13:25:06Z</time>
      </trkpt>
      <trkpt lat="45.68976" lon="6.52634">
        <ele>1830</ele>
        <time>2014-03-17T13:25:11Z</time>
      </trkpt>
      <trkpt lat="45.6898" lon="6.52643">
        <ele>1829</ele>
        <time>2014-03-17T13:25:19Z</time>
      </trkpt>
      <trkpt lat="45.68982" lon="6.52653">
        <ele>1829</ele>
        <time>2014-03-17T13:25:26Z</time>
      </trkpt>
      <trkpt lat="45.68983" lon="6.52661">
        <ele>1827</ele>
        <time>2014-03-17T13:25:43Z</time>
      </trkpt>
      <trkpt lat="45.6898" lon="6.52663">
        <ele>1827</ele>
        <time>2014-03-17T13:26:42Z</time>
      </trkpt>
      <trkpt lat="45.68978" lon="6.52658">
        <ele>1827</ele>
        <time>2014-03-17T13:26:56Z</time>
      </trkpt>
      <trkpt lat="45.68978" lon="6.5265">
        <ele>1827</ele>
        <time>2014-03-17T13:27:04Z</time>
      </trkpt>
      <trkpt lat="45.68976" lon="6.52644">
        <ele>1827</ele>
        <time>2014-03-17T13:27:19Z</time>
      </trkpt>
      <trkpt lat="45.68973" lon="6.52636">
        <ele>1827</ele>
        <time>2014-03-17T13:27:27Z</time>
      </trkpt>
      <trkpt lat="45.68971" lon="6.52628">
        <ele>1827</ele>
        <time>2014-03-17T13:27:35Z</time>
      </trkpt>
      <trkpt lat="45.6897" lon="6.5262">
        <ele>1827</ele>
        <time>2014-03-17T13:27:43Z</time>
      </trkpt>
      <trkpt lat="45.68968" lon="6.52611">
        <ele>1827</ele>
        <time>2014-03-17T13:27:51Z</time>
      </trkpt>
      <trkpt lat="45.68967" lon="6.52602">
        <ele>1827</ele>
        <time>2014-03-17T13:27:59Z</time>
      </trkpt>
      <trkpt lat="45.68965" lon="6.52595">
        <ele>1828</ele>
        <time>2014-03-17T13:28:07Z</time>
      </trkpt>
      <trkpt lat="45.68963" lon="6.52588">
        <ele>1829</ele>
        <time>2014-03-17T13:28:15Z</time>
      </trkpt>
      <trkpt lat="45.6896" lon="6.52582">
        <ele>1831</ele>
        <time>2014-03-17T13:28:23Z</time>
      </trkpt>
      <trkpt lat="45.68958" lon="6.52575">
        <ele>1834</ele>
        <time>2014-03-17T13:28:33Z</time>
      </trkpt>
      <trkpt lat="45.68954" lon="6.52568">
        <ele>1835</ele>
        <time>2014-03-17T13:28:42Z</time>
      </trkpt>
      <trkpt lat="45.68951" lon="6.52561">
        <ele>1836</ele>
        <time>2014-03-17T13:28:52Z</time>
      </trkpt>
      <trkpt lat="45.68948" lon="6.52553">
        <ele>1836</ele>
        <time>2014-03-17T13:29:02Z</time>
      </trkpt>
      <trkpt lat="45.68944" lon="6.52546">
        <ele>1838</ele>
        <time>2014-03-17T13:29:11Z</time>
      </trkpt>
      <trkpt lat="45.68943" lon="6.52539">
        <ele>1840</ele>
        <time>2014-03-17T13:29:18Z</time>
      </trkpt>
      <trkpt lat="45.68941" lon="6.52531">
        <ele>1840</ele>
        <time>2014-03-17T13:29:26Z</time>
      </trkpt>
      <trkpt lat="45.68937" lon="6.52525">
        <ele>1840</ele>
        <time>2014-03-17T13:29:35Z</time>
      </trkpt>
      <trkpt lat="45.68932" lon="6.52518">
        <ele>1840</ele>
        <time>2014-03-17T13:29:45Z</time>
      </trkpt>
      <trkpt lat="45.68927" lon="6.52517">
        <ele>1839</ele>
        <time>2014-03-17T13:29:59Z</time>
      </trkpt>
      <trkpt lat="45.68922" lon="6.52515">
        <ele>1838</ele>
        <time>2014-03-17T13:30:12Z</time>
      </trkpt>
      <trkpt lat="45.68916" lon="6.5251">
        <ele>1835</ele>
        <time>2014-03-17T13:30:22Z</time>
      </trkpt>
      <trkpt lat="45.68911" lon="6.52504">
        <ele>1834</ele>
        <time>2014-03-17T13:30:33Z</time>
      </trkpt>
      <trkpt lat="45.68906" lon="6.52498">
        <ele>1833</ele>
        <time>2014-03-17T13:30:42Z</time>
      </trkpt>
      <trkpt lat="45.68901" lon="6.52493">
        <ele>1833</ele>
        <time>2014-03-17T13:30:50Z</time>
      </trkpt>
      <trkpt lat="45.68895" lon="6.52492">
        <ele>1832</ele>
        <time>2014-03-17T13:30:58Z</time>
      </trkpt>
      <trkpt lat="45.6889" lon="6.5249">
        <ele>1832</ele>
        <time>2014-03-17T13:31:07Z</time>
      </trkpt>
      <trkpt lat="45.68885" lon="6.52487">
        <ele>1830</ele>
        <time>2014-03-17T13:31:16Z</time>
      </trkpt>
      <trkpt lat="45.6888" lon="6.52484">
        <ele>1827</ele>
        <time>2014-03-17T13:31:24Z</time>
      </trkpt>
      <trkpt lat="45.68874" lon="6.52487">
        <ele>1826</ele>
        <time>2014-03-17T13:31:33Z</time>
      </trkpt>
      <trkpt lat="45.68869" lon="6.5249">
        <ele>1824</ele>
        <time>2014-03-17T13:31:41Z</time>
      </trkpt>
      <trkpt lat="45.68864" lon="6.52498">
        <ele>1824</ele>
        <time>2014-03-17T13:31:49Z</time>
      </trkpt>
      <trkpt lat="45.6886" lon="6.52505">
        <ele>1824</ele>
        <time>2014-03-17T13:31:57Z</time>
      </trkpt>
      <trkpt lat="45.68858" lon="6.52512">
        <ele>1824</ele>
        <time>2014-03-17T13:32:05Z</time>
      </trkpt>
      <trkpt lat="45.68856" lon="6.5252">
        <ele>1824</ele>
        <time>2014-03-17T13:32:12Z</time>
      </trkpt>
      <trkpt lat="45.68856" lon="6.52527">
        <ele>1824</ele>
        <time>2014-03-17T13:32:19Z</time>
      </trkpt>
      <trkpt lat="45.68855" lon="6.52535">
        <ele>1824</ele>
        <time>2014-03-17T13:32:24Z</time>
      </trkpt>
      <trkpt lat="45.68857" lon="6.52545">
        <ele>1824</ele>
        <time>2014-03-17T13:32:32Z</time>
      </trkpt>
      <trkpt lat="45.68858" lon="6.52553">
        <ele>1824</ele>
        <time>2014-03-17T13:32:51Z</time>
      </trkpt>
      <trkpt lat="45.68859" lon="6.52563">
        <ele>1824</ele>
        <time>2014-03-17T13:32:59Z</time>
      </trkpt>
      <trkpt lat="45.68861" lon="6.5257">
        <ele>1824</ele>
        <time>2014-03-17T13:33:04Z</time>
      </trkpt>
      <trkpt lat="45.68863" lon="6.52579">
        <ele>1824</ele>
        <time>2014-03-17T13:33:11Z</time>
      </trkpt>
      <trkpt lat="45.68865" lon="6.52589">
        <ele>1823</ele>
        <time>2014-03-17T13:33:19Z</time>
      </trkpt>
      <trkpt lat="45.68867" lon="6.52598">
        <ele>1823</ele>
        <time>2014-03-17T13:33:27Z</time>
      </trkpt>
      <trkpt lat="45.68869" lon="6.52608">
        <ele>1822</ele>
        <time>2014-03-17T13:33:35Z</time>
      </trkpt>
      <trkpt lat="45.6887" lon="6.52617">
        <ele>1821</ele>
        <time>2014-03-17T13:33:43Z</time>
      </trkpt>
      <trkpt lat="45.68871" lon="6.52628">
        <ele>1820</ele>
        <time>2014-03-17T13:33:51Z</time>
      </trkpt>
      <trkpt lat="45.68871" lon="6.52637">
        <ele>1819</ele>
        <time>2014-03-17T13:33:58Z</time>
      </trkpt>
      <trkpt lat="45.68871" lon="6.52645">
        <ele>1818</ele>
        <time>2014-03-17T13:34:04Z</time>
      </trkpt>
      <trkpt lat="45.68874" lon="6.52655">
        <ele>1818</ele>
        <time>2014-03-17T13:34:12Z</time>
      </trkpt>
      <trkpt lat="45.68876" lon="6.52663">
        <ele>1817</ele>
        <time>2014-03-17T13:34:20Z</time>
      </trkpt>
      <trkpt lat="45.68879" lon="6.52672">
        <ele>1817</ele>
        <time>2014-03-17T13:34:28Z</time>
      </trkpt>
      <trkpt lat="45.68882" lon="6.5268">
        <ele>1816</ele>
        <time>2014-03-17T13:34:36Z</time>
      </trkpt>
      <trkpt lat="45.68886" lon="6.52689">
        <ele>1816</ele>
        <time>2014-03-17T13:34:44Z</time>
      </trkpt>
      <trkpt lat="45.68889" lon="6.52697">
        <ele>1815</ele>
        <time>2014-03-17T13:34:52Z</time>
      </trkpt>
      <trkpt lat="45.68891" lon="6.52705">
        <ele>1815</ele>
        <time>2014-03-17T13:35:00Z</time>
      </trkpt>
      <trkpt lat="45.68894" lon="6.52713">
        <ele>1814</ele>
        <time>2014-03-17T13:35:08Z</time>
      </trkpt>
      <trkpt lat="45.68896" lon="6.52722">
        <ele>1813</ele>
        <time>2014-03-17T13:35:16Z</time>
      </trkpt>
      <trkpt lat="45.68899" lon="6.5273">
        <ele>1812</ele>
        <time>2014-03-17T13:35:24Z</time>
      </trkpt>
      <trkpt lat="45.68901" lon="6.52739">
        <ele>1812</ele>
        <time>2014-03-17T13:35:32Z</time>
      </trkpt>
      <trkpt lat="45.68904" lon="6.52747">
        <ele>1812</ele>
        <time>2014-03-17T13:35:40Z</time>
      </trkpt>
      <trkpt lat="45.68907" lon="6.52755">
        <ele>1812</ele>
        <time>2014-03-17T13:35:48Z</time>
      </trkpt>
      <trkpt lat="45.68909" lon="6.52764">
        <ele>1812</ele>
        <time>2014-03-17T13:35:56Z</time>
      </trkpt>
      <trkpt lat="45.68912" lon="6.52772">
        <ele>1811</ele>
        <time>2014-03-17T13:36:04Z</time>
      </trkpt>
      <trkpt lat="45.68914" lon="6.5278">
        <ele>1810</ele>
        <time>2014-03-17T13:36:12Z</time>
      </trkpt>
      <trkpt lat="45.68917" lon="6.52788">
        <ele>1810</ele>
        <time>2014-03-17T13:36:20Z</time>
      </trkpt>
      <trkpt lat="45.6892" lon="6.52796">
        <ele>1810</ele>
        <time>2014-03-17T13:36:28Z</time>
      </trkpt>
      <trkpt lat="45.68922" lon="6.52804">
        <ele>1809</ele>
        <time>2014-03-17T13:36:36Z</time>
      </trkpt>
      <trkpt lat="45.68925" lon="6.52811">
        <ele>1809</ele>
        <time>2014-03-17T13:36:44Z</time>
      </trkpt>
      <trkpt lat="45.68928" lon="6.52818">
        <ele>1809</ele>
        <time>2014-03-17T13:36:52Z</time>
      </trkpt>
      <trkpt lat="45.68931" lon="6.52824">
        <ele>1809</ele>
        <time>2014-03-17T13:37:00Z</time>
      </trkpt>
      <trkpt lat="45.68936" lon="6.52831">
        <ele>1809</ele>
        <time>2014-03-17T13:37:09Z</time>
      </trkpt>
      <trkpt lat="45.68941" lon="6.52838">
        <ele>1809</ele>
        <time>2014-03-17T13:37:18Z</time>
      </trkpt>
      <trkpt lat="45.68944" lon="6.52844">
        <ele>1809</ele>
        <time>2014-03-17T13:37:32Z</time>
      </trkpt>
      <trkpt lat="45.68947" lon="6.52851">
        <ele>1809</ele>
        <time>2014-03-17T13:37:41Z</time>
      </trkpt>
      <trkpt lat="45.6895" lon="6.52858">
        <ele>1809</ele>
        <time>2014-03-17T13:37:49Z</time>
      </trkpt>
      <trkpt lat="45.6895" lon="6.52867">
        <ele>1809</ele>
        <time>2014-03-17T13:37:56Z</time>
      </trkpt>
      <trkpt lat="45.68951" lon="6.52876">
        <ele>1809</ele>
        <time>2014-03-17T13:38:04Z</time>
      </trkpt>
      <trkpt lat="45.6895" lon="6.52885">
        <ele>1809</ele>
        <time>2014-03-17T13:38:12Z</time>
      </trkpt>
      <trkpt lat="45.68945" lon="6.52893">
        <ele>1809</ele>
        <time>2014-03-17T13:38:20Z</time>
      </trkpt>
      <trkpt lat="45.68939" lon="6.529">
        <ele>1809</ele>
        <time>2014-03-17T13:38:28Z</time>
      </trkpt>
      <trkpt lat="45.68936" lon="6.52907">
        <ele>1809</ele>
        <time>2014-03-17T13:38:36Z</time>
      </trkpt>
      <trkpt lat="45.68935" lon="6.52915">
        <ele>1809</ele>
        <time>2014-03-17T13:38:43Z</time>
      </trkpt>
      <trkpt lat="45.68934" lon="6.52923">
        <ele>1809</ele>
        <time>2014-03-17T13:38:51Z</time>
      </trkpt>
      <trkpt lat="45.68934" lon="6.52928">
        <ele>1810</ele>
        <time>2014-03-17T13:39:24Z</time>
      </trkpt>
      <trkpt lat="45.68933" lon="6.5293">
        <ele>1811</ele>
        <time>2014-03-17T13:41:08Z</time>
      </trkpt>
      <trkpt lat="45.68934" lon="6.52936">
        <ele>1816</ele>
        <time>2014-03-17T13:41:16Z</time>
      </trkpt>
      <trkpt lat="45.68934" lon="6.52934">
        <ele>1820</ele>
        <time>2014-03-17T13:41:32Z</time>
      </trkpt>
      <trkpt lat="45.68932" lon="6.52929">
        <ele>1820</ele>
        <time>2014-03-17T13:41:49Z</time>
      </trkpt>
      <trkpt lat="45.68933" lon="6.52923">
        <ele>1816</ele>
        <time>2014-03-17T13:42:46Z</time>
      </trkpt>
      <trkpt lat="45.68934" lon="6.52925">
        <ele>1816</ele>
        <time>2014-03-17T13:44:52Z</time>
      </trkpt>
      <trkpt lat="45.68935" lon="6.5292">
        <ele>1813</ele>
        <time>2014-03-17T13:45:17Z</time>
      </trkpt>
      <trkpt lat="45.68929" lon="6.52928">
        <ele>1813</ele>
        <time>2014-03-17T13:45:44Z</time>
      </trkpt>
      <trkpt lat="45.68929" lon="6.5293">
        <ele>1816</ele>
        <time>2014-03-17T13:46:13Z</time>
      </trkpt>
      <trkpt lat="45.68933" lon="6.5293">
        <ele>1816</ele>
        <time>2014-03-17T13:46:31Z</time>
      </trkpt>
      <trkpt lat="45.68938" lon="6.52934">
        <ele>1816</ele>
        <time>2014-03-17T13:46:51Z</time>
      </trkpt>
      <trkpt lat="45.68943" lon="6.52934">
        <ele>1814</ele>
        <time>2014-03-17T13:46:59Z</time>
      </trkpt>
      <trkpt lat="45.68949" lon="6.52933">
        <ele>1813</ele>
        <time>2014-03-17T13:47:10Z</time>
      </trkpt>
      <trkpt lat="45.68946" lon="6.52935">
        <ele>1812</ele>
        <time>2014-03-17T13:47:23Z</time>
      </trkpt>
      <trkpt lat="45.68941" lon="6.52939">
        <ele>1811</ele>
        <time>2014-03-17T13:47:33Z</time>
      </trkpt>
      <trkpt lat="45.68936" lon="6.52945">
        <ele>1809</ele>
        <time>2014-03-17T13:47:51Z</time>
      </trkpt>
      <trkpt lat="45.68937" lon="6.52941">
        <ele>1809</ele>
        <time>2014-03-17T13:48:06Z</time>
      </trkpt>
      <trkpt lat="45.68935" lon="6.52934">
        <ele>1809</ele>
        <time>2014-03-17T13:48:18Z</time>
      </trkpt>
      <trkpt lat="45.68935" lon="6.52933">
        <ele>1809</ele>
        <time>2014-03-17T13:48:30Z</time>
      </trkpt>
      <trkpt lat="45.6893" lon="6.52939">
        <ele>1809</ele>
        <time>2014-03-17T13:48:40Z</time>
      </trkpt>
      <trkpt lat="45.68932" lon="6.52935">
        <ele>1809</ele>
        <time>2014-03-17T13:48:53Z</time>
      </trkpt>
      <trkpt lat="45.68932" lon="6.5294">
        <ele>1793</ele>
        <time>2014-03-17T13:49:21Z</time>
      </trkpt>
      <trkpt lat="45.68931" lon="6.52936">
        <ele>1807</ele>
        <time>2014-03-17T13:49:43Z</time>
      </trkpt>
      <trkpt lat="45.68934" lon="6.52934">
        <ele>1818</ele>
        <time>2014-03-17T13:50:19Z</time>
      </trkpt>
      <trkpt lat="45.68938" lon="6.52927">
        <ele>1824</ele>
        <time>2014-03-17T13:50:32Z</time>
      </trkpt>
      <trkpt lat="45.68933" lon="6.5293">
        <ele>1816</ele>
        <time>2014-03-17T13:50:58Z</time>
      </trkpt>
      <trkpt lat="45.68933" lon="6.52933">
        <ele>1815</ele>
        <time>2014-03-17T13:51:28Z</time>
      </trkpt>
      <trkpt lat="45.68934" lon="6.52928">
        <ele>1814</ele>
        <time>2014-03-17T13:51:48Z</time>
      </trkpt>
      <trkpt lat="45.68932" lon="6.52935">
        <ele>1814</ele>
        <time>2014-03-17T13:52:17Z</time>
      </trkpt>
      <trkpt lat="45.68931" lon="6.52936">
        <ele>1814</ele>
        <time>2014-03-17T13:52:50Z</time>
      </trkpt>
      <trkpt lat="45.68932" lon="6.52932">
        <ele>1814</ele>
        <time>2014-03-17T13:53:17Z</time>
      </trkpt>
      <trkpt lat="45.68934" lon="6.52931">
        <ele>1812</ele>
        <time>2014-03-17T13:53:43Z</time>
      </trkpt>
      <trkpt lat="45.6893" lon="6.52931">
        <ele>1812</ele>
        <time>2014-03-17T13:53:58Z</time>
      </trkpt>
      <trkpt lat="45.6893" lon="6.52924">
        <ele>1812</ele>
        <time>2014-03-17T13:54:04Z</time>
      </trkpt>
      <trkpt lat="45.6893" lon="6.52915">
        <ele>1812</ele>
        <time>2014-03-17T13:54:13Z</time>
      </trkpt>
      <trkpt lat="45.68931" lon="6.52907">
        <ele>1813</ele>
        <time>2014-03-17T13:54:21Z</time>
      </trkpt>
      <trkpt lat="45.68932" lon="6.52902">
        <ele>1818</ele>
        <time>2014-03-17T13:54:59Z</time>
      </trkpt>
      <trkpt lat="45.68932" lon="6.52906">
        <ele>1817</ele>
        <time>2014-03-17T13:55:11Z</time>
      </trkpt>
      <trkpt lat="45.68928" lon="6.52913">
        <ele>1817</ele>
        <time>2014-03-17T13:55:20Z</time>
      </trkpt>
      <trkpt lat="45.68927" lon="6.52916">
        <ele>1817</ele>
        <time>2014-03-17T13:55:50Z</time>
      </trkpt>
      <trkpt lat="45.68922" lon="6.52924">
        <ele>1817</ele>
        <time>2014-03-17T13:56:04Z</time>
      </trkpt>
      <trkpt lat="45.68914" lon="6.52937">
        <ele>1819</ele>
        <time>2014-03-17T13:56:09Z</time>
      </trkpt>
      <trkpt lat="45.6892" lon="6.52927">
        <ele>1822</ele>
        <time>2014-03-17T13:56:17Z</time>
      </trkpt>
      <trkpt lat="45.68924" lon="6.52919">
        <ele>1822</ele>
        <time>2014-03-17T13:56:26Z</time>
      </trkpt>
      <trkpt lat="45.68928" lon="6.52912">
        <ele>1820</ele>
        <time>2014-03-17T13:56:43Z</time>
      </trkpt>
      <trkpt lat="45.68934" lon="6.52904">
        <ele>1819</ele>
        <time>2014-03-17T13:56:49Z</time>
      </trkpt>
      <trkpt lat="45.68939" lon="6.52898">
        <ele>1818</ele>
        <time>2014-03-17T13:56:53Z</time>
      </trkpt>
      <trkpt lat="45.68945" lon="6.52889">
        <ele>1817</ele>
        <time>2014-03-17T13:56:59Z</time>
      </trkpt>
      <trkpt lat="45.68951" lon="6.52881">
        <ele>1817</ele>
        <time>2014-03-17T13:57:06Z</time>
      </trkpt>
      <trkpt lat="45.68958" lon="6.52872">
        <ele>1816</ele>
        <time>2014-03-17T13:57:14Z</time>
      </trkpt>
      <trkpt lat="45.68964" lon="6.52864">
        <ele>1814</ele>
        <time>2014-03-17T13:57:22Z</time>
      </trkpt>
      <trkpt lat="45.6897" lon="6.52856">
        <ele>1811</ele>
        <time>2014-03-17T13:57:29Z</time>
      </trkpt>
      <trkpt lat="45.68977" lon="6.5285">
        <ele>1809</ele>
        <time>2014-03-17T13:57:37Z</time>
      </trkpt>
      <trkpt lat="45.68982" lon="6.52842">
        <ele>1805</ele>
        <time>2014-03-17T13:57:45Z</time>
      </trkpt>
      <trkpt lat="45.6899" lon="6.52835">
        <ele>1804</ele>
        <time>2014-03-17T13:57:53Z</time>
      </trkpt>
      <trkpt lat="45.68997" lon="6.52831">
        <ele>1804</ele>
        <time>2014-03-17T13:58:00Z</time>
      </trkpt>
      <trkpt lat="45.69003" lon="6.52829">
        <ele>1803</ele>
        <time>2014-03-17T13:58:07Z</time>
      </trkpt>
      <trkpt lat="45.6901" lon="6.52825">
        <ele>1803</ele>
        <time>2014-03-17T13:58:15Z</time>
      </trkpt>
      <trkpt lat="45.69017" lon="6.52825">
        <ele>1803</ele>
        <time>2014-03-17T13:58:23Z</time>
      </trkpt>
      <trkpt lat="45.69022" lon="6.52826">
        <ele>1803</ele>
        <time>2014-03-17T13:58:33Z</time>
      </trkpt>
      <trkpt lat="45.69028" lon="6.52825">
        <ele>1803</ele>
        <time>2014-03-17T13:58:40Z</time>
      </trkpt>
      <trkpt lat="45.69034" lon="6.52824">
        <ele>1803</ele>
        <time>2014-03-17T13:58:48Z</time>
      </trkpt>
      <trkpt lat="45.69041" lon="6.52824">
        <ele>1801</ele>
        <time>2014-03-17T13:58:55Z</time>
      </trkpt>
      <trkpt lat="45.69048" lon="6.52825">
        <ele>1800</ele>
        <time>2014-03-17T13:59:02Z</time>
      </trkpt>
      <trkpt lat="45.69054" lon="6.52828">
        <ele>1799</ele>
        <time>2014-03-17T13:59:09Z</time>
      </trkpt>
      <trkpt lat="45.6906" lon="6.52834">
        <ele>1797</ele>
        <time>2014-03-17T13:59:17Z</time>
      </trkpt>
      <trkpt lat="45.69066" lon="6.5284">
        <ele>1797</ele>
        <time>2014-03-17T13:59:25Z</time>
      </trkpt>
      <trkpt lat="45.69072" lon="6.52845">
        <ele>1797</ele>
        <time>2014-03-17T13:59:32Z</time>
      </trkpt>
      <trkpt lat="45.69075" lon="6.52852">
        <ele>1796</ele>
        <time>2014-03-17T13:59:40Z</time>
      </trkpt>
      <trkpt lat="45.69075" lon="6.52855">
        <ele>1796</ele>
        <time>2014-03-17T13:59:52Z</time>
      </trkpt>
      <trkpt lat="45.6907" lon="6.52856">
        <ele>1796</ele>
        <time>2014-03-17T14:00:06Z</time>
      </trkpt>
      <trkpt lat="45.69066" lon="6.52855">
        <ele>1793</ele>
        <time>2014-03-17T14:00:23Z</time>
      </trkpt>
      <trkpt lat="45.69066" lon="6.52852">
        <ele>1792</ele>
        <time>2014-03-17T14:00:56Z</time>
      </trkpt>
      <trkpt lat="45.69071" lon="6.52843">
        <ele>1792</ele>
        <time>2014-03-17T14:01:03Z</time>
      </trkpt>
      <trkpt lat="45.69074" lon="6.52836">
        <ele>1792</ele>
        <time>2014-03-17T14:01:12Z</time>
      </trkpt>
      <trkpt lat="45.69072" lon="6.5283">
        <ele>1792</ele>
        <time>2014-03-17T14:01:26Z</time>
      </trkpt>
      <trkpt lat="45.69069" lon="6.52823">
        <ele>1792</ele>
        <time>2014-03-17T14:01:34Z</time>
      </trkpt>
      <trkpt lat="45.69068" lon="6.52815">
        <ele>1792</ele>
        <time>2014-03-17T14:01:42Z</time>
      </trkpt>
      <trkpt lat="45.69066" lon="6.52808">
        <ele>1792</ele>
        <time>2014-03-17T14:01:50Z</time>
      </trkpt>
      <trkpt lat="45.69065" lon="6.52801">
        <ele>1794</ele>
        <time>2014-03-17T14:01:59Z</time>
      </trkpt>
      <trkpt lat="45.69063" lon="6.52794">
        <ele>1797</ele>
        <time>2014-03-17T14:02:09Z</time>
      </trkpt>
      <trkpt lat="45.69062" lon="6.52787">
        <ele>1797</ele>
        <time>2014-03-17T14:02:17Z</time>
      </trkpt>
      <trkpt lat="45.69063" lon="6.52779">
        <ele>1797</ele>
        <time>2014-03-17T14:02:25Z</time>
      </trkpt>
      <trkpt lat="45.69067" lon="6.52772">
        <ele>1797</ele>
        <time>2014-03-17T14:02:40Z</time>
      </trkpt>
      <trkpt lat="45.69072" lon="6.52767">
        <ele>1798</ele>
        <time>2014-03-17T14:02:53Z</time>
      </trkpt>
      <trkpt lat="45.69076" lon="6.5276">
        <ele>1799</ele>
        <time>2014-03-17T14:03:06Z</time>
      </trkpt>
      <trkpt lat="45.6908" lon="6.52754">
        <ele>1800</ele>
        <time>2014-03-17T14:03:17Z</time>
      </trkpt>
      <trkpt lat="45.69085" lon="6.52747">
        <ele>1803</ele>
        <time>2014-03-17T14:03:30Z</time>
      </trkpt>
      <trkpt lat="45.69089" lon="6.52741">
        <ele>1804</ele>
        <time>2014-03-17T14:03:42Z</time>
      </trkpt>
      <trkpt lat="45.69094" lon="6.52735">
        <ele>1807</ele>
        <time>2014-03-17T14:03:57Z</time>
      </trkpt>
      <trkpt lat="45.69101" lon="6.52737">
        <ele>1807</ele>
        <time>2014-03-17T14:04:11Z</time>
      </trkpt>
      <trkpt lat="45.69106" lon="6.52738">
        <ele>1808</ele>
        <time>2014-03-17T14:04:19Z</time>
      </trkpt>
      <trkpt lat="45.69112" lon="6.52739">
        <ele>1808</ele>
        <time>2014-03-17T14:04:28Z</time>
      </trkpt>
      <trkpt lat="45.69117" lon="6.52741">
        <ele>1808</ele>
        <time>2014-03-17T14:04:39Z</time>
      </trkpt>
      <trkpt lat="45.69124" lon="6.52742">
        <ele>1808</ele>
        <time>2014-03-17T14:04:48Z</time>
      </trkpt>
      <trkpt lat="45.6913" lon="6.52745">
        <ele>1808</ele>
        <time>2014-03-17T14:04:57Z</time>
      </trkpt>
      <trkpt lat="45.69136" lon="6.52749">
        <ele>1808</ele>
        <time>2014-03-17T14:05:06Z</time>
      </trkpt>
      <trkpt lat="45.69142" lon="6.52753">
        <ele>1809</ele>
        <time>2014-03-17T14:05:16Z</time>
      </trkpt>
      <trkpt lat="45.69147" lon="6.52757">
        <ele>1810</ele>
        <time>2014-03-17T14:05:26Z</time>
      </trkpt>
      <trkpt lat="45.69152" lon="6.52759">
        <ele>1810</ele>
        <time>2014-03-17T14:05:34Z</time>
      </trkpt>
      <trkpt lat="45.69158" lon="6.52763">
        <ele>1811</ele>
        <time>2014-03-17T14:05:44Z</time>
      </trkpt>
      <trkpt lat="45.69164" lon="6.52766">
        <ele>1811</ele>
        <time>2014-03-17T14:05:54Z</time>
      </trkpt>
      <trkpt lat="45.6917" lon="6.5277">
        <ele>1812</ele>
        <time>2014-03-17T14:06:06Z</time>
      </trkpt>
      <trkpt lat="45.69175" lon="6.52775">
        <ele>1813</ele>
        <time>2014-03-17T14:06:17Z</time>
      </trkpt>
      <trkpt lat="45.69179" lon="6.52782">
        <ele>1814</ele>
        <time>2014-03-17T14:06:27Z</time>
      </trkpt>
      <trkpt lat="45.69183" lon="6.52788">
        <ele>1815</ele>
        <time>2014-03-17T14:06:38Z</time>
      </trkpt>
      <trkpt lat="45.69189" lon="6.52792">
        <ele>1816</ele>
        <time>2014-03-17T14:06:51Z</time>
      </trkpt>
      <trkpt lat="45.69194" lon="6.52797">
        <ele>1818</ele>
        <time>2014-03-17T14:07:07Z</time>
      </trkpt>
      <trkpt lat="45.69199" lon="6.528">
        <ele>1821</ele>
        <time>2014-03-17T14:07:23Z</time>
      </trkpt>
      <trkpt lat="45.69204" lon="6.52803">
        <ele>1823</ele>
        <time>2014-03-17T14:07:35Z</time>
      </trkpt>
      <trkpt lat="45.69209" lon="6.52802">
        <ele>1825</ele>
        <time>2014-03-17T14:07:53Z</time>
      </trkpt>
      <trkpt lat="45.69215" lon="6.52803">
        <ele>1826</ele>
        <time>2014-03-17T14:08:10Z</time>
      </trkpt>
      <trkpt lat="45.69222" lon="6.52803">
        <ele>1826</ele>
        <time>2014-03-17T14:08:18Z</time>
      </trkpt>
      <trkpt lat="45.69229" lon="6.52805">
        <ele>1826</ele>
        <time>2014-03-17T14:08:26Z</time>
      </trkpt>
      <trkpt lat="45.69233" lon="6.52807">
        <ele>1826</ele>
        <time>2014-03-17T14:08:54Z</time>
      </trkpt>
      <trkpt lat="45.69236" lon="6.5281">
        <ele>1826</ele>
        <time>2014-03-17T14:09:27Z</time>
      </trkpt>
      <trkpt lat="45.6924" lon="6.52817">
        <ele>1826</ele>
        <time>2014-03-17T14:09:39Z</time>
      </trkpt>
      <trkpt lat="45.69243" lon="6.52823">
        <ele>1828</ele>
        <time>2014-03-17T14:09:55Z</time>
      </trkpt>
      <trkpt lat="45.69246" lon="6.52831">
        <ele>1829</ele>
        <time>2014-03-17T14:10:04Z</time>
      </trkpt>
      <trkpt lat="45.69247" lon="6.52839">
        <ele>1829</ele>
        <time>2014-03-17T14:10:11Z</time>
      </trkpt>
      <trkpt lat="45.69247" lon="6.52847">
        <ele>1831</ele>
        <time>2014-03-17T14:10:16Z</time>
      </trkpt>
      <trkpt lat="45.6925" lon="6.52854">
        <ele>1832</ele>
        <time>2014-03-17T14:10:23Z</time>
      </trkpt>
      <trkpt lat="45.69253" lon="6.52863">
        <ele>1832</ele>
        <time>2014-03-17T14:10:31Z</time>
      </trkpt>
      <trkpt lat="45.69256" lon="6.5287">
        <ele>1832</ele>
        <time>2014-03-17T14:10:39Z</time>
      </trkpt>
      <trkpt lat="45.6926" lon="6.52879">
        <ele>1832</ele>
        <time>2014-03-17T14:10:47Z</time>
      </trkpt>
      <trkpt lat="45.69262" lon="6.52887">
        <ele>1832</ele>
        <time>2014-03-17T14:10:54Z</time>
      </trkpt>
      <trkpt lat="45.69266" lon="6.52894">
        <ele>1832</ele>
        <time>2014-03-17T14:11:01Z</time>
      </trkpt>
      <trkpt lat="45.6927" lon="6.52901">
        <ele>1831</ele>
        <time>2014-03-17T14:11:10Z</time>
      </trkpt>
      <trkpt lat="45.69272" lon="6.5291">
        <ele>1831</ele>
        <time>2014-03-17T14:11:17Z</time>
      </trkpt>
      <trkpt lat="45.69275" lon="6.52918">
        <ele>1831</ele>
        <time>2014-03-17T14:11:27Z</time>
      </trkpt>
      <trkpt lat="45.69279" lon="6.52926">
        <ele>1831</ele>
        <time>2014-03-17T14:11:35Z</time>
      </trkpt>
      <trkpt lat="45.69283" lon="6.52933">
        <ele>1831</ele>
        <time>2014-03-17T14:11:42Z</time>
      </trkpt>
      <trkpt lat="45.69285" lon="6.52939">
        <ele>1831</ele>
        <time>2014-03-17T14:11:50Z</time>
      </trkpt>
      <trkpt lat="45.69288" lon="6.52944">
        <ele>1831</ele>
        <time>2014-03-17T14:12:06Z</time>
      </trkpt>
      <trkpt lat="45.69292" lon="6.52951">
        <ele>1831</ele>
        <time>2014-03-17T14:12:13Z</time>
      </trkpt>
      <trkpt lat="45.69296" lon="6.52958">
        <ele>1831</ele>
        <time>2014-03-17T14:12:22Z</time>
      </trkpt>
      <trkpt lat="45.69299" lon="6.52967">
        <ele>1831</ele>
        <time>2014-03-17T14:12:30Z</time>
      </trkpt>
      <trkpt lat="45.69302" lon="6.52976">
        <ele>1831</ele>
        <time>2014-03-17T14:12:38Z</time>
      </trkpt>
      <trkpt lat="45.69306" lon="6.52985">
        <ele>1831</ele>
        <time>2014-03-17T14:12:44Z</time>
      </trkpt>
      <trkpt lat="45.69308" lon="6.52994">
        <ele>1831</ele>
        <time>2014-03-17T14:12:51Z</time>
      </trkpt>
      <trkpt lat="45.6931" lon="6.53004">
        <ele>1831</ele>
        <time>2014-03-17T14:12:58Z</time>
      </trkpt>
      <trkpt lat="45.69311" lon="6.53012">
        <ele>1831</ele>
        <time>2014-03-17T14:13:03Z</time>
      </trkpt>
      <trkpt lat="45.69311" lon="6.53021">
        <ele>1831</ele>
        <time>2014-03-17T14:13:10Z</time>
      </trkpt>
      <trkpt lat="45.69314" lon="6.53031">
        <ele>1831</ele>
        <time>2014-03-17T14:13:18Z</time>
      </trkpt>
      <trkpt lat="45.69317" lon="6.5304">
        <ele>1831</ele>
        <time>2014-03-17T14:13:26Z</time>
      </trkpt>
      <trkpt lat="45.69319" lon="6.53048">
        <ele>1831</ele>
        <time>2014-03-17T14:13:34Z</time>
      </trkpt>
      <trkpt lat="45.69321" lon="6.53056">
        <ele>1831</ele>
        <time>2014-03-17T14:13:41Z</time>
      </trkpt>
      <trkpt lat="45.69322" lon="6.53064">
        <ele>1831</ele>
        <time>2014-03-17T14:13:49Z</time>
      </trkpt>
      <trkpt lat="45.69326" lon="6.53072">
        <ele>1831</ele>
        <time>2014-03-17T14:13:56Z</time>
      </trkpt>
      <trkpt lat="45.69329" lon="6.5308">
        <ele>1831</ele>
        <time>2014-03-17T14:14:07Z</time>
      </trkpt>
      <trkpt lat="45.69331" lon="6.53088">
        <ele>1831</ele>
        <time>2014-03-17T14:14:14Z</time>
      </trkpt>
      <trkpt lat="45.69334" lon="6.53096">
        <ele>1831</ele>
        <time>2014-03-17T14:14:21Z</time>
      </trkpt>
      <trkpt lat="45.69338" lon="6.53105">
        <ele>1831</ele>
        <time>2014-03-17T14:14:29Z</time>
      </trkpt>
      <trkpt lat="45.69342" lon="6.53114">
        <ele>1831</ele>
        <time>2014-03-17T14:14:37Z</time>
      </trkpt>
      <trkpt lat="45.69345" lon="6.53122">
        <ele>1831</ele>
        <time>2014-03-17T14:14:42Z</time>
      </trkpt>
      <trkpt lat="45.69351" lon="6.53131">
        <ele>1831</ele>
        <time>2014-03-17T14:14:50Z</time>
      </trkpt>
      <trkpt lat="45.69353" lon="6.53141">
        <ele>1831</ele>
        <time>2014-03-17T14:14:58Z</time>
      </trkpt>
      <trkpt lat="45.69356" lon="6.53149">
        <ele>1832</ele>
        <time>2014-03-17T14:15:06Z</time>
      </trkpt>
      <trkpt lat="45.69361" lon="6.53155">
        <ele>1832</ele>
        <time>2014-03-17T14:15:14Z</time>
      </trkpt>
      <trkpt lat="45.69365" lon="6.53162">
        <ele>1832</ele>
        <time>2014-03-17T14:15:24Z</time>
      </trkpt>
      <trkpt lat="45.69367" lon="6.53169">
        <ele>1832</ele>
        <time>2014-03-17T14:15:31Z</time>
      </trkpt>
      <trkpt lat="45.69369" lon="6.53179">
        <ele>1832</ele>
        <time>2014-03-17T14:15:38Z</time>
      </trkpt>
      <trkpt lat="45.69373" lon="6.53189">
        <ele>1832</ele>
        <time>2014-03-17T14:15:46Z</time>
      </trkpt>
      <trkpt lat="45.69376" lon="6.53198">
        <ele>1832</ele>
        <time>2014-03-17T14:15:53Z</time>
      </trkpt>
      <trkpt lat="45.69379" lon="6.53208">
        <ele>1832</ele>
        <time>2014-03-17T14:16:01Z</time>
      </trkpt>
      <trkpt lat="45.69382" lon="6.53218">
        <ele>1834</ele>
        <time>2014-03-17T14:16:09Z</time>
      </trkpt>
      <trkpt lat="45.69383" lon="6.53225">
        <ele>1834</ele>
        <time>2014-03-17T14:16:17Z</time>
      </trkpt>
      <trkpt lat="45.69388" lon="6.53231">
        <ele>1834</ele>
        <time>2014-03-17T14:16:25Z</time>
      </trkpt>
      <trkpt lat="45.69393" lon="6.53238">
        <ele>1834</ele>
        <time>2014-03-17T14:16:35Z</time>
      </trkpt>
      <trkpt lat="45.69398" lon="6.53247">
        <ele>1834</ele>
        <time>2014-03-17T14:16:43Z</time>
      </trkpt>
      <trkpt lat="45.69402" lon="6.53256">
        <ele>1834</ele>
        <time>2014-03-17T14:16:51Z</time>
      </trkpt>
      <trkpt lat="45.69407" lon="6.53263">
        <ele>1834</ele>
        <time>2014-03-17T14:17:00Z</time>
      </trkpt>
      <trkpt lat="45.69413" lon="6.53268">
        <ele>1834</ele>
        <time>2014-03-17T14:17:08Z</time>
      </trkpt>
      <trkpt lat="45.69418" lon="6.53274">
        <ele>1834</ele>
        <time>2014-03-17T14:17:16Z</time>
      </trkpt>
      <trkpt lat="45.69424" lon="6.53281">
        <ele>1833</ele>
        <time>2014-03-17T14:17:24Z</time>
      </trkpt>
      <trkpt lat="45.69428" lon="6.53289">
        <ele>1833</ele>
        <time>2014-03-17T14:17:32Z</time>
      </trkpt>
      <trkpt lat="45.69433" lon="6.53295">
        <ele>1833</ele>
        <time>2014-03-17T14:17:40Z</time>
      </trkpt>
      <trkpt lat="45.69438" lon="6.53303">
        <ele>1833</ele>
        <time>2014-03-17T14:17:48Z</time>
      </trkpt>
      <trkpt lat="45.69442" lon="6.5331">
        <ele>1833</ele>
        <time>2014-03-17T14:17:56Z</time>
      </trkpt>
      <trkpt lat="45.69447" lon="6.53317">
        <ele>1833</ele>
        <time>2014-03-17T14:18:04Z</time>
      </trkpt>
      <trkpt lat="45.69452" lon="6.53326">
        <ele>1833</ele>
        <time>2014-03-17T14:18:12Z</time>
      </trkpt>
      <trkpt lat="45.69455" lon="6.53335">
        <ele>1833</ele>
        <time>2014-03-17T14:18:20Z</time>
      </trkpt>
      <trkpt lat="45.69458" lon="6.53344">
        <ele>1833</ele>
        <time>2014-03-17T14:18:28Z</time>
      </trkpt>
      <trkpt lat="45.69462" lon="6.53354">
        <ele>1833</ele>
        <time>2014-03-17T14:18:36Z</time>
      </trkpt>
      <trkpt lat="45.69466" lon="6.53362">
        <ele>1833</ele>
        <time>2014-03-17T14:18:44Z</time>
      </trkpt>
      <trkpt lat="45.69471" lon="6.53371">
        <ele>1833</ele>
        <time>2014-03-17T14:18:52Z</time>
      </trkpt>
      <trkpt lat="45.69475" lon="6.53379">
        <ele>1832</ele>
        <time>2014-03-17T14:19:00Z</time>
      </trkpt>
      <trkpt lat="45.69479" lon="6.53388">
        <ele>1831</ele>
        <time>2014-03-17T14:19:08Z</time>
      </trkpt>
      <trkpt lat="45.69482" lon="6.53397">
        <ele>1829</ele>
        <time>2014-03-17T14:19:16Z</time>
      </trkpt>
      <trkpt lat="45.69488" lon="6.534">
        <ele>1828</ele>
        <time>2014-03-17T14:19:24Z</time>
      </trkpt>
      <trkpt lat="45.69494" lon="6.53405">
        <ele>1826</ele>
        <time>2014-03-17T14:19:31Z</time>
      </trkpt>
      <trkpt lat="45.69499" lon="6.53412">
        <ele>1823</ele>
        <time>2014-03-17T14:19:42Z</time>
      </trkpt>
      <trkpt lat="45.69505" lon="6.53416">
        <ele>1821</ele>
        <time>2014-03-17T14:19:51Z</time>
      </trkpt>
      <trkpt lat="45.69511" lon="6.53423">
        <ele>1819</ele>
        <time>2014-03-17T14:20:01Z</time>
      </trkpt>
      <trkpt lat="45.69517" lon="6.53427">
        <ele>1817</ele>
        <time>2014-03-17T14:20:09Z</time>
      </trkpt>
      <trkpt lat="45.69524" lon="6.53429">
        <ele>1814</ele>
        <time>2014-03-17T14:20:17Z</time>
      </trkpt>
      <trkpt lat="45.6953" lon="6.53431">
        <ele>1812</ele>
        <time>2014-03-17T14:20:22Z</time>
      </trkpt>
      <trkpt lat="45.69536" lon="6.53433">
        <ele>1811</ele>
        <time>2014-03-17T14:20:28Z</time>
      </trkpt>
      <trkpt lat="45.69543" lon="6.53436">
        <ele>1811</ele>
        <time>2014-03-17T14:20:36Z</time>
      </trkpt>
      <trkpt lat="45.69549" lon="6.53438">
        <ele>1811</ele>
        <time>2014-03-17T14:20:42Z</time>
      </trkpt>
      <trkpt lat="45.69554" lon="6.53439">
        <ele>1811</ele>
        <time>2014-03-17T14:20:47Z</time>
      </trkpt>
      <trkpt lat="45.69561" lon="6.5344">
        <ele>1811</ele>
        <time>2014-03-17T14:20:55Z</time>
      </trkpt>
      <trkpt lat="45.69568" lon="6.53441">
        <ele>1811</ele>
        <time>2014-03-17T14:21:02Z</time>
      </trkpt>
      <trkpt lat="45.69575" lon="6.53445">
        <ele>1811</ele>
        <time>2014-03-17T14:21:10Z</time>
      </trkpt>
      <trkpt lat="45.69581" lon="6.5345">
        <ele>1811</ele>
        <time>2014-03-17T14:21:17Z</time>
      </trkpt>
      <trkpt lat="45.6959" lon="6.53452">
        <ele>1810</ele>
        <time>2014-03-17T14:21:25Z</time>
      </trkpt>
      <trkpt lat="45.69597" lon="6.53453">
        <ele>1809</ele>
        <time>2014-03-17T14:21:33Z</time>
      </trkpt>
      <trkpt lat="45.69605" lon="6.53454">
        <ele>1809</ele>
        <time>2014-03-17T14:21:41Z</time>
      </trkpt>
      <trkpt lat="45.69611" lon="6.53455">
        <ele>1809</ele>
        <time>2014-03-17T14:21:47Z</time>
      </trkpt>
      <trkpt lat="45.69618" lon="6.53459">
        <ele>1809</ele>
        <time>2014-03-17T14:21:55Z</time>
      </trkpt>
      <trkpt lat="45.69623" lon="6.53466">
        <ele>1808</ele>
        <time>2014-03-17T14:22:03Z</time>
      </trkpt>
      <trkpt lat="45.69628" lon="6.53471">
        <ele>1808</ele>
        <time>2014-03-17T14:22:11Z</time>
      </trkpt>
      <trkpt lat="45.69633" lon="6.53477">
        <ele>1806</ele>
        <time>2014-03-17T14:22:20Z</time>
      </trkpt>
      <trkpt lat="45.69638" lon="6.53482">
        <ele>1804</ele>
        <time>2014-03-17T14:22:28Z</time>
      </trkpt>
      <trkpt lat="45.69643" lon="6.53488">
        <ele>1803</ele>
        <time>2014-03-17T14:22:37Z</time>
      </trkpt>
      <trkpt lat="45.69649" lon="6.53491">
        <ele>1799</ele>
        <time>2014-03-17T14:22:46Z</time>
      </trkpt>
      <trkpt lat="45.69654" lon="6.53494">
        <ele>1797</ele>
        <time>2014-03-17T14:22:53Z</time>
      </trkpt>
      <trkpt lat="45.69657" lon="6.53501">
        <ele>1794</ele>
        <time>2014-03-17T14:23:01Z</time>
      </trkpt>
      <trkpt lat="45.69664" lon="6.53503">
        <ele>1791</ele>
        <time>2014-03-17T14:23:09Z</time>
      </trkpt>
      <trkpt lat="45.6967" lon="6.53504">
        <ele>1788</ele>
        <time>2014-03-17T14:23:17Z</time>
      </trkpt>
      <trkpt lat="45.69676" lon="6.53508">
        <ele>1786</ele>
        <time>2014-03-17T14:23:24Z</time>
      </trkpt>
      <trkpt lat="45.69682" lon="6.53508">
        <ele>1784</ele>
        <time>2014-03-17T14:23:32Z</time>
      </trkpt>
      <trkpt lat="45.69689" lon="6.53506">
        <ele>1782</ele>
        <time>2014-03-17T14:23:40Z</time>
      </trkpt>
      <trkpt lat="45.69694" lon="6.5351">
        <ele>1781</ele>
        <time>2014-03-17T14:23:52Z</time>
      </trkpt>
      <trkpt lat="45.69694" lon="6.5351">
        <ele>1780</ele>
        <time>2014-03-17T14:25:05Z</time>
      </trkpt>
      <trkpt lat="45.69696" lon="6.53509">
        <ele>1780</ele>
        <time>2014-03-17T14:26:05Z</time>
      </trkpt>
      <trkpt lat="45.69695" lon="6.53511">
        <ele>1780</ele>
        <time>2014-03-17T14:26:39Z</time>
      </trkpt>
      <trkpt lat="45.69696" lon="6.5351">
        <ele>1779</ele>
        <time>2014-03-17T14:27:26Z</time>
      </trkpt>
      <trkpt lat="45.69694" lon="6.5351">
        <ele>1779</ele>
        <time>2014-03-17T14:27:45Z</time>
      </trkpt>
      <trkpt lat="45.69698" lon="6.53509">
        <ele>1779</ele>
        <time>2014-03-17T14:28:13Z</time>
      </trkpt>
      <trkpt lat="45.69705" lon="6.53514">
        <ele>1778</ele>
        <time>2014-03-17T14:28:21Z</time>
      </trkpt>
      <trkpt lat="45.69711" lon="6.53522">
        <ele>1775</ele>
        <time>2014-03-17T14:28:28Z</time>
      </trkpt>
      <trkpt lat="45.69718" lon="6.53528">
        <ele>1773</ele>
        <time>2014-03-17T14:28:37Z</time>
      </trkpt>
      <trkpt lat="45.69727" lon="6.53531">
        <ele>1771</ele>
        <time>2014-03-17T14:28:43Z</time>
      </trkpt>
      <trkpt lat="45.69733" lon="6.53535">
        <ele>1769</ele>
        <time>2014-03-17T14:28:50Z</time>
      </trkpt>
      <trkpt lat="45.69739" lon="6.53539">
        <ele>1767</ele>
        <time>2014-03-17T14:28:57Z</time>
      </trkpt>
      <trkpt lat="45.69745" lon="6.53543">
        <ele>1766</ele>
        <time>2014-03-17T14:29:03Z</time>
      </trkpt>
      <trkpt lat="45.69749" lon="6.53547">
        <ele>1765</ele>
        <time>2014-03-17T14:29:07Z</time>
      </trkpt>
      <trkpt lat="45.69755" lon="6.53548">
        <ele>1765</ele>
        <time>2014-03-17T14:29:13Z</time>
      </trkpt>
      <trkpt lat="45.69761" lon="6.53551">
        <ele>1764</ele>
        <time>2014-03-17T14:29:21Z</time>
      </trkpt>
      <trkpt lat="45.69766" lon="6.53557">
        <ele>1764</ele>
        <time>2014-03-17T14:29:28Z</time>
      </trkpt>
      <trkpt lat="45.69773" lon="6.53559">
        <ele>1762</ele>
        <time>2014-03-17T14:29:37Z</time>
      </trkpt>
      <trkpt lat="45.69779" lon="6.53561">
        <ele>1762</ele>
        <time>2014-03-17T14:29:42Z</time>
      </trkpt>
      <trkpt lat="45.69786" lon="6.53566">
        <ele>1762</ele>
        <time>2014-03-17T14:29:48Z</time>
      </trkpt>
      <trkpt lat="45.69792" lon="6.53571">
        <ele>1761</ele>
        <time>2014-03-17T14:29:55Z</time>
      </trkpt>
      <trkpt lat="45.69797" lon="6.53579">
        <ele>1759</ele>
        <time>2014-03-17T14:30:03Z</time>
      </trkpt>
      <trkpt lat="45.69803" lon="6.53588">
        <ele>1757</ele>
        <time>2014-03-17T14:30:12Z</time>
      </trkpt>
      <trkpt lat="45.69809" lon="6.53596">
        <ele>1756</ele>
        <time>2014-03-17T14:30:18Z</time>
      </trkpt>
      <trkpt lat="45.69815" lon="6.53604">
        <ele>1756</ele>
        <time>2014-03-17T14:30:26Z</time>
      </trkpt>
      <trkpt lat="45.69821" lon="6.5361">
        <ele>1755</ele>
        <time>2014-03-17T14:30:34Z</time>
      </trkpt>
      <trkpt lat="45.69827" lon="6.53618">
        <ele>1755</ele>
        <time>2014-03-17T14:30:42Z</time>
      </trkpt>
      <trkpt lat="45.69828" lon="6.53628">
        <ele>1754</ele>
        <time>2014-03-17T14:30:49Z</time>
      </trkpt>
      <trkpt lat="45.69833" lon="6.53632">
        <ele>1752</ele>
        <time>2014-03-17T14:30:58Z</time>
      </trkpt>
      <trkpt lat="45.69839" lon="6.53636">
        <ele>1749</ele>
        <time>2014-03-17T14:31:05Z</time>
      </trkpt>
      <trkpt lat="45.69844" lon="6.53644">
        <ele>1747</ele>
        <time>2014-03-17T14:31:13Z</time>
      </trkpt>
      <trkpt lat="45.69847" lon="6.53651">
        <ele>1745</ele>
        <time>2014-03-17T14:31:22Z</time>
      </trkpt>
      <trkpt lat="45.69849" lon="6.53657">
        <ele>1742</ele>
        <time>2014-03-17T14:31:30Z</time>
      </trkpt>
      <trkpt lat="45.69852" lon="6.53665">
        <ele>1739</ele>
        <time>2014-03-17T14:31:40Z</time>
      </trkpt>
      <trkpt lat="45.69852" lon="6.53675">
        <ele>1738</ele>
        <time>2014-03-17T14:31:47Z</time>
      </trkpt>
      <trkpt lat="45.69853" lon="6.53684">
        <ele>1737</ele>
        <time>2014-03-17T14:32:01Z</time>
      </trkpt>
      <trkpt lat="45.69851" lon="6.5369">
        <ele>1735</ele>
        <time>2014-03-17T14:32:10Z</time>
      </trkpt>
      <trkpt lat="45.69851" lon="6.53699">
        <ele>1733</ele>
        <time>2014-03-17T14:32:19Z</time>
      </trkpt>
      <trkpt lat="45.69854" lon="6.53706">
        <ele>1733</ele>
        <time>2014-03-17T14:32:23Z</time>
      </trkpt>
      <trkpt lat="45.69856" lon="6.53714">
        <ele>1732</ele>
        <time>2014-03-17T14:32:31Z</time>
      </trkpt>
      <trkpt lat="45.69857" lon="6.53724">
        <ele>1730</ele>
        <time>2014-03-17T14:32:38Z</time>
      </trkpt>
      <trkpt lat="45.69859" lon="6.53732">
        <ele>1728</ele>
        <time>2014-03-17T14:32:48Z</time>
      </trkpt>
      <trkpt lat="45.69859" lon="6.53741">
        <ele>1727</ele>
        <time>2014-03-17T14:32:55Z</time>
      </trkpt>
      <trkpt lat="45.69858" lon="6.5375">
        <ele>1726</ele>
        <time>2014-03-17T14:33:03Z</time>
      </trkpt>
      <trkpt lat="45.69864" lon="6.53749">
        <ele>1722</ele>
        <time>2014-03-17T14:33:14Z</time>
      </trkpt>
      <trkpt lat="45.6987" lon="6.53743">
        <ele>1721</ele>
        <time>2014-03-17T14:33:22Z</time>
      </trkpt>
      <trkpt lat="45.69875" lon="6.53742">
        <ele>1718</ele>
        <time>2014-03-17T14:33:31Z</time>
      </trkpt>
      <trkpt lat="45.69879" lon="6.53748">
        <ele>1716</ele>
        <time>2014-03-17T14:33:38Z</time>
      </trkpt>
      <trkpt lat="45.69883" lon="6.53755">
        <ele>1714</ele>
        <time>2014-03-17T14:33:48Z</time>
      </trkpt>
      <trkpt lat="45.69889" lon="6.53758">
        <ele>1710</ele>
        <time>2014-03-17T14:34:00Z</time>
      </trkpt>
      <trkpt lat="45.69894" lon="6.53762">
        <ele>1707</ele>
        <time>2014-03-17T14:34:08Z</time>
      </trkpt>
      <trkpt lat="45.699" lon="6.53767">
        <ele>1706</ele>
        <time>2014-03-17T14:34:17Z</time>
      </trkpt>
      <trkpt lat="45.69901" lon="6.53774">
        <ele>1706</ele>
        <time>2014-03-17T14:34:25Z</time>
      </trkpt>
      <trkpt lat="45.69896" lon="6.53781">
        <ele>1706</ele>
        <time>2014-03-17T14:34:32Z</time>
      </trkpt>
      <trkpt lat="45.69891" lon="6.53788">
        <ele>1705</ele>
        <time>2014-03-17T14:34:40Z</time>
      </trkpt>
      <trkpt lat="45.69886" lon="6.53796">
        <ele>1705</ele>
        <time>2014-03-17T14:34:49Z</time>
      </trkpt>
      <trkpt lat="45.69883" lon="6.53806">
        <ele>1705</ele>
        <time>2014-03-17T14:34:57Z</time>
      </trkpt>
      <trkpt lat="45.69879" lon="6.53814">
        <ele>1705</ele>
        <time>2014-03-17T14:35:06Z</time>
      </trkpt>
      <trkpt lat="45.69875" lon="6.53821">
        <ele>1705</ele>
        <time>2014-03-17T14:35:13Z</time>
      </trkpt>
      <trkpt lat="45.6987" lon="6.53827">
        <ele>1705</ele>
        <time>2014-03-17T14:35:21Z</time>
      </trkpt>
      <trkpt lat="45.69865" lon="6.53833">
        <ele>1705</ele>
        <time>2014-03-17T14:35:30Z</time>
      </trkpt>
      <trkpt lat="45.6986" lon="6.5384">
        <ele>1705</ele>
        <time>2014-03-17T14:35:37Z</time>
      </trkpt>
      <trkpt lat="45.69857" lon="6.53848">
        <ele>1705</ele>
        <time>2014-03-17T14:35:47Z</time>
      </trkpt>
      <trkpt lat="45.69857" lon="6.53856">
        <ele>1705</ele>
        <time>2014-03-17T14:35:53Z</time>
      </trkpt>
      <trkpt lat="45.69857" lon="6.53865">
        <ele>1705</ele>
        <time>2014-03-17T14:36:01Z</time>
      </trkpt>
      <trkpt lat="45.69858" lon="6.53875">
        <ele>1705</ele>
        <time>2014-03-17T14:36:09Z</time>
      </trkpt>
      <trkpt lat="45.69859" lon="6.53884">
        <ele>1705</ele>
        <time>2014-03-17T14:36:15Z</time>
      </trkpt>
      <trkpt lat="45.69859" lon="6.5389">
        <ele>1705</ele>
        <time>2014-03-17T14:36:20Z</time>
      </trkpt>
      <trkpt lat="45.69859" lon="6.53899">
        <ele>1705</ele>
        <time>2014-03-17T14:36:26Z</time>
      </trkpt>
      <trkpt lat="45.69859" lon="6.53908">
        <ele>1705</ele>
        <time>2014-03-17T14:36:35Z</time>
      </trkpt>
      <trkpt lat="45.69861" lon="6.53916">
        <ele>1705</ele>
        <time>2014-03-17T14:36:43Z</time>
      </trkpt>
      <trkpt lat="45.69861" lon="6.53925">
        <ele>1704</ele>
        <time>2014-03-17T14:36:55Z</time>
      </trkpt>
      <trkpt lat="45.69861" lon="6.53933">
        <ele>1704</ele>
        <time>2014-03-17T14:37:14Z</time>
      </trkpt>
      <trkpt lat="45.69859" lon="6.5394">
        <ele>1704</ele>
        <time>2014-03-17T14:37:45Z</time>
      </trkpt>
      <trkpt lat="45.69862" lon="6.53945">
        <ele>1701</ele>
        <time>2014-03-17T14:39:08Z</time>
      </trkpt>
      <trkpt lat="45.69863" lon="6.53953">
        <ele>1700</ele>
        <time>2014-03-17T14:39:12Z</time>
      </trkpt>
      <trkpt lat="45.69863" lon="6.53962">
        <ele>1699</ele>
        <time>2014-03-17T14:39:20Z</time>
      </trkpt>
      <trkpt lat="45.69862" lon="6.53969">
        <ele>1698</ele>
        <time>2014-03-17T14:39:27Z</time>
      </trkpt>
      <trkpt lat="45.69861" lon="6.53979">
        <ele>1697</ele>
        <time>2014-03-17T14:39:34Z</time>
      </trkpt>
      <trkpt lat="45.69862" lon="6.53988">
        <ele>1696</ele>
        <time>2014-03-17T14:39:43Z</time>
      </trkpt>
      <trkpt lat="45.6986" lon="6.53998">
        <ele>1695</ele>
        <time>2014-03-17T14:39:51Z</time>
      </trkpt>
      <trkpt lat="45.69858" lon="6.54005">
        <ele>1694</ele>
        <time>2014-03-17T14:40:00Z</time>
      </trkpt>
      <trkpt lat="45.69855" lon="6.54014">
        <ele>1692</ele>
        <time>2014-03-17T14:40:09Z</time>
      </trkpt>
      <trkpt lat="45.69852" lon="6.54021">
        <ele>1690</ele>
        <time>2014-03-17T14:40:17Z</time>
      </trkpt>
      <trkpt lat="45.69848" lon="6.54028">
        <ele>1688</ele>
        <time>2014-03-17T14:40:25Z</time>
      </trkpt>
      <trkpt lat="45.69844" lon="6.54035">
        <ele>1687</ele>
        <time>2014-03-17T14:40:33Z</time>
      </trkpt>
      <trkpt lat="45.69841" lon="6.54043">
        <ele>1685</ele>
        <time>2014-03-17T14:40:41Z</time>
      </trkpt>
      <trkpt lat="45.69838" lon="6.5405">
        <ele>1684</ele>
        <time>2014-03-17T14:40:48Z</time>
      </trkpt>
      <trkpt lat="45.69836" lon="6.54058">
        <ele>1683</ele>
        <time>2014-03-17T14:41:05Z</time>
      </trkpt>
      <trkpt lat="45.69833" lon="6.54067">
        <ele>1681</ele>
        <time>2014-03-17T14:41:13Z</time>
      </trkpt>
      <trkpt lat="45.69833" lon="6.54074">
        <ele>1680</ele>
        <time>2014-03-17T14:41:36Z</time>
      </trkpt>
      <trkpt lat="45.69839" lon="6.54077">
        <ele>1680</ele>
        <time>2014-03-17T14:41:45Z</time>
      </trkpt>
      <trkpt lat="45.69844" lon="6.54079">
        <ele>1680</ele>
        <time>2014-03-17T14:41:53Z</time>
      </trkpt>
      <trkpt lat="45.6985" lon="6.5408">
        <ele>1680</ele>
        <time>2014-03-17T14:42:04Z</time>
      </trkpt>
      <trkpt lat="45.69854" lon="6.54085">
        <ele>1680</ele>
        <time>2014-03-17T14:42:17Z</time>
      </trkpt>
      <trkpt lat="45.69855" lon="6.54092">
        <ele>1680</ele>
        <time>2014-03-17T14:42:25Z</time>
      </trkpt>
      <trkpt lat="45.69856" lon="6.54101">
        <ele>1679</ele>
        <time>2014-03-17T14:42:32Z</time>
      </trkpt>
      <trkpt lat="45.69858" lon="6.54108">
        <ele>1679</ele>
        <time>2014-03-17T14:42:43Z</time>
      </trkpt>
      <trkpt lat="45.69859" lon="6.54116">
        <ele>1679</ele>
        <time>2014-03-17T14:42:52Z</time>
      </trkpt>
      <trkpt lat="45.6986" lon="6.54124">
        <ele>1678</ele>
        <time>2014-03-17T14:43:00Z</time>
      </trkpt>
      <trkpt lat="45.69862" lon="6.54132">
        <ele>1677</ele>
        <time>2014-03-17T14:43:08Z</time>
      </trkpt>
      <trkpt lat="45.69865" lon="6.54139">
        <ele>1677</ele>
        <time>2014-03-17T14:43:16Z</time>
      </trkpt>
      <trkpt lat="45.69867" lon="6.54146">
        <ele>1676</ele>
        <time>2014-03-17T14:43:26Z</time>
      </trkpt>
      <trkpt lat="45.69873" lon="6.54152">
        <ele>1676</ele>
        <time>2014-03-17T14:43:39Z</time>
      </trkpt>
      <trkpt lat="45.69878" lon="6.54155">
        <ele>1675</ele>
        <time>2014-03-17T14:43:47Z</time>
      </trkpt>
      <trkpt lat="45.6988" lon="6.54157">
        <ele>1673</ele>
        <time>2014-03-17T14:44:41Z</time>
      </trkpt>
      <trkpt lat="45.69882" lon="6.54157">
        <ele>1673</ele>
        <time>2014-03-17T14:46:52Z</time>
      </trkpt>
      <trkpt lat="45.69886" lon="6.54163">
        <ele>1673</ele>
        <time>2014-03-17T14:47:10Z</time>
      </trkpt>
      <trkpt lat="45.69891" lon="6.54165">
        <ele>1670</ele>
        <time>2014-03-17T14:47:35Z</time>
      </trkpt>
      <trkpt lat="45.69895" lon="6.54171">
        <ele>1668</ele>
        <time>2014-03-17T14:47:53Z</time>
      </trkpt>
      <trkpt lat="45.69899" lon="6.54178">
        <ele>1667</ele>
        <time>2014-03-17T14:48:07Z</time>
      </trkpt>
      <trkpt lat="45.69903" lon="6.54185">
        <ele>1666</ele>
        <time>2014-03-17T14:48:17Z</time>
      </trkpt>
      <trkpt lat="45.69909" lon="6.54194">
        <ele>1665</ele>
        <time>2014-03-17T14:48:28Z</time>
      </trkpt>
      <trkpt lat="45.69914" lon="6.54203">
        <ele>1664</ele>
        <time>2014-03-17T14:48:36Z</time>
      </trkpt>
      <trkpt lat="45.6992" lon="6.54211">
        <ele>1663</ele>
        <time>2014-03-17T14:48:45Z</time>
      </trkpt>
      <trkpt lat="45.69925" lon="6.54218">
        <ele>1662</ele>
        <time>2014-03-17T14:48:52Z</time>
      </trkpt>
      <trkpt lat="45.69929" lon="6.54226">
        <ele>1662</ele>
        <time>2014-03-17T14:49:01Z</time>
      </trkpt>
      <trkpt lat="45.69933" lon="6.54234">
        <ele>1662</ele>
        <time>2014-03-17T14:49:08Z</time>
      </trkpt>
      <trkpt lat="45.69938" lon="6.54241">
        <ele>1662</ele>
        <time>2014-03-17T14:49:17Z</time>
      </trkpt>
      <trkpt lat="45.69944" lon="6.54248">
        <ele>1662</ele>
        <time>2014-03-17T14:49:25Z</time>
      </trkpt>
      <trkpt lat="45.69949" lon="6.54255">
        <ele>1662</ele>
        <time>2014-03-17T14:49:32Z</time>
      </trkpt>
      <trkpt lat="45.69955" lon="6.54262">
        <ele>1662</ele>
        <time>2014-03-17T14:49:40Z</time>
      </trkpt>
      <trkpt lat="45.69955" lon="6.5427">
        <ele>1661</ele>
        <time>2014-03-17T14:49:47Z</time>
      </trkpt>
      <trkpt lat="45.69955" lon="6.54281">
        <ele>1660</ele>
        <time>2014-03-17T14:49:55Z</time>
      </trkpt>
      <trkpt lat="45.69958" lon="6.54288">
        <ele>1659</ele>
        <time>2014-03-17T14:50:02Z</time>
      </trkpt>
      <trkpt lat="45.69963" lon="6.54297">
        <ele>1657</ele>
        <time>2014-03-17T14:50:10Z</time>
      </trkpt>
      <trkpt lat="45.69968" lon="6.54304">
        <ele>1656</ele>
        <time>2014-03-17T14:50:18Z</time>
      </trkpt>
      <trkpt lat="45.69971" lon="6.54311">
        <ele>1653</ele>
        <time>2014-03-17T14:50:26Z</time>
      </trkpt>
      <trkpt lat="45.69976" lon="6.54317">
        <ele>1652</ele>
        <time>2014-03-17T14:50:35Z</time>
      </trkpt>
      <trkpt lat="45.69982" lon="6.54322">
        <ele>1649</ele>
        <time>2014-03-17T14:50:43Z</time>
      </trkpt>
      <trkpt lat="45.69987" lon="6.54329">
        <ele>1646</ele>
        <time>2014-03-17T14:50:55Z</time>
      </trkpt>
      <trkpt lat="45.69989" lon="6.54337">
        <ele>1643</ele>
        <time>2014-03-17T14:51:05Z</time>
      </trkpt>
      <trkpt lat="45.69992" lon="6.54344">
        <ele>1641</ele>
        <time>2014-03-17T14:51:16Z</time>
      </trkpt>
      <trkpt lat="45.69991" lon="6.54352">
        <ele>1640</ele>
        <time>2014-03-17T14:51:25Z</time>
      </trkpt>
      <trkpt lat="45.69991" lon="6.54359">
        <ele>1637</ele>
        <time>2014-03-17T14:51:37Z</time>
      </trkpt>
      <trkpt lat="45.6999" lon="6.54367">
        <ele>1636</ele>
        <time>2014-03-17T14:51:45Z</time>
      </trkpt>
      <trkpt lat="45.6999" lon="6.54376">
        <ele>1635</ele>
        <time>2014-03-17T14:51:52Z</time>
      </trkpt>
      <trkpt lat="45.69989" lon="6.54385">
        <ele>1633</ele>
        <time>2014-03-17T14:52:00Z</time>
      </trkpt>
      <trkpt lat="45.6999" lon="6.54393">
        <ele>1633</ele>
        <time>2014-03-17T14:52:06Z</time>
      </trkpt>
      <trkpt lat="45.69988" lon="6.54402">
        <ele>1632</ele>
        <time>2014-03-17T14:52:13Z</time>
      </trkpt>
      <trkpt lat="45.69988" lon="6.5441">
        <ele>1630</ele>
        <time>2014-03-17T14:52:23Z</time>
      </trkpt>
      <trkpt lat="45.69991" lon="6.54419">
        <ele>1628</ele>
        <time>2014-03-17T14:52:31Z</time>
      </trkpt>
      <trkpt lat="45.69995" lon="6.54426">
        <ele>1627</ele>
        <time>2014-03-17T14:52:40Z</time>
      </trkpt>
      <trkpt lat="45.69998" lon="6.54436">
        <ele>1625</ele>
        <time>2014-03-17T14:52:47Z</time>
      </trkpt>
      <trkpt lat="45.69995" lon="6.54444">
        <ele>1623</ele>
        <time>2014-03-17T14:52:55Z</time>
      </trkpt>
      <trkpt lat="45.69998" lon="6.54451">
        <ele>1621</ele>
        <time>2014-03-17T14:53:08Z</time>
      </trkpt>
      <trkpt lat="45.69998" lon="6.54457">
        <ele>1618</ele>
        <time>2014-03-17T14:53:20Z</time>
      </trkpt>
      <trkpt lat="45.69998" lon="6.54465">
        <ele>1614</ele>
        <time>2014-03-17T14:53:35Z</time>
      </trkpt>
      <trkpt lat="45.69999" lon="6.54472">
        <ele>1611</ele>
        <time>2014-03-17T14:53:47Z</time>
      </trkpt>
      <trkpt lat="45.69998" lon="6.54479">
        <ele>1610</ele>
        <time>2014-03-17T14:54:02Z</time>
      </trkpt>
      <trkpt lat="45.69995" lon="6.54486">
        <ele>1607</ele>
        <time>2014-03-17T14:54:15Z</time>
      </trkpt>
      <trkpt lat="45.69996" lon="6.54493">
        <ele>1607</ele>
        <time>2014-03-17T14:54:35Z</time>
      </trkpt>
      <trkpt lat="45.69999" lon="6.54489">
        <ele>1606</ele>
        <time>2014-03-17T14:54:53Z</time>
      </trkpt>
      <trkpt lat="45.69993" lon="6.54491">
        <ele>1606</ele>
        <time>2014-03-17T14:55:51Z</time>
      </trkpt>
      <trkpt lat="45.69995" lon="6.54486">
        <ele>1606</ele>
        <time>2014-03-17T14:56:35Z</time>
      </trkpt>
      <trkpt lat="45.69989" lon="6.54485">
        <ele>1607</ele>
        <time>2014-03-17T14:56:45Z</time>
      </trkpt>
      <trkpt lat="45.69995" lon="6.54484">
        <ele>1608</ele>
        <time>2014-03-17T14:56:58Z</time>
      </trkpt>
      <trkpt lat="45.7" lon="6.54484">
        <ele>1608</ele>
        <time>2014-03-17T14:57:11Z</time>
      </trkpt>
      <trkpt lat="45.70007" lon="6.54484">
        <ele>1608</ele>
        <time>2014-03-17T14:57:20Z</time>
      </trkpt>
      <trkpt lat="45.70012" lon="6.54483">
        <ele>1608</ele>
        <time>2014-03-17T14:57:27Z</time>
      </trkpt>
      <trkpt lat="45.70018" lon="6.54479">
        <ele>1608</ele>
        <time>2014-03-17T14:57:36Z</time>
      </trkpt>
      <trkpt lat="45.70024" lon="6.54474">
        <ele>1608</ele>
        <time>2014-03-17T14:57:45Z</time>
      </trkpt>
      <trkpt lat="45.70029" lon="6.54471">
        <ele>1608</ele>
        <time>2014-03-17T14:58:00Z</time>
      </trkpt>
      <trkpt lat="45.70035" lon="6.54472">
        <ele>1608</ele>
        <time>2014-03-17T14:58:06Z</time>
      </trkpt>
      <trkpt lat="45.70042" lon="6.5447">
        <ele>1608</ele>
        <time>2014-03-17T14:58:12Z</time>
      </trkpt>
      <trkpt lat="45.70048" lon="6.54471">
        <ele>1608</ele>
        <time>2014-03-17T14:58:20Z</time>
      </trkpt>
      <trkpt lat="45.70046" lon="6.5448">
        <ele>1606</ele>
        <time>2014-03-17T14:58:28Z</time>
      </trkpt>
      <trkpt lat="45.70044" lon="6.54488">
        <ele>1603</ele>
        <time>2014-03-17T14:58:37Z</time>
      </trkpt>
      <trkpt lat="45.70049" lon="6.54492">
        <ele>1599</ele>
        <time>2014-03-17T14:58:45Z</time>
      </trkpt>
      <trkpt lat="45.70049" lon="6.545">
        <ele>1598</ele>
        <time>2014-03-17T14:58:53Z</time>
      </trkpt>
      <trkpt lat="45.7005" lon="6.54505">
        <ele>1596</ele>
        <time>2014-03-17T14:59:01Z</time>
      </trkpt>
      <trkpt lat="45.70047" lon="6.54513">
        <ele>1595</ele>
        <time>2014-03-17T14:59:13Z</time>
      </trkpt>
      <trkpt lat="45.70048" lon="6.54518">
        <ele>1593</ele>
        <time>2014-03-17T14:59:26Z</time>
      </trkpt>
      <trkpt lat="45.70054" lon="6.5452">
        <ele>1593</ele>
        <time>2014-03-17T14:59:33Z</time>
      </trkpt>
      <trkpt lat="45.70052" lon="6.54526">
        <ele>1591</ele>
        <time>2014-03-17T14:59:41Z</time>
      </trkpt>
      <trkpt lat="45.70046" lon="6.5453">
        <ele>1589</ele>
        <time>2014-03-17T14:59:48Z</time>
      </trkpt>
      <trkpt lat="45.70038" lon="6.54534">
        <ele>1587</ele>
        <time>2014-03-17T14:59:56Z</time>
      </trkpt>
      <trkpt lat="45.70036" lon="6.54539">
        <ele>1587</ele>
        <time>2014-03-17T15:00:05Z</time>
      </trkpt>
      <trkpt lat="45.70039" lon="6.54544">
        <ele>1583</ele>
        <time>2014-03-17T15:00:17Z</time>
      </trkpt>
      <trkpt lat="45.70044" lon="6.5455">
        <ele>1582</ele>
        <time>2014-03-17T15:00:27Z</time>
      </trkpt>
      <trkpt lat="45.70048" lon="6.54554">
        <ele>1582</ele>
        <time>2014-03-17T15:00:36Z</time>
      </trkpt>
      <trkpt lat="45.70052" lon="6.54558">
        <ele>1582</ele>
        <time>2014-03-17T15:00:42Z</time>
      </trkpt>
      <trkpt lat="45.70049" lon="6.54563">
        <ele>1582</ele>
        <time>2014-03-17T15:00:51Z</time>
      </trkpt>
      <trkpt lat="45.70053" lon="6.54568">
        <ele>1579</ele>
        <time>2014-03-17T15:01:01Z</time>
      </trkpt>
      <trkpt lat="45.70049" lon="6.54576">
        <ele>1578</ele>
        <time>2014-03-17T15:01:11Z</time>
      </trkpt>
      <trkpt lat="45.70044" lon="6.54581">
        <ele>1577</ele>
        <time>2014-03-17T15:01:20Z</time>
      </trkpt>
      <trkpt lat="45.70038" lon="6.54583">
        <ele>1574</ele>
        <time>2014-03-17T15:01:28Z</time>
      </trkpt>
      <trkpt lat="45.70033" lon="6.54587">
        <ele>1572</ele>
        <time>2014-03-17T15:01:37Z</time>
      </trkpt>
      <trkpt lat="45.70033" lon="6.54592">
        <ele>1570</ele>
        <time>2014-03-17T15:01:46Z</time>
      </trkpt>
      <trkpt lat="45.70039" lon="6.54598">
        <ele>1567</ele>
        <time>2014-03-17T15:01:53Z</time>
      </trkpt>
      <trkpt lat="45.70045" lon="6.54602">
        <ele>1564</ele>
        <time>2014-03-17T15:02:01Z</time>
      </trkpt>
      <trkpt lat="45.70051" lon="6.54602">
        <ele>1563</ele>
        <time>2014-03-17T15:02:08Z</time>
      </trkpt>
      <trkpt lat="45.70056" lon="6.54596">
        <ele>1560</ele>
        <time>2014-03-17T15:02:16Z</time>
      </trkpt>
      <trkpt lat="45.70061" lon="6.546">
        <ele>1556</ele>
        <time>2014-03-17T15:02:25Z</time>
      </trkpt>
      <trkpt lat="45.70068" lon="6.54599">
        <ele>1556</ele>
        <time>2014-03-17T15:02:32Z</time>
      </trkpt>
      <trkpt lat="45.70074" lon="6.54599">
        <ele>1556</ele>
        <time>2014-03-17T15:02:40Z</time>
      </trkpt>
      <trkpt lat="45.70081" lon="6.54602">
        <ele>1556</ele>
        <time>2014-03-17T15:02:46Z</time>
      </trkpt>
      <trkpt lat="45.70087" lon="6.54604">
        <ele>1556</ele>
        <time>2014-03-17T15:02:55Z</time>
      </trkpt>
      <trkpt lat="45.70088" lon="6.54611">
        <ele>1554</ele>
        <time>2014-03-17T15:03:06Z</time>
      </trkpt>
      <trkpt lat="45.70089" lon="6.54622">
        <ele>1553</ele>
        <time>2014-03-17T15:03:13Z</time>
      </trkpt>
      <trkpt lat="45.70094" lon="6.54628">
        <ele>1553</ele>
        <time>2014-03-17T15:03:22Z</time>
      </trkpt>
      <trkpt lat="45.70099" lon="6.54634">
        <ele>1551</ele>
        <time>2014-03-17T15:03:35Z</time>
      </trkpt>
      <trkpt lat="45.70105" lon="6.54635">
        <ele>1550</ele>
        <time>2014-03-17T15:03:45Z</time>
      </trkpt>
      <trkpt lat="45.70111" lon="6.54636">
        <ele>1550</ele>
        <time>2014-03-17T15:03:52Z</time>
      </trkpt>
      <trkpt lat="45.70118" lon="6.54634">
        <ele>1550</ele>
        <time>2014-03-17T15:04:00Z</time>
      </trkpt>
      <trkpt lat="45.70124" lon="6.54629">
        <ele>1547</ele>
        <time>2014-03-17T15:04:10Z</time>
      </trkpt>
      <trkpt lat="45.7013" lon="6.54627">
        <ele>1547</ele>
        <time>2014-03-17T15:04:16Z</time>
      </trkpt>
      <trkpt lat="45.70136" lon="6.54623">
        <ele>1541</ele>
        <time>2014-03-17T15:04:26Z</time>
      </trkpt>
      <trkpt lat="45.70142" lon="6.54621">
        <ele>1536</ele>
        <time>2014-03-17T15:04:32Z</time>
      </trkpt>
      <trkpt lat="45.70147" lon="6.54622">
        <ele>1535</ele>
        <time>2014-03-17T15:04:48Z</time>
      </trkpt>
      <trkpt lat="45.7015" lon="6.54628">
        <ele>1535</ele>
        <time>2014-03-17T15:04:56Z</time>
      </trkpt>
      <trkpt lat="45.7015" lon="6.54635">
        <ele>1536</ele>
        <time>2014-03-17T15:05:11Z</time>
      </trkpt>
      <trkpt lat="45.70154" lon="6.54641">
        <ele>1537</ele>
        <time>2014-03-17T15:05:20Z</time>
      </trkpt>
      <trkpt lat="45.70159" lon="6.54645">
        <ele>1537</ele>
        <time>2014-03-17T15:05:28Z</time>
      </trkpt>
      <trkpt lat="45.70164" lon="6.54648">
        <ele>1535</ele>
        <time>2014-03-17T15:05:36Z</time>
      </trkpt>
      <trkpt lat="45.70169" lon="6.54653">
        <ele>1531</ele>
        <time>2014-03-17T15:05:46Z</time>
      </trkpt>
      <trkpt lat="45.70167" lon="6.5466">
        <ele>1530</ele>
        <time>2014-03-17T15:05:53Z</time>
      </trkpt>
      <trkpt lat="45.70164" lon="6.54669">
        <ele>1529</ele>
        <time>2014-03-17T15:06:03Z</time>
      </trkpt>
      <trkpt lat="45.7016" lon="6.54676">
        <ele>1528</ele>
        <time>2014-03-17T15:06:11Z</time>
      </trkpt>
      <trkpt lat="45.70155" lon="6.54682">
        <ele>1526</ele>
        <time>2014-03-17T15:06:20Z</time>
      </trkpt>
      <trkpt lat="45.7015" lon="6.54688">
        <ele>1524</ele>
        <time>2014-03-17T15:06:31Z</time>
      </trkpt>
      <trkpt lat="45.70145" lon="6.54693">
        <ele>1522</ele>
        <time>2014-03-17T15:06:40Z</time>
      </trkpt>
      <trkpt lat="45.7014" lon="6.54699">
        <ele>1521</ele>
        <time>2014-03-17T15:06:50Z</time>
      </trkpt>
      <trkpt lat="45.70134" lon="6.54703">
        <ele>1519</ele>
        <time>2014-03-17T15:07:00Z</time>
      </trkpt>
      <trkpt lat="45.70138" lon="6.5471">
        <ele>1516</ele>
        <time>2014-03-17T15:07:10Z</time>
      </trkpt>
      <trkpt lat="45.70143" lon="6.54715">
        <ele>1513</ele>
        <time>2014-03-17T15:07:17Z</time>
      </trkpt>
      <trkpt lat="45.70149" lon="6.5472">
        <ele>1511</ele>
        <time>2014-03-17T15:07:26Z</time>
      </trkpt>
      <trkpt lat="45.70155" lon="6.54724">
        <ele>1509</ele>
        <time>2014-03-17T15:07:35Z</time>
      </trkpt>
      <trkpt lat="45.70155" lon="6.54731">
        <ele>1507</ele>
        <time>2014-03-17T15:07:45Z</time>
      </trkpt>
      <trkpt lat="45.70152" lon="6.54732">
        <ele>1507</ele>
        <time>2014-03-17T15:08:55Z</time>
      </trkpt>
      <trkpt lat="45.70148" lon="6.54736">
        <ele>1507</ele>
        <time>2014-03-17T15:09:18Z</time>
      </trkpt>
      <trkpt lat="45.70145" lon="6.54743">
        <ele>1505</ele>
        <time>2014-03-17T15:09:30Z</time>
      </trkpt>
      <trkpt lat="45.70143" lon="6.54753">
        <ele>1502</ele>
        <time>2014-03-17T15:09:37Z</time>
      </trkpt>
      <trkpt lat="45.70143" lon="6.54762">
        <ele>1499</ele>
        <time>2014-03-17T15:09:45Z</time>
      </trkpt>
      <trkpt lat="45.70147" lon="6.54771">
        <ele>1497</ele>
        <time>2014-03-17T15:09:53Z</time>
      </trkpt>
      <trkpt lat="45.7015" lon="6.5478">
        <ele>1494</ele>
        <time>2014-03-17T15:10:01Z</time>
      </trkpt>
      <trkpt lat="45.70154" lon="6.54787">
        <ele>1491</ele>
        <time>2014-03-17T15:10:10Z</time>
      </trkpt>
      <trkpt lat="45.70155" lon="6.54796">
        <ele>1488</ele>
        <time>2014-03-17T15:10:17Z</time>
      </trkpt>
      <trkpt lat="45.70153" lon="6.54804">
        <ele>1487</ele>
        <time>2014-03-17T15:10:25Z</time>
      </trkpt>
      <trkpt lat="45.70157" lon="6.54812">
        <ele>1485</ele>
        <time>2014-03-17T15:10:33Z</time>
      </trkpt>
      <trkpt lat="45.70164" lon="6.54816">
        <ele>1483</ele>
        <time>2014-03-17T15:10:40Z</time>
      </trkpt>
      <trkpt lat="45.70171" lon="6.54821">
        <ele>1481</ele>
        <time>2014-03-17T15:10:48Z</time>
      </trkpt>
      <trkpt lat="45.70179" lon="6.54825">
        <ele>1480</ele>
        <time>2014-03-17T15:10:56Z</time>
      </trkpt>
      <trkpt lat="45.70185" lon="6.54828">
        <ele>1479</ele>
        <time>2014-03-17T15:11:03Z</time>
      </trkpt>
      <trkpt lat="45.70191" lon="6.54831">
        <ele>1477</ele>
        <time>2014-03-17T15:11:11Z</time>
      </trkpt>
      <trkpt lat="45.70198" lon="6.54833">
        <ele>1474</ele>
        <time>2014-03-17T15:11:20Z</time>
      </trkpt>
      <trkpt lat="45.70203" lon="6.54834">
        <ele>1471</ele>
        <time>2014-03-17T15:11:27Z</time>
      </trkpt>
      <trkpt lat="45.70209" lon="6.54835">
        <ele>1468</ele>
        <time>2014-03-17T15:11:35Z</time>
      </trkpt>
      <trkpt lat="45.70215" lon="6.54839">
        <ele>1467</ele>
        <time>2014-03-17T15:11:43Z</time>
      </trkpt>
      <trkpt lat="45.70219" lon="6.54845">
        <ele>1466</ele>
        <time>2014-03-17T15:11:51Z</time>
      </trkpt>
      <trkpt lat="45.70221" lon="6.54852">
        <ele>1463</ele>
        <time>2014-03-17T15:12:00Z</time>
      </trkpt>
      <trkpt lat="45.70227" lon="6.54853">
        <ele>1459</ele>
        <time>2014-03-17T15:12:16Z</time>
      </trkpt>
      <trkpt lat="45.7022" lon="6.54853">
        <ele>1458</ele>
        <time>2014-03-17T15:12:25Z</time>
      </trkpt>
      <trkpt lat="45.70216" lon="6.54856">
        <ele>1456</ele>
        <time>2014-03-17T15:12:30Z</time>
      </trkpt>
      <trkpt lat="45.70214" lon="6.54865">
        <ele>1456</ele>
        <time>2014-03-17T15:12:40Z</time>
      </trkpt>
      <trkpt lat="45.70217" lon="6.54868">
        <ele>1454</ele>
        <time>2014-03-17T15:12:50Z</time>
      </trkpt>
      <trkpt lat="45.70223" lon="6.54869">
        <ele>1453</ele>
        <time>2014-03-17T15:12:55Z</time>
      </trkpt>
      <trkpt lat="45.70228" lon="6.54872">
        <ele>1453</ele>
        <time>2014-03-17T15:13:00Z</time>
      </trkpt>
      <trkpt lat="45.70232" lon="6.54879">
        <ele>1450</ele>
        <time>2014-03-17T15:13:13Z</time>
      </trkpt>
      <trkpt lat="45.70237" lon="6.54883">
        <ele>1447</ele>
        <time>2014-03-17T15:13:21Z</time>
      </trkpt>
      <trkpt lat="45.70237" lon="6.54876">
        <ele>1442</ele>
        <time>2014-03-17T15:13:30Z</time>
      </trkpt>
      <trkpt lat="45.70242" lon="6.54871">
        <ele>1438</ele>
        <time>2014-03-17T15:13:36Z</time>
      </trkpt>
      <trkpt lat="45.70243" lon="6.54866">
        <ele>1435</ele>
        <time>2014-03-17T15:13:43Z</time>
      </trkpt>
      <trkpt lat="45.70249" lon="6.5486">
        <ele>1433</ele>
        <time>2014-03-17T15:13:51Z</time>
      </trkpt>
      <trkpt lat="45.70255" lon="6.54857">
        <ele>1433</ele>
        <time>2014-03-17T15:13:57Z</time>
      </trkpt>
      <trkpt lat="45.70261" lon="6.54856">
        <ele>1433</ele>
        <time>2014-03-17T15:14:05Z</time>
      </trkpt>
      <trkpt lat="45.70266" lon="6.5486">
        <ele>1433</ele>
        <time>2014-03-17T15:14:10Z</time>
      </trkpt>
      <trkpt lat="45.70274" lon="6.54863">
        <ele>1433</ele>
        <time>2014-03-17T15:14:17Z</time>
      </trkpt>
      <trkpt lat="45.7028" lon="6.54868">
        <ele>1433</ele>
        <time>2014-03-17T15:14:25Z</time>
      </trkpt>
      <trkpt lat="45.70286" lon="6.54874">
        <ele>1433</ele>
        <time>2014-03-17T15:14:35Z</time>
      </trkpt>
      <trkpt lat="45.7029" lon="6.54881">
        <ele>1433</ele>
        <time>2014-03-17T15:14:42Z</time>
      </trkpt>
      <trkpt lat="45.70295" lon="6.54886">
        <ele>1432</ele>
        <time>2014-03-17T15:14:50Z</time>
      </trkpt>
      <trkpt lat="45.70297" lon="6.54896">
        <ele>1431</ele>
        <time>2014-03-17T15:14:57Z</time>
      </trkpt>
      <trkpt lat="45.70301" lon="6.54903">
        <ele>1429</ele>
        <time>2014-03-17T15:15:05Z</time>
      </trkpt>
      <trkpt lat="45.70303" lon="6.5491">
        <ele>1427</ele>
        <time>2014-03-17T15:15:15Z</time>
      </trkpt>
      <trkpt lat="45.70308" lon="6.54917">
        <ele>1425</ele>
        <time>2014-03-17T15:15:23Z</time>
      </trkpt>
      <trkpt lat="45.70313" lon="6.54923">
        <ele>1423</ele>
        <time>2014-03-17T15:15:33Z</time>
      </trkpt>
      <trkpt lat="45.70319" lon="6.54925">
        <ele>1421</ele>
        <time>2014-03-17T15:15:41Z</time>
      </trkpt>
      <trkpt lat="45.70326" lon="6.54925">
        <ele>1420</ele>
        <time>2014-03-17T15:15:50Z</time>
      </trkpt>
      <trkpt lat="45.70332" lon="6.54926">
        <ele>1419</ele>
        <time>2014-03-17T15:15:56Z</time>
      </trkpt>
      <trkpt lat="45.70334" lon="6.54929">
        <ele>1418</ele>
        <time>2014-03-17T15:16:07Z</time>
      </trkpt>
      <trkpt lat="45.7033" lon="6.54926">
        <ele>1418</ele>
        <time>2014-03-17T15:16:19Z</time>
      </trkpt>
      <trkpt lat="45.70327" lon="6.54924">
        <ele>1418</ele>
        <time>2014-03-17T15:16:50Z</time>
      </trkpt>
      <trkpt lat="45.70327" lon="6.54922">
        <ele>1411</ele>
        <time>2014-03-17T15:17:03Z</time>
      </trkpt>
      <trkpt lat="45.70333" lon="6.54927">
        <ele>1411</ele>
        <time>2014-03-17T15:17:08Z</time>
      </trkpt>
      <trkpt lat="45.70332" lon="6.54933">
        <ele>1409</ele>
        <time>2014-03-17T15:17:13Z</time>
      </trkpt>
      <trkpt lat="45.70331" lon="6.54943">
        <ele>1409</ele>
        <time>2014-03-17T15:17:18Z</time>
      </trkpt>
      <trkpt lat="45.7033" lon="6.5495">
        <ele>1412</ele>
        <time>2014-03-17T15:17:25Z</time>
      </trkpt>
      <trkpt lat="45.70327" lon="6.54957">
        <ele>1418</ele>
        <time>2014-03-17T15:17:31Z</time>
      </trkpt>
      <trkpt lat="45.70322" lon="6.54958">
        <ele>1418</ele>
        <time>2014-03-17T15:17:40Z</time>
      </trkpt>
      <trkpt lat="45.70315" lon="6.54956">
        <ele>1412</ele>
        <time>2014-03-17T15:17:48Z</time>
      </trkpt>
      <trkpt lat="45.70309" lon="6.54956">
        <ele>1407</ele>
        <time>2014-03-17T15:17:57Z</time>
      </trkpt>
      <trkpt lat="45.70304" lon="6.54957">
        <ele>1403</ele>
        <time>2014-03-17T15:18:02Z</time>
      </trkpt>
      <trkpt lat="45.703" lon="6.54966">
        <ele>1400</ele>
        <time>2014-03-17T15:18:09Z</time>
      </trkpt>
      <trkpt lat="45.70296" lon="6.54973">
        <ele>1398</ele>
        <time>2014-03-17T15:18:21Z</time>
      </trkpt>
      <trkpt lat="45.70291" lon="6.54979">
        <ele>1395</ele>
        <time>2014-03-17T15:18:30Z</time>
      </trkpt>
      <trkpt lat="45.70287" lon="6.54986">
        <ele>1391</ele>
        <time>2014-03-17T15:18:40Z</time>
      </trkpt>
      <trkpt lat="45.70284" lon="6.54995">
        <ele>1390</ele>
        <time>2014-03-17T15:18:46Z</time>
      </trkpt>
      <trkpt lat="45.70282" lon="6.55004">
        <ele>1387</ele>
        <time>2014-03-17T15:18:55Z</time>
      </trkpt>
      <trkpt lat="45.70281" lon="6.55012">
        <ele>1386</ele>
        <time>2014-03-17T15:19:00Z</time>
      </trkpt>
      <trkpt lat="45.7028" lon="6.55019">
        <ele>1385</ele>
        <time>2014-03-17T15:19:05Z</time>
      </trkpt>
      <trkpt lat="45.70278" lon="6.55027">
        <ele>1385</ele>
        <time>2014-03-17T15:19:11Z</time>
      </trkpt>
      <trkpt lat="45.70275" lon="6.55035">
        <ele>1384</ele>
        <time>2014-03-17T15:19:20Z</time>
      </trkpt>
      <trkpt lat="45.70275" lon="6.55043">
        <ele>1381</ele>
        <time>2014-03-17T15:19:26Z</time>
      </trkpt>
      <trkpt lat="45.70274" lon="6.55052">
        <ele>1379</ele>
        <time>2014-03-17T15:19:35Z</time>
      </trkpt>
      <trkpt lat="45.70272" lon="6.55059">
        <ele>1376</ele>
        <time>2014-03-17T15:19:43Z</time>
      </trkpt>
      <trkpt lat="45.70268" lon="6.55065">
        <ele>1373</ele>
        <time>2014-03-17T15:19:54Z</time>
      </trkpt>
      <trkpt lat="45.70268" lon="6.55074">
        <ele>1373</ele>
        <time>2014-03-17T15:20:01Z</time>
      </trkpt>
      <trkpt lat="45.70263" lon="6.55078">
        <ele>1372</ele>
        <time>2014-03-17T15:20:12Z</time>
      </trkpt>
      <trkpt lat="45.70257" lon="6.55082">
        <ele>1370</ele>
        <time>2014-03-17T15:20:23Z</time>
      </trkpt>
      <trkpt lat="45.70252" lon="6.55083">
        <ele>1366</ele>
        <time>2014-03-17T15:20:40Z</time>
      </trkpt>
      <trkpt lat="45.70247" lon="6.5509">
        <ele>1364</ele>
        <time>2014-03-17T15:20:52Z</time>
      </trkpt>
      <trkpt lat="45.70243" lon="6.55096">
        <ele>1363</ele>
        <time>2014-03-17T15:21:00Z</time>
      </trkpt>
      <trkpt lat="45.7024" lon="6.55103">
        <ele>1363</ele>
        <time>2014-03-17T15:21:08Z</time>
      </trkpt>
      <trkpt lat="45.70236" lon="6.55109">
        <ele>1360</ele>
        <time>2014-03-17T15:21:16Z</time>
      </trkpt>
      <trkpt lat="45.70236" lon="6.55113">
        <ele>1357</ele>
        <time>2014-03-17T15:21:55Z</time>
      </trkpt>
      <trkpt lat="45.70231" lon="6.55116">
        <ele>1356</ele>
        <time>2014-03-17T15:22:42Z</time>
      </trkpt>
      <trkpt lat="45.70229" lon="6.55124">
        <ele>1356</ele>
        <time>2014-03-17T15:22:50Z</time>
      </trkpt>
      <trkpt lat="45.7023" lon="6.55133">
        <ele>1354</ele>
        <time>2014-03-17T15:22:58Z</time>
      </trkpt>
      <trkpt lat="45.70232" lon="6.55141">
        <ele>1353</ele>
        <time>2014-03-17T15:23:06Z</time>
      </trkpt>
      <trkpt lat="45.70234" lon="6.5515">
        <ele>1351</ele>
        <time>2014-03-17T15:23:15Z</time>
      </trkpt>
      <trkpt lat="45.70237" lon="6.55159">
        <ele>1350</ele>
        <time>2014-03-17T15:23:23Z</time>
      </trkpt>
      <trkpt lat="45.70237" lon="6.55169">
        <ele>1348</ele>
        <time>2014-03-17T15:23:31Z</time>
      </trkpt>
      <trkpt lat="45.70234" lon="6.55178">
        <ele>1347</ele>
        <time>2014-03-17T15:23:40Z</time>
      </trkpt>
      <trkpt lat="45.7023" lon="6.55185">
        <ele>1346</ele>
        <time>2014-03-17T15:23:47Z</time>
      </trkpt>
      <trkpt lat="45.70227" lon="6.55191">
        <ele>1344</ele>
        <time>2014-03-17T15:23:57Z</time>
      </trkpt>
      <trkpt lat="45.70228" lon="6.55198">
        <ele>1341</ele>
        <time>2014-03-17T15:24:11Z</time>
      </trkpt>
      <trkpt lat="45.70233" lon="6.552">
        <ele>1339</ele>
        <time>2014-03-17T15:24:25Z</time>
      </trkpt>
      <trkpt lat="45.70239" lon="6.55203">
        <ele>1337</ele>
        <time>2014-03-17T15:24:33Z</time>
      </trkpt>
      <trkpt lat="45.70244" lon="6.55202">
        <ele>1336</ele>
        <time>2014-03-17T15:24:45Z</time>
      </trkpt>
      <trkpt lat="45.7025" lon="6.55198">
        <ele>1336</ele>
        <time>2014-03-17T15:24:52Z</time>
      </trkpt>
      <trkpt lat="45.70251" lon="6.55201">
        <ele>1334</ele>
        <time>2014-03-17T15:25:06Z</time>
      </trkpt>
      <trkpt lat="45.70248" lon="6.55202">
        <ele>1332</ele>
        <time>2014-03-17T15:25:26Z</time>
      </trkpt>
      <trkpt lat="45.70251" lon="6.55204">
        <ele>1332</ele>
        <time>2014-03-17T15:25:50Z</time>
      </trkpt>
      <trkpt lat="45.70249" lon="6.55202">
        <ele>1332</ele>
        <time>2014-03-17T15:26:08Z</time>
      </trkpt>
      <trkpt lat="45.70248" lon="6.55201">
        <ele>1329</ele>
        <time>2014-03-17T15:26:33Z</time>
      </trkpt>
      <trkpt lat="45.70246" lon="6.55202">
        <ele>1328</ele>
        <time>2014-03-17T15:27:10Z</time>
      </trkpt>
      <trkpt lat="45.70247" lon="6.55205">
        <ele>1328</ele>
        <time>2014-03-17T15:27:40Z</time>
      </trkpt>
      <trkpt lat="45.70252" lon="6.55212">
        <ele>1328</ele>
        <time>2014-03-17T15:27:45Z</time>
      </trkpt>
      <trkpt lat="45.70258" lon="6.55213">
        <ele>1328</ele>
        <time>2014-03-17T15:27:50Z</time>
      </trkpt>
      <trkpt lat="45.70264" lon="6.55214">
        <ele>1328</ele>
        <time>2014-03-17T15:27:53Z</time>
      </trkpt>
      <trkpt lat="45.70271" lon="6.55213">
        <ele>1328</ele>
        <time>2014-03-17T15:27:58Z</time>
      </trkpt>
      <trkpt lat="45.70277" lon="6.55212">
        <ele>1328</ele>
        <time>2014-03-17T15:28:02Z</time>
      </trkpt>
      <trkpt lat="45.70284" lon="6.55214">
        <ele>1328</ele>
        <time>2014-03-17T15:28:07Z</time>
      </trkpt>
      <trkpt lat="45.70292" lon="6.55211">
        <ele>1328</ele>
        <time>2014-03-17T15:28:16Z</time>
      </trkpt>
      <trkpt lat="45.70298" lon="6.55207">
        <ele>1328</ele>
        <time>2014-03-17T15:28:21Z</time>
      </trkpt>
      <trkpt lat="45.70308" lon="6.55205">
        <ele>1328</ele>
        <time>2014-03-17T15:28:26Z</time>
      </trkpt>
      <trkpt lat="45.70315" lon="6.552">
        <ele>1328</ele>
        <time>2014-03-17T15:28:31Z</time>
      </trkpt>
      <trkpt lat="45.7032" lon="6.55194">
        <ele>1328</ele>
        <time>2014-03-17T15:28:38Z</time>
      </trkpt>
      <trkpt lat="45.70327" lon="6.55187">
        <ele>1325</ele>
        <time>2014-03-17T15:28:46Z</time>
      </trkpt>
      <trkpt lat="45.70332" lon="6.55186">
        <ele>1323</ele>
        <time>2014-03-17T15:28:50Z</time>
      </trkpt>
      <trkpt lat="45.70338" lon="6.55186">
        <ele>1323</ele>
        <time>2014-03-17T15:28:55Z</time>
      </trkpt>
      <trkpt lat="45.70343" lon="6.55189">
        <ele>1322</ele>
        <time>2014-03-17T15:28:58Z</time>
      </trkpt>
      <trkpt lat="45.70349" lon="6.55193">
        <ele>1321</ele>
        <time>2014-03-17T15:29:03Z</time>
      </trkpt>
      <trkpt lat="45.70356" lon="6.55199">
        <ele>1320</ele>
        <time>2014-03-17T15:29:10Z</time>
      </trkpt>
      <trkpt lat="45.70363" lon="6.55203">
        <ele>1319</ele>
        <time>2014-03-17T15:29:16Z</time>
      </trkpt>
      <trkpt lat="45.70368" lon="6.55205">
        <ele>1319</ele>
        <time>2014-03-17T15:29:20Z</time>
      </trkpt>
      <trkpt lat="45.70373" lon="6.55207">
        <ele>1318</ele>
        <time>2014-03-17T15:29:25Z</time>
      </trkpt>
      <trkpt lat="45.70378" lon="6.55209">
        <ele>1318</ele>
        <time>2014-03-17T15:29:28Z</time>
      </trkpt>
      <trkpt lat="45.70383" lon="6.5521">
        <ele>1317</ele>
        <time>2014-03-17T15:29:32Z</time>
      </trkpt>
      <trkpt lat="45.70388" lon="6.55212">
        <ele>1316</ele>
        <time>2014-03-17T15:29:36Z</time>
      </trkpt>
      <trkpt lat="45.70394" lon="6.55215">
        <ele>1315</ele>
        <time>2014-03-17T15:29:41Z</time>
      </trkpt>
      <trkpt lat="45.70399" lon="6.55216">
        <ele>1314</ele>
        <time>2014-03-17T15:29:46Z</time>
      </trkpt>
      <trkpt lat="45.70404" lon="6.55216">
        <ele>1313</ele>
        <time>2014-03-17T15:29:50Z</time>
      </trkpt>
      <trkpt lat="45.70409" lon="6.55215">
        <ele>1313</ele>
        <time>2014-03-17T15:29:53Z</time>
      </trkpt>
      <trkpt lat="45.70414" lon="6.55213">
        <ele>1312</ele>
        <time>2014-03-17T15:29:57Z</time>
      </trkpt>
      <trkpt lat="45.70419" lon="6.55212">
        <ele>1312</ele>
        <time>2014-03-17T15:30:01Z</time>
      </trkpt>
      <trkpt lat="45.70424" lon="6.5521">
        <ele>1312</ele>
        <time>2014-03-17T15:30:05Z</time>
      </trkpt>
      <trkpt lat="45.70429" lon="6.55208">
        <ele>1311</ele>
        <time>2014-03-17T15:30:10Z</time>
      </trkpt>
      <trkpt lat="45.70435" lon="6.55206">
        <ele>1310</ele>
        <time>2014-03-17T15:30:15Z</time>
      </trkpt>
      <trkpt lat="45.70439" lon="6.55203">
        <ele>1309</ele>
        <time>2014-03-17T15:30:18Z</time>
      </trkpt>
      <trkpt lat="45.70444" lon="6.552">
        <ele>1309</ele>
        <time>2014-03-17T15:30:22Z</time>
      </trkpt>
      <trkpt lat="45.70449" lon="6.55198">
        <ele>1308</ele>
        <time>2014-03-17T15:30:26Z</time>
      </trkpt>
      <trkpt lat="45.70454" lon="6.55196">
        <ele>1308</ele>
        <time>2014-03-17T15:30:30Z</time>
      </trkpt>
      <trkpt lat="45.70459" lon="6.55193">
        <ele>1308</ele>
        <time>2014-03-17T15:30:35Z</time>
      </trkpt>
      <trkpt lat="45.70464" lon="6.5519">
        <ele>1308</ele>
        <time>2014-03-17T15:30:38Z</time>
      </trkpt>
      <trkpt lat="45.70471" lon="6.55193">
        <ele>1308</ele>
        <time>2014-03-17T15:30:43Z</time>
      </trkpt>
      <trkpt lat="45.70474" lon="6.552">
        <ele>1308</ele>
        <time>2014-03-17T15:30:47Z</time>
      </trkpt>
      <trkpt lat="45.70471" lon="6.55208">
        <ele>1309</ele>
        <time>2014-03-17T15:30:51Z</time>
      </trkpt>
      <trkpt lat="45.70466" lon="6.55213">
        <ele>1312</ele>
        <time>2014-03-17T15:30:55Z</time>
      </trkpt>
      <trkpt lat="45.70461" lon="6.55217">
        <ele>1314</ele>
        <time>2014-03-17T15:31:00Z</time>
      </trkpt>
      <trkpt lat="45.70455" lon="6.55221">
        <ele>1314</ele>
        <time>2014-03-17T15:31:05Z</time>
      </trkpt>
      <trkpt lat="45.7045" lon="6.55225">
        <ele>1314</ele>
        <time>2014-03-17T15:31:08Z</time>
      </trkpt>
      <trkpt lat="45.70444" lon="6.55229">
        <ele>1311</ele>
        <time>2014-03-17T15:31:13Z</time>
      </trkpt>
      <trkpt lat="45.70438" lon="6.55236">
        <ele>1307</ele>
        <time>2014-03-17T15:31:20Z</time>
      </trkpt>
      <trkpt lat="45.70432" lon="6.55242">
        <ele>1305</ele>
        <time>2014-03-17T15:31:25Z</time>
      </trkpt>
      <trkpt lat="45.70425" lon="6.55249">
        <ele>1304</ele>
        <time>2014-03-17T15:31:31Z</time>
      </trkpt>
      <trkpt lat="45.70418" lon="6.55259">
        <ele>1303</ele>
        <time>2014-03-17T15:31:40Z</time>
      </trkpt>
      <trkpt lat="45.7041" lon="6.55267">
        <ele>1303</ele>
        <time>2014-03-17T15:31:46Z</time>
      </trkpt>
      <trkpt lat="45.70403" lon="6.55276">
        <ele>1302</ele>
        <time>2014-03-17T15:31:55Z</time>
      </trkpt>
      <trkpt lat="45.70396" lon="6.55283">
        <ele>1301</ele>
        <time>2014-03-17T15:32:01Z</time>
      </trkpt>
      <trkpt lat="45.70388" lon="6.55291">
        <ele>1299</ele>
        <time>2014-03-17T15:32:10Z</time>
      </trkpt>
      <trkpt lat="45.7038" lon="6.55298">
        <ele>1298</ele>
        <time>2014-03-17T15:32:17Z</time>
      </trkpt>
      <trkpt lat="45.70374" lon="6.55302">
        <ele>1297</ele>
        <time>2014-03-17T15:32:23Z</time>
      </trkpt>
      <trkpt lat="45.70366" lon="6.55304">
        <ele>1297</ele>
        <time>2014-03-17T15:32:30Z</time>
      </trkpt>
      <trkpt lat="45.70361" lon="6.55302">
        <ele>1297</ele>
        <time>2014-03-17T15:32:34Z</time>
      </trkpt>
      <trkpt lat="45.70356" lon="6.55299">
        <ele>1296</ele>
        <time>2014-03-17T15:32:38Z</time>
      </trkpt>
      <trkpt lat="45.7035" lon="6.55296">
        <ele>1296</ele>
        <time>2014-03-17T15:32:45Z</time>
      </trkpt>
      <trkpt lat="45.70343" lon="6.55293">
        <ele>1296</ele>
        <time>2014-03-17T15:32:51Z</time>
      </trkpt>
      <trkpt lat="45.70336" lon="6.55301">
        <ele>1296</ele>
        <time>2014-03-17T15:32:59Z</time>
      </trkpt>
      <trkpt lat="45.70336" lon="6.55306">
        <ele>1296</ele>
        <time>2014-03-17T15:33:05Z</time>
      </trkpt>
      <trkpt lat="45.70341" lon="6.55307">
        <ele>1295</ele>
        <time>2014-03-17T15:33:09Z</time>
      </trkpt>
      <trkpt lat="45.70347" lon="6.5531">
        <ele>1294</ele>
        <time>2014-03-17T15:33:15Z</time>
      </trkpt>
      <trkpt lat="45.70351" lon="6.55312">
        <ele>1294</ele>
        <time>2014-03-17T15:33:18Z</time>
      </trkpt>
      <trkpt lat="45.70356" lon="6.55315">
        <ele>1294</ele>
        <time>2014-03-17T15:33:22Z</time>
      </trkpt>
      <trkpt lat="45.70358" lon="6.55325">
        <ele>1291</ele>
        <time>2014-03-17T15:33:30Z</time>
      </trkpt>
      <trkpt lat="45.70356" lon="6.55333">
        <ele>1288</ele>
        <time>2014-03-17T15:33:38Z</time>
      </trkpt>
      <trkpt lat="45.70354" lon="6.55342">
        <ele>1287</ele>
        <time>2014-03-17T15:33:46Z</time>
      </trkpt>
      <trkpt lat="45.7035" lon="6.55349">
        <ele>1281</ele>
        <time>2014-03-17T15:33:55Z</time>
      </trkpt>
      <trkpt lat="45.70346" lon="6.55355">
        <ele>1279</ele>
        <time>2014-03-17T15:33:59Z</time>
      </trkpt>
      <trkpt lat="45.70348" lon="6.55363">
        <ele>1275</ele>
        <time>2014-03-17T15:34:10Z</time>
      </trkpt>
      <trkpt lat="45.70347" lon="6.55371">
        <ele>1271</ele>
        <time>2014-03-17T15:34:18Z</time>
      </trkpt>
      <trkpt lat="45.70347" lon="6.55378">
        <ele>1268</ele>
        <time>2014-03-17T15:34:24Z</time>
      </trkpt>
      <trkpt lat="45.70346" lon="6.55387">
        <ele>1266</ele>
        <time>2014-03-17T15:34:32Z</time>
      </trkpt>
      <trkpt lat="45.70343" lon="6.55395">
        <ele>1264</ele>
        <time>2014-03-17T15:34:41Z</time>
      </trkpt>
      <trkpt lat="45.70337" lon="6.55402">
        <ele>1262</ele>
        <time>2014-03-17T15:34:49Z</time>
      </trkpt>
      <trkpt lat="45.7033" lon="6.55401">
        <ele>1262</ele>
        <time>2014-03-17T15:34:55Z</time>
      </trkpt>
      <trkpt lat="45.70323" lon="6.554">
        <ele>1262</ele>
        <time>2014-03-17T15:35:01Z</time>
      </trkpt>
      <trkpt lat="45.70317" lon="6.55402">
        <ele>1262</ele>
        <time>2014-03-17T15:35:07Z</time>
      </trkpt>
      <trkpt lat="45.70315" lon="6.55402">
        <ele>1264</ele>
        <time>2014-03-17T15:35:43Z</time>
      </trkpt>
      <trkpt lat="45.70309" lon="6.55402">
        <ele>1264</ele>
        <time>2014-03-17T15:36:00Z</time>
      </trkpt>
      <trkpt lat="45.70309" lon="6.55409">
        <ele>1270</ele>
        <time>2014-03-17T15:36:13Z</time>
      </trkpt>
      <trkpt lat="45.70303" lon="6.55406">
        <ele>1270</ele>
        <time>2014-03-17T15:36:20Z</time>
      </trkpt>
      <trkpt lat="45.70296" lon="6.55409">
        <ele>1269</ele>
        <time>2014-03-17T15:36:27Z</time>
      </trkpt>
      <trkpt lat="45.70293" lon="6.55414">
        <ele>1266</ele>
        <time>2014-03-17T15:36:41Z</time>
      </trkpt>
      <trkpt lat="45.70301" lon="6.55419">
        <ele>1263</ele>
        <time>2014-03-17T15:36:48Z</time>
      </trkpt>
      <trkpt lat="45.70306" lon="6.55421">
        <ele>1262</ele>
        <time>2014-03-17T15:36:52Z</time>
      </trkpt>
      <trkpt lat="45.70311" lon="6.55423">
        <ele>1261</ele>
        <time>2014-03-17T15:36:56Z</time>
      </trkpt>
      <trkpt lat="45.70317" lon="6.55424">
        <ele>1259</ele>
        <time>2014-03-17T15:37:01Z</time>
      </trkpt>
      <trkpt lat="45.70322" lon="6.55424">
        <ele>1258</ele>
        <time>2014-03-17T15:37:05Z</time>
      </trkpt>
      <trkpt lat="45.70327" lon="6.55425">
        <ele>1257</ele>
        <time>2014-03-17T15:37:09Z</time>
      </trkpt>
      <trkpt lat="45.70333" lon="6.55427">
        <ele>1257</ele>
        <time>2014-03-17T15:37:13Z</time>
      </trkpt>
      <trkpt lat="45.70338" lon="6.5543">
        <ele>1256</ele>
        <time>2014-03-17T15:37:17Z</time>
      </trkpt>
      <trkpt lat="45.70346" lon="6.55438">
        <ele>1254</ele>
        <time>2014-03-17T15:37:25Z</time>
      </trkpt>
      <trkpt lat="45.70354" lon="6.55446">
        <ele>1254</ele>
        <time>2014-03-17T15:37:33Z</time>
      </trkpt>
      <trkpt lat="45.70359" lon="6.55449">
        <ele>1254</ele>
        <time>2014-03-17T15:37:37Z</time>
      </trkpt>
      <trkpt lat="45.70364" lon="6.55451">
        <ele>1254</ele>
        <time>2014-03-17T15:37:41Z</time>
      </trkpt>
      <trkpt lat="45.70369" lon="6.55451">
        <ele>1253</ele>
        <time>2014-03-17T15:37:45Z</time>
      </trkpt>
      <trkpt lat="45.70374" lon="6.55449">
        <ele>1253</ele>
        <time>2014-03-17T15:37:49Z</time>
      </trkpt>
      <trkpt lat="45.70379" lon="6.55448">
        <ele>1252</ele>
        <time>2014-03-17T15:37:53Z</time>
      </trkpt>
      <trkpt lat="45.70384" lon="6.55447">
        <ele>1251</ele>
        <time>2014-03-17T15:37:57Z</time>
      </trkpt>
      <trkpt lat="45.7039" lon="6.55445">
        <ele>1250</ele>
        <time>2014-03-17T15:38:01Z</time>
      </trkpt>
      <trkpt lat="45.70395" lon="6.55443">
        <ele>1249</ele>
        <time>2014-03-17T15:38:05Z</time>
      </trkpt>
      <trkpt lat="45.704" lon="6.55441">
        <ele>1248</ele>
        <time>2014-03-17T15:38:09Z</time>
      </trkpt>
      <trkpt lat="45.70405" lon="6.55439">
        <ele>1247</ele>
        <time>2014-03-17T15:38:13Z</time>
      </trkpt>
      <trkpt lat="45.7041" lon="6.55438">
        <ele>1246</ele>
        <time>2014-03-17T15:38:17Z</time>
      </trkpt>
      <trkpt lat="45.70415" lon="6.55436">
        <ele>1246</ele>
        <time>2014-03-17T15:38:21Z</time>
      </trkpt>
      <trkpt lat="45.7042" lon="6.55434">
        <ele>1245</ele>
        <time>2014-03-17T15:38:25Z</time>
      </trkpt>
      <trkpt lat="45.70425" lon="6.55432">
        <ele>1244</ele>
        <time>2014-03-17T15:38:29Z</time>
      </trkpt>
      <trkpt lat="45.7043" lon="6.5543">
        <ele>1243</ele>
        <time>2014-03-17T15:38:33Z</time>
      </trkpt>
      <trkpt lat="45.70435" lon="6.55427">
        <ele>1242</ele>
        <time>2014-03-17T15:38:38Z</time>
      </trkpt>
      <trkpt lat="45.70442" lon="6.55423">
        <ele>1240</ele>
        <time>2014-03-17T15:38:44Z</time>
      </trkpt>
      <trkpt lat="45.70447" lon="6.55422">
        <ele>1240</ele>
        <time>2014-03-17T15:38:48Z</time>
      </trkpt>
      <trkpt lat="45.70452" lon="6.55418">
        <ele>1240</ele>
        <time>2014-03-17T15:38:53Z</time>
      </trkpt>
      <trkpt lat="45.70458" lon="6.55413">
        <ele>1239</ele>
        <time>2014-03-17T15:38:58Z</time>
      </trkpt>
      <trkpt lat="45.70464" lon="6.55404">
        <ele>1238</ele>
        <time>2014-03-17T15:39:05Z</time>
      </trkpt>
      <trkpt lat="45.7047" lon="6.55397">
        <ele>1235</ele>
        <time>2014-03-17T15:39:11Z</time>
      </trkpt>
      <trkpt lat="45.70479" lon="6.55389">
        <ele>1235</ele>
        <time>2014-03-17T15:39:20Z</time>
      </trkpt>
      <trkpt lat="45.70485" lon="6.55385">
        <ele>1235</ele>
        <time>2014-03-17T15:39:25Z</time>
      </trkpt>
      <trkpt lat="45.7049" lon="6.55382">
        <ele>1235</ele>
        <time>2014-03-17T15:39:28Z</time>
      </trkpt>
      <trkpt lat="45.70496" lon="6.55375">
        <ele>1235</ele>
        <time>2014-03-17T15:39:34Z</time>
      </trkpt>
      <trkpt lat="45.70501" lon="6.55368">
        <ele>1235</ele>
        <time>2014-03-17T15:39:40Z</time>
      </trkpt>
      <trkpt lat="45.70507" lon="6.55362">
        <ele>1232</ele>
        <time>2014-03-17T15:39:45Z</time>
      </trkpt>
      <trkpt lat="45.70512" lon="6.55354">
        <ele>1227</ele>
        <time>2014-03-17T15:39:51Z</time>
      </trkpt>
      <trkpt lat="45.70517" lon="6.55347">
        <ele>1223</ele>
        <time>2014-03-17T15:39:56Z</time>
      </trkpt>
      <trkpt lat="45.70521" lon="6.55342">
        <ele>1219</ele>
        <time>2014-03-17T15:40:00Z</time>
      </trkpt>
      <trkpt lat="45.70529" lon="6.55348">
        <ele>1216</ele>
        <time>2014-03-17T15:40:04Z</time>
      </trkpt>
      <trkpt lat="45.70535" lon="6.55355">
        <ele>1216</ele>
        <time>2014-03-17T15:40:09Z</time>
      </trkpt>
      <trkpt lat="45.70541" lon="6.55364">
        <ele>1218</ele>
        <time>2014-03-17T15:40:13Z</time>
      </trkpt>
      <trkpt lat="45.70549" lon="6.55372">
        <ele>1223</ele>
        <time>2014-03-17T15:40:18Z</time>
      </trkpt>
      <trkpt lat="45.70556" lon="6.55378">
        <ele>1228</ele>
        <time>2014-03-17T15:40:23Z</time>
      </trkpt>
      <trkpt lat="45.70562" lon="6.55377">
        <ele>1234</ele>
        <time>2014-03-17T15:40:29Z</time>
      </trkpt>
      <trkpt lat="45.70567" lon="6.55369">
        <ele>1233</ele>
        <time>2014-03-17T15:40:34Z</time>
      </trkpt>
      <trkpt lat="45.70571" lon="6.5536">
        <ele>1226</ele>
        <time>2014-03-17T15:40:41Z</time>
      </trkpt>
      <trkpt lat="45.70577" lon="6.55355">
        <ele>1217</ele>
        <time>2014-03-17T15:40:48Z</time>
      </trkpt>
      <trkpt lat="45.70581" lon="6.55362">
        <ele>1213</ele>
        <time>2014-03-17T15:40:52Z</time>
      </trkpt>
      <trkpt lat="45.7058" lon="6.55372">
        <ele>1213</ele>
        <time>2014-03-17T15:40:56Z</time>
      </trkpt>
      <trkpt lat="45.70575" lon="6.5538">
        <ele>1213</ele>
        <time>2014-03-17T15:41:01Z</time>
      </trkpt>
      <trkpt lat="45.70571" lon="6.55387">
        <ele>1215</ele>
        <time>2014-03-17T15:41:05Z</time>
      </trkpt>
      <trkpt lat="45.70566" lon="6.55394">
        <ele>1218</ele>
        <time>2014-03-17T15:41:09Z</time>
      </trkpt>
      <trkpt lat="45.70562" lon="6.55399">
        <ele>1220</ele>
        <time>2014-03-17T15:41:13Z</time>
      </trkpt>
      <trkpt lat="45.70557" lon="6.55402">
        <ele>1222</ele>
        <time>2014-03-17T15:41:17Z</time>
      </trkpt>
      <trkpt lat="45.70552" lon="6.55406">
        <ele>1222</ele>
        <time>2014-03-17T15:41:21Z</time>
      </trkpt>
      <trkpt lat="45.70546" lon="6.55406">
        <ele>1222</ele>
        <time>2014-03-17T15:41:25Z</time>
      </trkpt>
      <trkpt lat="45.7054" lon="6.55404">
        <ele>1222</ele>
        <time>2014-03-17T15:41:29Z</time>
      </trkpt>
      <trkpt lat="45.70535" lon="6.554">
        <ele>1222</ele>
        <time>2014-03-17T15:41:33Z</time>
      </trkpt>
      <trkpt lat="45.7053" lon="6.55399">
        <ele>1222</ele>
        <time>2014-03-17T15:41:37Z</time>
      </trkpt>
      <trkpt lat="45.70524" lon="6.55401">
        <ele>1222</ele>
        <time>2014-03-17T15:41:41Z</time>
      </trkpt>
      <trkpt lat="45.70519" lon="6.55407">
        <ele>1222</ele>
        <time>2014-03-17T15:41:47Z</time>
      </trkpt>
      <trkpt lat="45.70514" lon="6.55415">
        <ele>1217</ele>
        <time>2014-03-17T15:41:55Z</time>
      </trkpt>
      <trkpt lat="45.7051" lon="6.55422">
        <ele>1215</ele>
        <time>2014-03-17T15:42:00Z</time>
      </trkpt>
      <trkpt lat="45.70507" lon="6.5543">
        <ele>1214</ele>
        <time>2014-03-17T15:42:05Z</time>
      </trkpt>
      <trkpt lat="45.70505" lon="6.55436">
        <ele>1213</ele>
        <time>2014-03-17T15:42:08Z</time>
      </trkpt>
      <trkpt lat="45.70502" lon="6.55444">
        <ele>1209</ele>
        <time>2014-03-17T15:42:14Z</time>
      </trkpt>
      <trkpt lat="45.705" lon="6.55451">
        <ele>1207</ele>
        <time>2014-03-17T15:42:18Z</time>
      </trkpt>
      <trkpt lat="45.70499" lon="6.55457">
        <ele>1206</ele>
        <time>2014-03-17T15:42:22Z</time>
      </trkpt>
      <trkpt lat="45.70499" lon="6.55464">
        <ele>1206</ele>
        <time>2014-03-17T15:42:26Z</time>
      </trkpt>
      <trkpt lat="45.70498" lon="6.55471">
        <ele>1205</ele>
        <time>2014-03-17T15:42:30Z</time>
      </trkpt>
      <trkpt lat="45.70497" lon="6.55479">
        <ele>1205</ele>
        <time>2014-03-17T15:42:34Z</time>
      </trkpt>
      <trkpt lat="45.70496" lon="6.55489">
        <ele>1205</ele>
        <time>2014-03-17T15:42:38Z</time>
      </trkpt>
      <trkpt lat="45.70495" lon="6.55498">
        <ele>1207</ele>
        <time>2014-03-17T15:42:43Z</time>
      </trkpt>
      <trkpt lat="45.70493" lon="6.55504">
        <ele>1207</ele>
        <time>2014-03-17T15:42:47Z</time>
      </trkpt>
      <trkpt lat="45.70487" lon="6.55512">
        <ele>1207</ele>
        <time>2014-03-17T15:42:53Z</time>
      </trkpt>
      <trkpt lat="45.70481" lon="6.55522">
        <ele>1207</ele>
        <time>2014-03-17T15:43:00Z</time>
      </trkpt>
      <trkpt lat="45.70475" lon="6.55527">
        <ele>1207</ele>
        <time>2014-03-17T15:43:06Z</time>
      </trkpt>
      <trkpt lat="45.70467" lon="6.55534">
        <ele>1206</ele>
        <time>2014-03-17T15:43:13Z</time>
      </trkpt>
      <trkpt lat="45.70462" lon="6.55537">
        <ele>1205</ele>
        <time>2014-03-17T15:43:17Z</time>
      </trkpt>
      <trkpt lat="45.70455" lon="6.55542">
        <ele>1203</ele>
        <time>2014-03-17T15:43:23Z</time>
      </trkpt>
      <trkpt lat="45.70448" lon="6.55548">
        <ele>1201</ele>
        <time>2014-03-17T15:43:30Z</time>
      </trkpt>
      <trkpt lat="45.70441" lon="6.55556">
        <ele>1201</ele>
        <time>2014-03-17T15:43:37Z</time>
      </trkpt>
      <trkpt lat="45.70433" lon="6.55565">
        <ele>1200</ele>
        <time>2014-03-17T15:43:45Z</time>
      </trkpt>
      <trkpt lat="45.70426" lon="6.55575">
        <ele>1199</ele>
        <time>2014-03-17T15:43:53Z</time>
      </trkpt>
      <trkpt lat="45.70418" lon="6.55583">
        <ele>1197</ele>
        <time>2014-03-17T15:44:01Z</time>
      </trkpt>
      <trkpt lat="45.70412" lon="6.55587">
        <ele>1195</ele>
        <time>2014-03-17T15:44:06Z</time>
      </trkpt>
      <trkpt lat="45.70406" lon="6.5559">
        <ele>1193</ele>
        <time>2014-03-17T15:44:12Z</time>
      </trkpt>
      <trkpt lat="45.704" lon="6.55591">
        <ele>1192</ele>
        <time>2014-03-17T15:44:17Z</time>
      </trkpt>
      <trkpt lat="45.70395" lon="6.55591">
        <ele>1191</ele>
        <time>2014-03-17T15:44:21Z</time>
      </trkpt>
      <trkpt lat="45.70389" lon="6.55589">
        <ele>1188</ele>
        <time>2014-03-17T15:44:25Z</time>
      </trkpt>
      <trkpt lat="45.70385" lon="6.55587">
        <ele>1188</ele>
        <time>2014-03-17T15:44:29Z</time>
      </trkpt>
      <trkpt lat="45.70379" lon="6.55583">
        <ele>1188</ele>
        <time>2014-03-17T15:44:34Z</time>
      </trkpt>
      <trkpt lat="45.70371" lon="6.55578">
        <ele>1187</ele>
        <time>2014-03-17T15:44:40Z</time>
      </trkpt>
      <trkpt lat="45.70366" lon="6.55577">
        <ele>1187</ele>
        <time>2014-03-17T15:44:44Z</time>
      </trkpt>
      <trkpt lat="45.7036" lon="6.55573">
        <ele>1187</ele>
        <time>2014-03-17T15:44:49Z</time>
      </trkpt>
      <trkpt lat="45.70353" lon="6.55571">
        <ele>1187</ele>
        <time>2014-03-17T15:44:56Z</time>
      </trkpt>
      <trkpt lat="45.70348" lon="6.55571">
        <ele>1190</ele>
        <time>2014-03-17T15:45:00Z</time>
      </trkpt>
      <trkpt lat="45.70341" lon="6.55574">
        <ele>1193</ele>
        <time>2014-03-17T15:45:06Z</time>
      </trkpt>
      <trkpt lat="45.70334" lon="6.55579">
        <ele>1193</ele>
        <time>2014-03-17T15:45:13Z</time>
      </trkpt>
      <trkpt lat="45.70327" lon="6.55586">
        <ele>1193</ele>
        <time>2014-03-17T15:45:20Z</time>
      </trkpt>
      <trkpt lat="45.70322" lon="6.55591">
        <ele>1195</ele>
        <time>2014-03-17T15:45:24Z</time>
      </trkpt>
      <trkpt lat="45.70316" lon="6.55594">
        <ele>1197</ele>
        <time>2014-03-17T15:45:29Z</time>
      </trkpt>
      <trkpt lat="45.70309" lon="6.55595">
        <ele>1197</ele>
        <time>2014-03-17T15:45:34Z</time>
      </trkpt>
      <trkpt lat="45.70303" lon="6.55595">
        <ele>1197</ele>
        <time>2014-03-17T15:45:38Z</time>
      </trkpt>
      <trkpt lat="45.70297" lon="6.55598">
        <ele>1197</ele>
        <time>2014-03-17T15:45:42Z</time>
      </trkpt>
      <trkpt lat="45.70291" lon="6.556">
        <ele>1197</ele>
        <time>2014-03-17T15:45:47Z</time>
      </trkpt>
      <trkpt lat="45.70285" lon="6.55601">
        <ele>1197</ele>
        <time>2014-03-17T15:45:52Z</time>
      </trkpt>
      <trkpt lat="45.70278" lon="6.55601">
        <ele>1197</ele>
        <time>2014-03-17T15:45:59Z</time>
      </trkpt>
      <trkpt lat="45.70272" lon="6.55599">
        <ele>1192</ele>
        <time>2014-03-17T15:46:05Z</time>
      </trkpt>
      <trkpt lat="45.70266" lon="6.55602">
        <ele>1192</ele>
        <time>2014-03-17T15:46:11Z</time>
      </trkpt>
      <trkpt lat="45.70259" lon="6.55611">
        <ele>1193</ele>
        <time>2014-03-17T15:46:19Z</time>
      </trkpt>
      <trkpt lat="45.70256" lon="6.55619">
        <ele>1194</ele>
        <time>2014-03-17T15:46:24Z</time>
      </trkpt>
      <trkpt lat="45.70252" lon="6.55628">
        <ele>1194</ele>
        <time>2014-03-17T15:46:31Z</time>
      </trkpt>
      <trkpt lat="45.70247" lon="6.55632">
        <ele>1194</ele>
        <time>2014-03-17T15:46:36Z</time>
      </trkpt>
      <trkpt lat="45.70242" lon="6.55633">
        <ele>1190</ele>
        <time>2014-03-17T15:46:40Z</time>
      </trkpt>
      <trkpt lat="45.70237" lon="6.55634">
        <ele>1186</ele>
        <time>2014-03-17T15:46:44Z</time>
      </trkpt>
      <trkpt lat="45.70232" lon="6.55635">
        <ele>1184</ele>
        <time>2014-03-17T15:46:48Z</time>
      </trkpt>
      <trkpt lat="45.70226" lon="6.55635">
        <ele>1181</ele>
        <time>2014-03-17T15:46:53Z</time>
      </trkpt>
      <trkpt lat="45.70221" lon="6.55635">
        <ele>1179</ele>
        <time>2014-03-17T15:46:57Z</time>
      </trkpt>
      <trkpt lat="45.70216" lon="6.55633">
        <ele>1178</ele>
        <time>2014-03-17T15:47:01Z</time>
      </trkpt>
      <trkpt lat="45.7021" lon="6.55632">
        <ele>1177</ele>
        <time>2014-03-17T15:47:05Z</time>
      </trkpt>
      <trkpt lat="45.70205" lon="6.55632">
        <ele>1177</ele>
        <time>2014-03-17T15:47:09Z</time>
      </trkpt>
      <trkpt lat="45.702" lon="6.55632">
        <ele>1176</ele>
        <time>2014-03-17T15:47:13Z</time>
      </trkpt>
      <trkpt lat="45.70194" lon="6.55632">
        <ele>1174</ele>
        <time>2014-03-17T15:47:35Z</time>
      </trkpt>
      <trkpt lat="45.70189" lon="6.55633">
        <ele>1173</ele>
        <time>2014-03-17T15:47:39Z</time>
      </trkpt>
      <trkpt lat="45.70182" lon="6.55635">
        <ele>1171</ele>
        <time>2014-03-17T15:47:46Z</time>
      </trkpt>
      <trkpt lat="45.70177" lon="6.55641">
        <ele>1171</ele>
        <time>2014-03-17T15:47:52Z</time>
      </trkpt>
      <trkpt lat="45.70174" lon="6.55649">
        <ele>1170</ele>
        <time>2014-03-17T15:47:58Z</time>
      </trkpt>
      <trkpt lat="45.70173" lon="6.55657">
        <ele>1169</ele>
        <time>2014-03-17T15:48:03Z</time>
      </trkpt>
      <trkpt lat="45.70169" lon="6.55666">
        <ele>1169</ele>
        <time>2014-03-17T15:48:10Z</time>
      </trkpt>
      <trkpt lat="45.70165" lon="6.55674">
        <ele>1169</ele>
        <time>2014-03-17T15:48:15Z</time>
      </trkpt>
      <trkpt lat="45.7016" lon="6.55677">
        <ele>1167</ele>
        <time>2014-03-17T15:48:30Z</time>
      </trkpt>
      <trkpt lat="45.70156" lon="6.55669">
        <ele>1166</ele>
        <time>2014-03-17T15:48:37Z</time>
      </trkpt>
      <trkpt lat="45.7015" lon="6.55672">
        <ele>1165</ele>
        <time>2014-03-17T15:48:44Z</time>
      </trkpt>
      <trkpt lat="45.70144" lon="6.55678">
        <ele>1164</ele>
        <time>2014-03-17T15:48:52Z</time>
      </trkpt>
      <trkpt lat="45.70141" lon="6.55686">
        <ele>1162</ele>
        <time>2014-03-17T15:49:00Z</time>
      </trkpt>
      <trkpt lat="45.70134" lon="6.55689">
        <ele>1160</ele>
        <time>2014-03-17T15:49:08Z</time>
      </trkpt>
      <trkpt lat="45.70127" lon="6.55689">
        <ele>1159</ele>
        <time>2014-03-17T15:49:15Z</time>
      </trkpt>
      <trkpt lat="45.7012" lon="6.55689">
        <ele>1158</ele>
        <time>2014-03-17T15:49:22Z</time>
      </trkpt>
      <trkpt lat="45.70115" lon="6.55694">
        <ele>1155</ele>
        <time>2014-03-17T15:49:31Z</time>
      </trkpt>
      <trkpt lat="45.70109" lon="6.55696">
        <ele>1152</ele>
        <time>2014-03-17T15:49:39Z</time>
      </trkpt>
      <trkpt lat="45.70102" lon="6.55698">
        <ele>1151</ele>
        <time>2014-03-17T15:49:47Z</time>
      </trkpt>
      <trkpt lat="45.70095" lon="6.55698">
        <ele>1150</ele>
        <time>2014-03-17T15:49:55Z</time>
      </trkpt>
      <trkpt lat="45.70087" lon="6.55696">
        <ele>1150</ele>
        <time>2014-03-17T15:50:02Z</time>
      </trkpt>
      <trkpt lat="45.70079" lon="6.55697">
        <ele>1150</ele>
        <time>2014-03-17T15:50:10Z</time>
      </trkpt>
      <trkpt lat="45.70073" lon="6.55695">
        <ele>1150</ele>
        <time>2014-03-17T15:50:14Z</time>
      </trkpt>
      <trkpt lat="45.70068" lon="6.55693">
        <ele>1150</ele>
        <time>2014-03-17T15:50:18Z</time>
      </trkpt>
      <trkpt lat="45.70064" lon="6.55691">
        <ele>1150</ele>
        <time>2014-03-17T15:50:22Z</time>
      </trkpt>
      <trkpt lat="45.70058" lon="6.55689">
        <ele>1150</ele>
        <time>2014-03-17T15:50:26Z</time>
      </trkpt>
      <trkpt lat="45.70054" lon="6.55687">
        <ele>1150</ele>
        <time>2014-03-17T15:50:30Z</time>
      </trkpt>
      <trkpt lat="45.70048" lon="6.55686">
        <ele>1150</ele>
        <time>2014-03-17T15:50:34Z</time>
      </trkpt>
      <trkpt lat="45.70043" lon="6.55685">
        <ele>1150</ele>
        <time>2014-03-17T15:50:38Z</time>
      </trkpt>
      <trkpt lat="45.70038" lon="6.55684">
        <ele>1150</ele>
        <time>2014-03-17T15:50:42Z</time>
      </trkpt>
      <trkpt lat="45.70033" lon="6.55682">
        <ele>1150</ele>
        <time>2014-03-17T15:50:46Z</time>
      </trkpt>
      <trkpt lat="45.70028" lon="6.55679">
        <ele>1150</ele>
        <time>2014-03-17T15:50:50Z</time>
      </trkpt>
      <trkpt lat="45.70022" lon="6.55675">
        <ele>1150</ele>
        <time>2014-03-17T15:50:55Z</time>
      </trkpt>
      <trkpt lat="45.70016" lon="6.55668">
        <ele>1150</ele>
        <time>2014-03-17T15:51:01Z</time>
      </trkpt>
      <trkpt lat="45.70009" lon="6.55659">
        <ele>1150</ele>
        <time>2014-03-17T15:51:08Z</time>
      </trkpt>
      <trkpt lat="45.70006" lon="6.55652">
        <ele>1150</ele>
        <time>2014-03-17T15:51:12Z</time>
      </trkpt>
      <trkpt lat="45.70004" lon="6.55645">
        <ele>1150</ele>
        <time>2014-03-17T15:51:16Z</time>
      </trkpt>
      <trkpt lat="45.70002" lon="6.55638">
        <ele>1150</ele>
        <time>2014-03-17T15:51:20Z</time>
      </trkpt>
      <trkpt lat="45.7" lon="6.55631">
        <ele>1150</ele>
        <time>2014-03-17T15:51:24Z</time>
      </trkpt>
      <trkpt lat="45.69997" lon="6.55625">
        <ele>1150</ele>
        <time>2014-03-17T15:51:28Z</time>
      </trkpt>
      <trkpt lat="45.69995" lon="6.55618">
        <ele>1150</ele>
        <time>2014-03-17T15:51:32Z</time>
      </trkpt>
      <trkpt lat="45.69993" lon="6.55612">
        <ele>1150</ele>
        <time>2014-03-17T15:51:36Z</time>
      </trkpt>
      <trkpt lat="45.69991" lon="6.55606">
        <ele>1150</ele>
        <time>2014-03-17T15:51:40Z</time>
      </trkpt>
      <trkpt lat="45.69988" lon="6.55598">
        <ele>1150</ele>
        <time>2014-03-17T15:51:45Z</time>
      </trkpt>
      <trkpt lat="45.69985" lon="6.55591">
        <ele>1150</ele>
        <time>2014-03-17T15:51:50Z</time>
      </trkpt>
      <trkpt lat="45.6998" lon="6.55584">
        <ele>1150</ele>
        <time>2014-03-17T15:51:55Z</time>
      </trkpt>
      <trkpt lat="45.69974" lon="6.55576">
        <ele>1150</ele>
        <time>2014-03-17T15:52:01Z</time>
      </trkpt>
      <trkpt lat="45.6997" lon="6.55566">
        <ele>1150</ele>
        <time>2014-03-17T15:52:07Z</time>
      </trkpt>
      <trkpt lat="45.69967" lon="6.5556">
        <ele>1150</ele>
        <time>2014-03-17T15:52:11Z</time>
      </trkpt>
      <trkpt lat="45.69964" lon="6.55553">
        <ele>1148</ele>
        <time>2014-03-17T15:52:15Z</time>
      </trkpt>
      <trkpt lat="45.69958" lon="6.5555">
        <ele>1148</ele>
        <time>2014-03-17T15:52:21Z</time>
      </trkpt>
      <trkpt lat="45.69952" lon="6.55553">
        <ele>1148</ele>
        <time>2014-03-17T15:52:27Z</time>
      </trkpt>
      <trkpt lat="45.69952" lon="6.55561">
        <ele>1148</ele>
        <time>2014-03-17T15:52:32Z</time>
      </trkpt>
      <trkpt lat="45.69955" lon="6.5557">
        <ele>1150</ele>
        <time>2014-03-17T15:52:36Z</time>
      </trkpt>
      <trkpt lat="45.69959" lon="6.5558">
        <ele>1153</ele>
        <time>2014-03-17T15:52:40Z</time>
      </trkpt>
      <trkpt lat="45.69961" lon="6.55589">
        <ele>1157</ele>
        <time>2014-03-17T15:52:44Z</time>
      </trkpt>
      <trkpt lat="45.69962" lon="6.55598">
        <ele>1161</ele>
        <time>2014-03-17T15:52:48Z</time>
      </trkpt>
      <trkpt lat="45.69957" lon="6.55604">
        <ele>1163</ele>
        <time>2014-03-17T15:52:52Z</time>
      </trkpt>
      <trkpt lat="45.69952" lon="6.55609">
        <ele>1162</ele>
        <time>2014-03-17T15:52:56Z</time>
      </trkpt>
      <trkpt lat="45.69947" lon="6.55615">
        <ele>1157</ele>
        <time>2014-03-17T15:53:01Z</time>
      </trkpt>
      <trkpt lat="45.69942" lon="6.55623">
        <ele>1151</ele>
        <time>2014-03-17T15:53:07Z</time>
      </trkpt>
      <trkpt lat="45.69939" lon="6.55632">
        <ele>1149</ele>
        <time>2014-03-17T15:53:12Z</time>
      </trkpt>
      <trkpt lat="45.69936" lon="6.5564">
        <ele>1149</ele>
        <time>2014-03-17T15:53:17Z</time>
      </trkpt>
      <trkpt lat="45.6993" lon="6.55648">
        <ele>1149</ele>
        <time>2014-03-17T15:53:23Z</time>
      </trkpt>
      <trkpt lat="45.69925" lon="6.55655">
        <ele>1147</ele>
        <time>2014-03-17T15:53:28Z</time>
      </trkpt>
      <trkpt lat="45.6992" lon="6.55664">
        <ele>1146</ele>
        <time>2014-03-17T15:53:34Z</time>
      </trkpt>
      <trkpt lat="45.69916" lon="6.55673">
        <ele>1145</ele>
        <time>2014-03-17T15:53:39Z</time>
      </trkpt>
      <trkpt lat="45.69914" lon="6.55679">
        <ele>1145</ele>
        <time>2014-03-17T15:53:43Z</time>
      </trkpt>
      <trkpt lat="45.69911" lon="6.55686">
        <ele>1145</ele>
        <time>2014-03-17T15:53:47Z</time>
      </trkpt>
      <trkpt lat="45.69908" lon="6.55692">
        <ele>1145</ele>
        <time>2014-03-17T15:53:51Z</time>
      </trkpt>
      <trkpt lat="45.69904" lon="6.55699">
        <ele>1145</ele>
        <time>2014-03-17T15:53:55Z</time>
      </trkpt>
      <trkpt lat="45.69901" lon="6.55708">
        <ele>1145</ele>
        <time>2014-03-17T15:53:59Z</time>
      </trkpt>
      <trkpt lat="45.69895" lon="6.55711">
        <ele>1146</ele>
        <time>2014-03-17T15:54:04Z</time>
      </trkpt>
      <trkpt lat="45.6989" lon="6.55714">
        <ele>1146</ele>
        <time>2014-03-17T15:54:08Z</time>
      </trkpt>
      <trkpt lat="45.69885" lon="6.55716">
        <ele>1145</ele>
        <time>2014-03-17T15:54:12Z</time>
      </trkpt>
      <trkpt lat="45.6988" lon="6.55718">
        <ele>1144</ele>
        <time>2014-03-17T15:54:16Z</time>
      </trkpt>
      <trkpt lat="45.69875" lon="6.5572">
        <ele>1143</ele>
        <time>2014-03-17T15:54:20Z</time>
      </trkpt>
      <trkpt lat="45.6987" lon="6.55722">
        <ele>1143</ele>
        <time>2014-03-17T15:54:24Z</time>
      </trkpt>
      <trkpt lat="45.69865" lon="6.55723">
        <ele>1142</ele>
        <time>2014-03-17T15:54:28Z</time>
      </trkpt>
      <trkpt lat="45.6986" lon="6.55723">
        <ele>1142</ele>
        <time>2014-03-17T15:54:32Z</time>
      </trkpt>
      <trkpt lat="45.69854" lon="6.55724">
        <ele>1141</ele>
        <time>2014-03-17T15:54:36Z</time>
      </trkpt>
      <trkpt lat="45.69849" lon="6.55724">
        <ele>1141</ele>
        <time>2014-03-17T15:54:40Z</time>
      </trkpt>
      <trkpt lat="45.69844" lon="6.55724">
        <ele>1141</ele>
        <time>2014-03-17T15:54:44Z</time>
      </trkpt>
      <trkpt lat="45.69838" lon="6.55723">
        <ele>1141</ele>
        <time>2014-03-17T15:54:48Z</time>
      </trkpt>
      <trkpt lat="45.69832" lon="6.55721">
        <ele>1141</ele>
        <time>2014-03-17T15:54:53Z</time>
      </trkpt>
      <trkpt lat="45.69826" lon="6.55719">
        <ele>1140</ele>
        <time>2014-03-17T15:54:58Z</time>
      </trkpt>
      <trkpt lat="45.69821" lon="6.55718">
        <ele>1140</ele>
        <time>2014-03-17T15:55:02Z</time>
      </trkpt>
      <trkpt lat="45.69816" lon="6.55719">
        <ele>1139</ele>
        <time>2014-03-17T15:55:06Z</time>
      </trkpt>
      <trkpt lat="45.6981" lon="6.55721">
        <ele>1139</ele>
        <time>2014-03-17T15:55:10Z</time>
      </trkpt>
      <trkpt lat="45.69805" lon="6.55723">
        <ele>1138</ele>
        <time>2014-03-17T15:55:14Z</time>
      </trkpt>
      <trkpt lat="45.69799" lon="6.55725">
        <ele>1138</ele>
        <time>2014-03-17T15:55:18Z</time>
      </trkpt>
      <trkpt lat="45.69793" lon="6.55726">
        <ele>1138</ele>
        <time>2014-03-17T15:55:22Z</time>
      </trkpt>
      <trkpt lat="45.69788" lon="6.55727">
        <ele>1138</ele>
        <time>2014-03-17T15:55:26Z</time>
      </trkpt>
      <trkpt lat="45.69783" lon="6.55728">
        <ele>1138</ele>
        <time>2014-03-17T15:55:30Z</time>
      </trkpt>
      <trkpt lat="45.69778" lon="6.5573">
        <ele>1137</ele>
        <time>2014-03-17T15:55:34Z</time>
      </trkpt>
      <trkpt lat="45.69772" lon="6.55731">
        <ele>1137</ele>
        <time>2014-03-17T15:55:38Z</time>
      </trkpt>
      <trkpt lat="45.69767" lon="6.55733">
        <ele>1137</ele>
        <time>2014-03-17T15:55:42Z</time>
      </trkpt>
      <trkpt lat="45.69762" lon="6.55735">
        <ele>1136</ele>
        <time>2014-03-17T15:55:46Z</time>
      </trkpt>
      <trkpt lat="45.69757" lon="6.55738">
        <ele>1136</ele>
        <time>2014-03-17T15:55:50Z</time>
      </trkpt>
      <trkpt lat="45.69752" lon="6.5574">
        <ele>1136</ele>
        <time>2014-03-17T15:55:54Z</time>
      </trkpt>
      <trkpt lat="45.69747" lon="6.55742">
        <ele>1135</ele>
        <time>2014-03-17T15:55:58Z</time>
      </trkpt>
      <trkpt lat="45.69742" lon="6.55744">
        <ele>1135</ele>
        <time>2014-03-17T15:56:02Z</time>
      </trkpt>
      <trkpt lat="45.69737" lon="6.55747">
        <ele>1134</ele>
        <time>2014-03-17T15:56:06Z</time>
      </trkpt>
      <trkpt lat="45.69732" lon="6.5575">
        <ele>1133</ele>
        <time>2014-03-17T15:56:10Z</time>
      </trkpt>
      <trkpt lat="45.69725" lon="6.55757">
        <ele>1132</ele>
        <time>2014-03-17T15:56:17Z</time>
      </trkpt>
      <trkpt lat="45.6972" lon="6.55765">
        <ele>1130</ele>
        <time>2014-03-17T15:56:24Z</time>
      </trkpt>
      <trkpt lat="45.69717" lon="6.55773">
        <ele>1130</ele>
        <time>2014-03-17T15:56:29Z</time>
      </trkpt>
      <trkpt lat="45.69712" lon="6.55781">
        <ele>1127</ele>
        <time>2014-03-17T15:56:35Z</time>
      </trkpt>
      <trkpt lat="45.69705" lon="6.55787">
        <ele>1126</ele>
        <time>2014-03-17T15:56:41Z</time>
      </trkpt>
      <trkpt lat="45.697" lon="6.55788">
        <ele>1125</ele>
        <time>2014-03-17T15:56:46Z</time>
      </trkpt>
      <trkpt lat="45.69694" lon="6.55789">
        <ele>1124</ele>
        <time>2014-03-17T15:56:51Z</time>
      </trkpt>
      <trkpt lat="45.69687" lon="6.55791">
        <ele>1123</ele>
        <time>2014-03-17T15:56:59Z</time>
      </trkpt>
      <trkpt lat="45.6968" lon="6.55795">
        <ele>1121</ele>
        <time>2014-03-17T15:57:04Z</time>
      </trkpt>
      <trkpt lat="45.69673" lon="6.55799">
        <ele>1120</ele>
        <time>2014-03-17T15:57:11Z</time>
      </trkpt>
      <trkpt lat="45.69668" lon="6.55804">
        <ele>1120</ele>
        <time>2014-03-17T15:57:14Z</time>
      </trkpt>
      <trkpt lat="45.69661" lon="6.55808">
        <ele>1119</ele>
        <time>2014-03-17T15:57:19Z</time>
      </trkpt>
      <trkpt lat="45.69656" lon="6.55811">
        <ele>1119</ele>
        <time>2014-03-17T15:57:23Z</time>
      </trkpt>
      <trkpt lat="45.69651" lon="6.55813">
        <ele>1119</ele>
        <time>2014-03-17T15:57:27Z</time>
      </trkpt>
      <trkpt lat="45.69646" lon="6.55815">
        <ele>1119</ele>
        <time>2014-03-17T15:57:31Z</time>
      </trkpt>
      <trkpt lat="45.69641" lon="6.55817">
        <ele>1119</ele>
        <time>2014-03-17T15:57:35Z</time>
      </trkpt>
      <trkpt lat="45.69637" lon="6.55818">
        <ele>1119</ele>
        <time>2014-03-17T15:57:39Z</time>
      </trkpt>
      <trkpt lat="45.69632" lon="6.5582">
        <ele>1119</ele>
        <time>2014-03-17T15:57:43Z</time>
      </trkpt>
      <trkpt lat="45.69627" lon="6.55822">
        <ele>1119</ele>
        <time>2014-03-17T15:57:47Z</time>
      </trkpt>
      <trkpt lat="45.69622" lon="6.55823">
        <ele>1118</ele>
        <time>2014-03-17T15:57:51Z</time>
      </trkpt>
      <trkpt lat="45.69617" lon="6.55825">
        <ele>1118</ele>
        <time>2014-03-17T15:57:55Z</time>
      </trkpt>
      <trkpt lat="45.69612" lon="6.55826">
        <ele>1117</ele>
        <time>2014-03-17T15:57:59Z</time>
      </trkpt>
      <trkpt lat="45.69607" lon="6.55827">
        <ele>1117</ele>
        <time>2014-03-17T15:58:03Z</time>
      </trkpt>
      <trkpt lat="45.69602" lon="6.55826">
        <ele>1117</ele>
        <time>2014-03-17T15:58:07Z</time>
      </trkpt>
      <trkpt lat="45.69597" lon="6.55826">
        <ele>1116</ele>
        <time>2014-03-17T15:58:11Z</time>
      </trkpt>
      <trkpt lat="45.69592" lon="6.55826">
        <ele>1115</ele>
        <time>2014-03-17T15:58:15Z</time>
      </trkpt>
      <trkpt lat="45.69587" lon="6.55826">
        <ele>1114</ele>
        <time>2014-03-17T15:58:19Z</time>
      </trkpt>
      <trkpt lat="45.69581" lon="6.55829">
        <ele>1113</ele>
        <time>2014-03-17T15:58:25Z</time>
      </trkpt>
      <trkpt lat="45.69584" lon="6.55837">
        <ele>1111</ele>
        <time>2014-03-17T15:58:30Z</time>
      </trkpt>
      <trkpt lat="45.69591" lon="6.55843">
        <ele>1111</ele>
        <time>2014-03-17T15:58:37Z</time>
      </trkpt>
      <trkpt lat="45.69593" lon="6.55848">
        <ele>1111</ele>
        <time>2014-03-17T15:59:04Z</time>
      </trkpt>
      <trkpt lat="45.6959" lon="6.5585">
        <ele>1105</ele>
        <time>2014-03-17T15:59:20Z</time>
      </trkpt>
      <trkpt lat="45.69585" lon="6.55854">
        <ele>1102</ele>
        <time>2014-03-17T15:59:30Z</time>
      </trkpt>
      <trkpt lat="45.69585" lon="6.55862">
        <ele>1099</ele>
        <time>2014-03-17T15:59:40Z</time>
      </trkpt>
      <trkpt lat="45.69585" lon="6.5587">
        <ele>1097</ele>
        <time>2014-03-17T15:59:48Z</time>
      </trkpt>
      <trkpt lat="45.69584" lon="6.5588">
        <ele>1095</ele>
        <time>2014-03-17T15:59:56Z</time>
      </trkpt>
      <trkpt lat="45.69582" lon="6.55888">
        <ele>1093</ele>
        <time>2014-03-17T16:00:04Z</time>
      </trkpt>
      <trkpt lat="45.6958" lon="6.55895">
        <ele>1090</ele>
        <time>2014-03-17T16:00:12Z</time>
      </trkpt>
      <trkpt lat="45.69578" lon="6.55902">
        <ele>1088</ele>
        <time>2014-03-17T16:00:20Z</time>
      </trkpt>
      <trkpt lat="45.69577" lon="6.5591">
        <ele>1086</ele>
        <time>2014-03-17T16:00:28Z</time>
      </trkpt>
      <trkpt lat="45.69576" lon="6.55919">
        <ele>1084</ele>
        <time>2014-03-17T16:00:36Z</time>
      </trkpt>
      <trkpt lat="45.69574" lon="6.55927">
        <ele>1081</ele>
        <time>2014-03-17T16:00:47Z</time>
      </trkpt>
      <trkpt lat="45.69576" lon="6.55933">
        <ele>1073</ele>
        <time>2014-03-17T16:00:59Z</time>
      </trkpt>
      <trkpt lat="45.69574" lon="6.5594">
        <ele>1069</ele>
        <time>2014-03-17T16:01:09Z</time>
      </trkpt>
      <trkpt lat="45.69572" lon="6.55947">
        <ele>1066</ele>
        <time>2014-03-17T16:01:20Z</time>
      </trkpt>
      <trkpt lat="45.69573" lon="6.55955">
        <ele>1065</ele>
        <time>2014-03-17T16:01:30Z</time>
      </trkpt>
      <trkpt lat="45.69571" lon="6.55962">
        <ele>1062</ele>
        <time>2014-03-17T16:01:40Z</time>
      </trkpt>
      <trkpt lat="45.69569" lon="6.55969">
        <ele>1059</ele>
        <time>2014-03-17T16:01:51Z</time>
      </trkpt>
      <trkpt lat="45.69568" lon="6.55976">
        <ele>1058</ele>
        <time>2014-03-17T16:01:59Z</time>
      </trkpt>
      <trkpt lat="45.69564" lon="6.55982">
        <ele>1055</ele>
        <time>2014-03-17T16:02:08Z</time>
      </trkpt>
      <trkpt lat="45.69563" lon="6.5599">
        <ele>1054</ele>
        <time>2014-03-17T16:02:16Z</time>
      </trkpt>
      <trkpt lat="45.69559" lon="6.55998">
        <ele>1053</ele>
        <time>2014-03-17T16:02:23Z</time>
      </trkpt>
      <trkpt lat="45.69553" lon="6.56002">
        <ele>1053</ele>
        <time>2014-03-17T16:02:28Z</time>
      </trkpt>
      <trkpt lat="45.69548" lon="6.56007">
        <ele>1053</ele>
        <time>2014-03-17T16:02:33Z</time>
      </trkpt>
      <trkpt lat="45.69542" lon="6.56013">
        <ele>1053</ele>
        <time>2014-03-17T16:02:39Z</time>
      </trkpt>
      <trkpt lat="45.69538" lon="6.56015">
        <ele>1053</ele>
        <time>2014-03-17T16:02:44Z</time>
      </trkpt>
      <trkpt lat="45.69533" lon="6.56018">
        <ele>1053</ele>
        <time>2014-03-17T16:03:16Z</time>
      </trkpt>
      <trkpt lat="45.69528" lon="6.56021">
        <ele>1053</ele>
        <time>2014-03-17T16:03:20Z</time>
      </trkpt>
      <trkpt lat="45.69523" lon="6.56023">
        <ele>1053</ele>
        <time>2014-03-17T16:03:24Z</time>
      </trkpt>
      <trkpt lat="45.69518" lon="6.56026">
        <ele>1053</ele>
        <time>2014-03-17T16:03:28Z</time>
      </trkpt>
      <trkpt lat="45.69513" lon="6.56029">
        <ele>1052</ele>
        <time>2014-03-17T16:03:32Z</time>
      </trkpt>
      <trkpt lat="45.69508" lon="6.56029">
        <ele>1052</ele>
        <time>2014-03-17T16:03:36Z</time>
      </trkpt>
      <trkpt lat="45.69503" lon="6.5603">
        <ele>1052</ele>
        <time>2014-03-17T16:03:40Z</time>
      </trkpt>
      <trkpt lat="45.69498" lon="6.5603">
        <ele>1052</ele>
        <time>2014-03-17T16:03:44Z</time>
      </trkpt>
      <trkpt lat="45.69493" lon="6.5603">
        <ele>1051</ele>
        <time>2014-03-17T16:03:48Z</time>
      </trkpt>
      <trkpt lat="45.69488" lon="6.56029">
        <ele>1051</ele>
        <time>2014-03-17T16:03:52Z</time>
      </trkpt>
      <trkpt lat="45.69483" lon="6.56028">
        <ele>1050</ele>
        <time>2014-03-17T16:03:56Z</time>
      </trkpt>
      <trkpt lat="45.69479" lon="6.56026">
        <ele>1050</ele>
        <time>2014-03-17T16:04:00Z</time>
      </trkpt>
      <trkpt lat="45.69474" lon="6.56025">
        <ele>1049</ele>
        <time>2014-03-17T16:04:04Z</time>
      </trkpt>
      <trkpt lat="45.69468" lon="6.56022">
        <ele>1049</ele>
        <time>2014-03-17T16:04:09Z</time>
      </trkpt>
      <trkpt lat="45.69463" lon="6.56019">
        <ele>1049</ele>
        <time>2014-03-17T16:04:13Z</time>
      </trkpt>
      <trkpt lat="45.69461" lon="6.56018">
        <ele>1048</ele>
        <time>2014-03-17T16:04:16Z</time>
      </trkpt>
    </trkseg>
  </trk>
</gpx>